<?xml version='1.0' encoding='UTF-8'?>
<gpx version="1.1" creator="https://www.komoot.de" xmlns="http://www.topografix.com/GPX/1/1" xmlns:xsi="http://www.w3.org/2001/XMLSchema-instance" xsi:schemaLocation="http://www.topografix.com/GPX/1/1 http://www.topografix.com/GPX/1/1/gpx.xsd">
  <metadata>
    <name>70_820BoettsteinHottwil</name>
    <author>
      <link href="https://www.komoot.de">
        <text>komoot</text>
        <type>text/html</type>
      </link>
    </author>
  </metadata>
  <trk>
    <name>70_820BoettsteinHottwil</name>
    <trkseg>
      <trkpt lat="47.541470" lon="7.870745">
        <ele>341.186035</ele>
        <time>2021-11-20T08:11:26.060Z</time>
      </trkpt>
      <trkpt lat="47.541576" lon="7.870664">
        <ele>341.186035</ele>
        <time>2021-11-20T08:11:28.787Z</time>
      </trkpt>
      <trkpt lat="47.541796" lon="7.871042">
        <ele>341.186035</ele>
        <time>2021-11-20T08:11:36.055Z</time>
      </trkpt>
      <trkpt lat="47.541953" lon="7.871286">
        <ele>341.186035</ele>
        <time>2021-11-20T08:11:40.976Z</time>
      </trkpt>
      <trkpt lat="47.542039" lon="7.871556">
        <ele>341.186035</ele>
        <time>2021-11-20T08:11:45.439Z</time>
      </trkpt>
      <trkpt lat="47.542067" lon="7.871664">
        <ele>341.439630</ele>
        <time>2021-11-20T08:11:47.129Z</time>
      </trkpt>
      <trkpt lat="47.542091" lon="7.871721">
        <ele>341.619188</ele>
        <time>2021-11-20T08:11:47.748Z</time>
      </trkpt>
      <trkpt lat="47.542218" lon="7.871866">
        <ele>342.254062</ele>
        <time>2021-11-20T08:11:52.991Z</time>
      </trkpt>
      <trkpt lat="47.542394" lon="7.872341">
        <ele>343.702333</ele>
        <time>2021-11-20T08:12:03.034Z</time>
      </trkpt>
      <trkpt lat="47.542436" lon="7.872494">
        <ele>344.143794</ele>
        <time>2021-11-20T08:12:06.320Z</time>
      </trkpt>
      <trkpt lat="47.542537" lon="7.872430">
        <ele>344.578751</ele>
        <time>2021-11-20T08:12:08.319Z</time>
      </trkpt>
      <trkpt lat="47.542714" lon="7.872334">
        <ele>345.325073</ele>
        <time>2021-11-20T08:12:15.071Z</time>
      </trkpt>
      <trkpt lat="47.542814" lon="7.872280">
        <ele>345.746506</ele>
        <time>2021-11-20T08:12:18.099Z</time>
      </trkpt>
      <trkpt lat="47.542919" lon="7.872226">
        <ele>346.186592</ele>
        <time>2021-11-20T08:12:21.956Z</time>
      </trkpt>
      <trkpt lat="47.542987" lon="7.872194">
        <ele>346.469094</ele>
        <time>2021-11-20T08:12:24.745Z</time>
      </trkpt>
      <trkpt lat="47.543013" lon="7.872182">
        <ele>346.576921</ele>
        <time>2021-11-20T08:12:25.479Z</time>
      </trkpt>
      <trkpt lat="47.543233" lon="7.872082">
        <ele>347.488089</ele>
        <time>2021-11-20T08:12:32.696Z</time>
      </trkpt>
      <trkpt lat="47.543251" lon="7.872152">
        <ele>347.688298</ele>
        <time>2021-11-20T08:12:36.090Z</time>
      </trkpt>
      <trkpt lat="47.543332" lon="7.872237">
        <ele>348.081329</ele>
        <time>2021-11-20T08:12:39.383Z</time>
      </trkpt>
      <trkpt lat="47.544072" lon="7.872367">
        <ele>352.815094</ele>
        <time>2021-11-20T08:13:07.836Z</time>
      </trkpt>
      <trkpt lat="47.544390" lon="7.872423">
        <ele>354.913087</ele>
        <time>2021-11-20T08:13:21.117Z</time>
      </trkpt>
      <trkpt lat="47.544883" lon="7.872555">
        <ele>358.195223</ele>
        <time>2021-11-20T08:13:43.489Z</time>
      </trkpt>
      <trkpt lat="47.545131" lon="7.872664">
        <ele>359.889950</ele>
        <time>2021-11-20T08:13:54.490Z</time>
      </trkpt>
      <trkpt lat="47.545375" lon="7.872836">
        <ele>361.651634</ele>
        <time>2021-11-20T08:14:05.615Z</time>
      </trkpt>
      <trkpt lat="47.545478" lon="7.872968">
        <ele>362.538988</ele>
        <time>2021-11-20T08:14:12.493Z</time>
      </trkpt>
      <trkpt lat="47.545515" lon="7.873015">
        <ele>362.856548</ele>
        <time>2021-11-20T08:14:14.508Z</time>
      </trkpt>
      <trkpt lat="47.545746" lon="7.873302">
        <ele>364.820852</ele>
        <time>2021-11-20T08:14:27.976Z</time>
      </trkpt>
      <trkpt lat="47.545934" lon="7.873549">
        <ele>366.458067</ele>
        <time>2021-11-20T08:14:38.076Z</time>
      </trkpt>
      <trkpt lat="47.546077" lon="7.873763">
        <ele>367.782412</ele>
        <time>2021-11-20T08:14:47.272Z</time>
      </trkpt>
      <trkpt lat="47.546135" lon="7.873859">
        <ele>368.349038</ele>
        <time>2021-11-20T08:14:50.511Z</time>
      </trkpt>
      <trkpt lat="47.546309" lon="7.874154">
        <ele>370.071973</ele>
        <time>2021-11-20T08:15:01.626Z</time>
      </trkpt>
      <trkpt lat="47.547126" lon="7.875801">
        <ele>375.787100</ele>
        <time>2021-11-20T08:15:47.387Z</time>
      </trkpt>
      <trkpt lat="47.547574" lon="7.876801">
        <ele>378.100645</ele>
        <time>2021-11-20T08:16:06.383Z</time>
      </trkpt>
      <trkpt lat="47.547992" lon="7.877974">
        <ele>377.112034</ele>
        <time>2021-11-20T08:16:19.183Z</time>
      </trkpt>
      <trkpt lat="47.548234" lon="7.878638">
        <ele>376.549614</ele>
        <time>2021-11-20T08:16:24.496Z</time>
      </trkpt>
      <trkpt lat="47.548422" lon="7.878959">
        <ele>376.179373</ele>
        <time>2021-11-20T08:16:27.338Z</time>
      </trkpt>
      <trkpt lat="47.548718" lon="7.879258">
        <ele>374.668390</ele>
        <time>2021-11-20T08:16:30.877Z</time>
      </trkpt>
      <trkpt lat="47.549140" lon="7.879391">
        <ele>372.848720</ele>
        <time>2021-11-20T08:16:35.064Z</time>
      </trkpt>
      <trkpt lat="47.549318" lon="7.879398">
        <ele>372.097715</ele>
        <time>2021-11-20T08:16:36.691Z</time>
      </trkpt>
      <trkpt lat="47.549327" lon="7.879547">
        <ele>371.671859</ele>
        <time>2021-11-20T08:16:37.677Z</time>
      </trkpt>
      <trkpt lat="47.549726" lon="7.880786">
        <ele>367.904283</ele>
        <time>2021-11-20T08:16:46.611Z</time>
      </trkpt>
      <trkpt lat="47.549927" lon="7.881490">
        <ele>366.066995</ele>
        <time>2021-11-20T08:16:51.643Z</time>
      </trkpt>
      <trkpt lat="47.550234" lon="7.883221">
        <ele>361.651124</ele>
        <time>2021-11-20T08:17:04.044Z</time>
      </trkpt>
      <trkpt lat="47.550332" lon="7.884727">
        <ele>357.177413</ele>
        <time>2021-11-20T08:17:13.888Z</time>
      </trkpt>
      <trkpt lat="47.550391" lon="7.885109">
        <ele>356.018690</ele>
        <time>2021-11-20T08:17:16.421Z</time>
      </trkpt>
      <trkpt lat="47.550548" lon="7.885799">
        <ele>353.716614</ele>
        <time>2021-11-20T08:17:21.025Z</time>
      </trkpt>
      <trkpt lat="47.550677" lon="7.886476">
        <ele>351.034964</ele>
        <time>2021-11-20T08:17:25.456Z</time>
      </trkpt>
      <trkpt lat="47.550758" lon="7.887295">
        <ele>347.879542</ele>
        <time>2021-11-20T08:17:30.608Z</time>
      </trkpt>
      <trkpt lat="47.550789" lon="7.887816">
        <ele>345.885755</ele>
        <time>2021-11-20T08:17:33.866Z</time>
      </trkpt>
      <trkpt lat="47.550831" lon="7.888611">
        <ele>342.702603</ele>
        <time>2021-11-20T08:17:38.826Z</time>
      </trkpt>
      <trkpt lat="47.550833" lon="7.889069">
        <ele>340.774845</ele>
        <time>2021-11-20T08:17:41.636Z</time>
      </trkpt>
      <trkpt lat="47.550886" lon="7.890043">
        <ele>336.661987</ele>
        <time>2021-11-20T08:17:47.580Z</time>
      </trkpt>
      <trkpt lat="47.550915" lon="7.890600">
        <ele>334.310616</ele>
        <time>2021-11-20T08:17:51.033Z</time>
      </trkpt>
      <trkpt lat="47.550904" lon="7.891725">
        <ele>330.790004</ele>
        <time>2021-11-20T08:17:58.035Z</time>
      </trkpt>
      <trkpt lat="47.550892" lon="7.893176">
        <ele>326.845512</ele>
        <time>2021-11-20T08:18:07.575Z</time>
      </trkpt>
      <trkpt lat="47.550908" lon="7.894308">
        <ele>325.140262</ele>
        <time>2021-11-20T08:18:16.780Z</time>
      </trkpt>
      <trkpt lat="47.550878" lon="7.895158">
        <ele>324.419289</ele>
        <time>2021-11-20T08:18:23.965Z</time>
      </trkpt>
      <trkpt lat="47.550838" lon="7.895509">
        <ele>324.117767</ele>
        <time>2021-11-20T08:18:27.129Z</time>
      </trkpt>
      <trkpt lat="47.550660" lon="7.896255">
        <ele>323.377399</ele>
        <time>2021-11-20T08:18:33.618Z</time>
      </trkpt>
      <trkpt lat="47.550639" lon="7.896345">
        <ele>323.196956</ele>
        <time>2021-11-20T08:18:34.805Z</time>
      </trkpt>
      <trkpt lat="47.550648" lon="7.896481">
        <ele>322.938017</ele>
        <time>2021-11-20T08:18:35.760Z</time>
      </trkpt>
      <trkpt lat="47.550819" lon="7.898109">
        <ele>319.816020</ele>
        <time>2021-11-20T08:18:47.508Z</time>
      </trkpt>
      <trkpt lat="47.550801" lon="7.900244">
        <ele>314.383584</ele>
        <time>2021-11-20T08:19:01.345Z</time>
      </trkpt>
      <trkpt lat="47.550769" lon="7.901362">
        <ele>311.167993</ele>
        <time>2021-11-20T08:19:08.617Z</time>
      </trkpt>
      <trkpt lat="47.550757" lon="7.901591">
        <ele>310.548628</ele>
        <time>2021-11-20T08:19:10.753Z</time>
      </trkpt>
      <trkpt lat="47.550688" lon="7.902451">
        <ele>308.410546</ele>
        <time>2021-11-20T08:19:19.187Z</time>
      </trkpt>
      <trkpt lat="47.550498" lon="7.903445">
        <ele>305.860081</ele>
        <time>2021-11-20T08:19:29.437Z</time>
      </trkpt>
      <trkpt lat="47.550302" lon="7.904164">
        <ele>303.946900</ele>
        <time>2021-11-20T08:19:36.697Z</time>
      </trkpt>
      <trkpt lat="47.550025" lon="7.904774">
        <ele>302.139700</ele>
        <time>2021-11-20T08:19:43.622Z</time>
      </trkpt>
      <trkpt lat="47.549868" lon="7.905010">
        <ele>301.325172</ele>
        <time>2021-11-20T08:19:46.754Z</time>
      </trkpt>
      <trkpt lat="47.549867" lon="7.905155">
        <ele>300.968730</ele>
        <time>2021-11-20T08:19:48.151Z</time>
      </trkpt>
      <trkpt lat="47.550067" lon="7.905245">
        <ele>300.207496</ele>
        <time>2021-11-20T08:19:51.076Z</time>
      </trkpt>
      <trkpt lat="47.550283" lon="7.905413">
        <ele>299.319042</ele>
        <time>2021-11-20T08:19:54.526Z</time>
      </trkpt>
      <trkpt lat="47.550497" lon="7.905558">
        <ele>298.462044</ele>
        <time>2021-11-20T08:19:57.884Z</time>
      </trkpt>
      <trkpt lat="47.549539" lon="7.908625">
        <ele>293.105335</ele>
        <time>2021-11-20T08:20:22.331Z</time>
      </trkpt>
      <trkpt lat="47.549520" lon="7.908678">
        <ele>293.049694</ele>
        <time>2021-11-20T08:20:22.830Z</time>
      </trkpt>
      <trkpt lat="47.549327" lon="7.909318">
        <ele>292.399773</ele>
        <time>2021-11-20T08:20:28.536Z</time>
      </trkpt>
      <trkpt lat="47.549276" lon="7.909487">
        <ele>292.228132</ele>
        <time>2021-11-20T08:20:30.065Z</time>
      </trkpt>
      <trkpt lat="47.549195" lon="7.909756">
        <ele>291.955029</ele>
        <time>2021-11-20T08:20:32.465Z</time>
      </trkpt>
      <trkpt lat="47.549102" lon="7.910058">
        <ele>291.647256</ele>
        <time>2021-11-20T08:20:35.173Z</time>
      </trkpt>
      <trkpt lat="47.549012" lon="7.910340">
        <ele>291.358037</ele>
        <time>2021-11-20T08:20:37.683Z</time>
      </trkpt>
      <trkpt lat="47.548412" lon="7.912168">
        <ele>289.810974</ele>
        <time>2021-11-20T08:20:54.012Z</time>
      </trkpt>
      <trkpt lat="47.548027" lon="7.913334">
        <ele>289.019819</ele>
        <time>2021-11-20T08:21:04.773Z</time>
      </trkpt>
      <trkpt lat="47.547994" lon="7.913433">
        <ele>288.998241</ele>
        <time>2021-11-20T08:21:05.693Z</time>
      </trkpt>
      <trkpt lat="47.547423" lon="7.915080">
        <ele>288.636402</ele>
        <time>2021-11-20T08:21:23.170Z</time>
      </trkpt>
      <trkpt lat="47.547113" lon="7.915971">
        <ele>288.728517</ele>
        <time>2021-11-20T08:21:33.617Z</time>
      </trkpt>
      <trkpt lat="47.547091" lon="7.916039">
        <ele>288.751450</ele>
        <time>2021-11-20T08:21:34.642Z</time>
      </trkpt>
      <trkpt lat="47.547032" lon="7.916218">
        <ele>288.812033</ele>
        <time>2021-11-20T08:21:36.844Z</time>
      </trkpt>
      <trkpt lat="47.546821" lon="7.916867">
        <ele>289.031116</ele>
        <time>2021-11-20T08:21:44.953Z</time>
      </trkpt>
      <trkpt lat="47.546262" lon="7.919081">
        <ele>289.689143</ele>
        <time>2021-11-20T08:22:12.465Z</time>
      </trkpt>
      <trkpt lat="47.546128" lon="7.919617">
        <ele>289.835591</ele>
        <time>2021-11-20T08:22:17.933Z</time>
      </trkpt>
      <trkpt lat="47.545973" lon="7.920313">
        <ele>290.023372</ele>
        <time>2021-11-20T08:22:26.397Z</time>
      </trkpt>
      <trkpt lat="47.545913" lon="7.920765">
        <ele>290.382770</ele>
        <time>2021-11-20T08:22:30.570Z</time>
      </trkpt>
      <trkpt lat="47.545881" lon="7.921096">
        <ele>290.685940</ele>
        <time>2021-11-20T08:22:34.586Z</time>
      </trkpt>
      <trkpt lat="47.545810" lon="7.921755">
        <ele>291.290999</ele>
        <time>2021-11-20T08:22:43.495Z</time>
      </trkpt>
      <trkpt lat="47.545778" lon="7.921947">
        <ele>291.470307</ele>
        <time>2021-11-20T08:22:47.104Z</time>
      </trkpt>
      <trkpt lat="47.545714" lon="7.922249">
        <ele>291.757300</ele>
        <time>2021-11-20T08:22:50.303Z</time>
      </trkpt>
      <trkpt lat="47.545699" lon="7.922325">
        <ele>291.829092</ele>
        <time>2021-11-20T08:22:51.500Z</time>
      </trkpt>
      <trkpt lat="47.545690" lon="7.922369">
        <ele>291.870777</ele>
        <time>2021-11-20T08:22:53.598Z</time>
      </trkpt>
      <trkpt lat="47.545641" lon="7.922610">
        <ele>292.098983</ele>
        <time>2021-11-20T08:22:55.952Z</time>
      </trkpt>
      <trkpt lat="47.545587" lon="7.922895">
        <ele>292.367372</ele>
        <time>2021-11-20T08:23:01.748Z</time>
      </trkpt>
      <trkpt lat="47.545553" lon="7.923142">
        <ele>292.820524</ele>
        <time>2021-11-20T08:23:04.395Z</time>
      </trkpt>
      <trkpt lat="47.545536" lon="7.923407">
        <ele>293.467480</ele>
        <time>2021-11-20T08:23:10.285Z</time>
      </trkpt>
      <trkpt lat="47.545521" lon="7.923709">
        <ele>294.203442</ele>
        <time>2021-11-20T08:23:14.438Z</time>
      </trkpt>
      <trkpt lat="47.545481" lon="7.924396">
        <ele>295.879322</ele>
        <time>2021-11-20T08:23:29.042Z</time>
      </trkpt>
      <trkpt lat="47.545466" lon="7.924880">
        <ele>297.056872</ele>
        <time>2021-11-20T08:23:40.348Z</time>
      </trkpt>
      <trkpt lat="47.545446" lon="7.925350">
        <ele>298.201426</ele>
        <time>2021-11-20T08:23:50.723Z</time>
      </trkpt>
      <trkpt lat="47.545417" lon="7.925848">
        <ele>299.227371</ele>
        <time>2021-11-20T08:24:01.202Z</time>
      </trkpt>
      <trkpt lat="47.545409" lon="7.926773">
        <ele>300.586951</ele>
        <time>2021-11-20T08:24:18.403Z</time>
      </trkpt>
      <trkpt lat="47.545407" lon="7.927001">
        <ele>300.922070</ele>
        <time>2021-11-20T08:24:22.212Z</time>
      </trkpt>
      <trkpt lat="47.545406" lon="7.927306">
        <ele>301.370333</ele>
        <time>2021-11-20T08:24:26.816Z</time>
      </trkpt>
      <trkpt lat="47.545421" lon="7.927686">
        <ele>301.929771</ele>
        <time>2021-11-20T08:24:32.352Z</time>
      </trkpt>
      <trkpt lat="47.545475" lon="7.928419">
        <ele>302.747701</ele>
        <time>2021-11-20T08:24:41.670Z</time>
      </trkpt>
      <trkpt lat="47.545563" lon="7.929641">
        <ele>301.532097</ele>
        <time>2021-11-20T08:24:51.549Z</time>
      </trkpt>
      <trkpt lat="47.545661" lon="7.930955">
        <ele>300.224444</ele>
        <time>2021-11-20T08:25:00.945Z</time>
      </trkpt>
      <trkpt lat="47.545696" lon="7.931497">
        <ele>299.791395</ele>
        <time>2021-11-20T08:25:04.913Z</time>
      </trkpt>
      <trkpt lat="47.545721" lon="7.931992">
        <ele>299.397600</ele>
        <time>2021-11-20T08:25:08.706Z</time>
      </trkpt>
      <trkpt lat="47.545724" lon="7.932758">
        <ele>298.789901</ele>
        <time>2021-11-20T08:25:14.916Z</time>
      </trkpt>
      <trkpt lat="47.545702" lon="7.933290">
        <ele>298.367059</ele>
        <time>2021-11-20T08:25:19.559Z</time>
      </trkpt>
      <trkpt lat="47.545674" lon="7.933625">
        <ele>298.109625</ele>
        <time>2021-11-20T08:25:22.759Z</time>
      </trkpt>
      <trkpt lat="47.545457" lon="7.935110">
        <ele>299.106632</ele>
        <time>2021-11-20T08:25:40.919Z</time>
      </trkpt>
      <trkpt lat="47.545074" lon="7.936484">
        <ele>300.261425</ele>
        <time>2021-11-20T08:26:02.421Z</time>
      </trkpt>
      <trkpt lat="47.545019" lon="7.936624">
        <ele>300.451086</ele>
        <time>2021-11-20T08:26:04.825Z</time>
      </trkpt>
      <trkpt lat="47.544903" lon="7.936917">
        <ele>300.848801</ele>
        <time>2021-11-20T08:26:09.738Z</time>
      </trkpt>
      <trkpt lat="47.544705" lon="7.937395">
        <ele>301.505451</ele>
        <time>2021-11-20T08:26:17.922Z</time>
      </trkpt>
      <trkpt lat="47.544472" lon="7.937932">
        <ele>302.252897</ele>
        <time>2021-11-20T08:26:27.352Z</time>
      </trkpt>
      <trkpt lat="47.543826" lon="7.939433">
        <ele>304.281066</ele>
        <time>2021-11-20T08:26:54.001Z</time>
      </trkpt>
      <trkpt lat="47.543435" lon="7.940670">
        <ele>305.814546</ele>
        <time>2021-11-20T08:27:13.835Z</time>
      </trkpt>
      <trkpt lat="47.543188" lon="7.942061">
        <ele>306.405363</ele>
        <time>2021-11-20T08:27:32.574Z</time>
      </trkpt>
      <trkpt lat="47.543161" lon="7.942213">
        <ele>306.458448</ele>
        <time>2021-11-20T08:27:34.686Z</time>
      </trkpt>
      <trkpt lat="47.543007" lon="7.943867">
        <ele>306.420340</ele>
        <time>2021-11-20T08:27:50.302Z</time>
      </trkpt>
      <trkpt lat="47.542913" lon="7.945267">
        <ele>305.081140</ele>
        <time>2021-11-20T08:28:01.282Z</time>
      </trkpt>
      <trkpt lat="47.542872" lon="7.945781">
        <ele>304.588472</ele>
        <time>2021-11-20T08:28:05.098Z</time>
      </trkpt>
      <trkpt lat="47.542875" lon="7.946089">
        <ele>304.291944</ele>
        <time>2021-11-20T08:28:07.333Z</time>
      </trkpt>
      <trkpt lat="47.542902" lon="7.946514">
        <ele>303.844931</ele>
        <time>2021-11-20T08:28:10.427Z</time>
      </trkpt>
      <trkpt lat="47.542943" lon="7.946806">
        <ele>303.532614</ele>
        <time>2021-11-20T08:28:12.637Z</time>
      </trkpt>
      <trkpt lat="47.542974" lon="7.946965">
        <ele>303.359309</ele>
        <time>2021-11-20T08:28:13.945Z</time>
      </trkpt>
      <trkpt lat="47.542979" lon="7.946989">
        <ele>303.333007</ele>
        <time>2021-11-20T08:28:14.102Z</time>
      </trkpt>
      <trkpt lat="47.542989" lon="7.947104">
        <ele>303.211588</ele>
        <time>2021-11-20T08:28:14.973Z</time>
      </trkpt>
      <trkpt lat="47.542984" lon="7.947304">
        <ele>303.002012</ele>
        <time>2021-11-20T08:28:16.548Z</time>
      </trkpt>
      <trkpt lat="47.542979" lon="7.947370">
        <ele>302.932465</ele>
        <time>2021-11-20T08:28:17.049Z</time>
      </trkpt>
      <trkpt lat="47.542935" lon="7.947564">
        <ele>302.718155</ele>
        <time>2021-11-20T08:28:18.616Z</time>
      </trkpt>
      <trkpt lat="47.542892" lon="7.947789">
        <ele>302.473282</ele>
        <time>2021-11-20T08:28:20.534Z</time>
      </trkpt>
      <trkpt lat="47.542875" lon="7.948001">
        <ele>302.249721</ele>
        <time>2021-11-20T08:28:22.350Z</time>
      </trkpt>
      <trkpt lat="47.542838" lon="7.948225">
        <ele>302.008235</ele>
        <time>2021-11-20T08:28:24.135Z</time>
      </trkpt>
      <trkpt lat="47.542826" lon="7.948298">
        <ele>301.929558</ele>
        <time>2021-11-20T08:28:24.756Z</time>
      </trkpt>
      <trkpt lat="47.542719" lon="7.949175">
        <ele>301.376546</ele>
        <time>2021-11-20T08:28:31.981Z</time>
      </trkpt>
      <trkpt lat="47.542609" lon="7.949914">
        <ele>301.140108</ele>
        <time>2021-11-20T08:28:38.755Z</time>
      </trkpt>
      <trkpt lat="47.542560" lon="7.950202">
        <ele>301.047312</ele>
        <time>2021-11-20T08:28:41.624Z</time>
      </trkpt>
      <trkpt lat="47.542554" lon="7.950231">
        <ele>301.037835</ele>
        <time>2021-11-20T08:28:41.899Z</time>
      </trkpt>
      <trkpt lat="47.542546" lon="7.950274">
        <ele>301.023900</ele>
        <time>2021-11-20T08:28:42.303Z</time>
      </trkpt>
      <trkpt lat="47.542444" lon="7.950687">
        <ele>300.886498</ele>
        <time>2021-11-20T08:28:46.767Z</time>
      </trkpt>
      <trkpt lat="47.542357" lon="7.951037">
        <ele>300.769966</ele>
        <time>2021-11-20T08:28:50.411Z</time>
      </trkpt>
      <trkpt lat="47.542192" lon="7.951713">
        <ele>300.618404</ele>
        <time>2021-11-20T08:28:57.359Z</time>
      </trkpt>
      <trkpt lat="47.542169" lon="7.951815">
        <ele>300.600104</ele>
        <time>2021-11-20T08:28:58.286Z</time>
      </trkpt>
      <trkpt lat="47.541991" lon="7.952667">
        <ele>300.448339</ele>
        <time>2021-11-20T08:29:06.567Z</time>
      </trkpt>
      <trkpt lat="47.541791" lon="7.953601">
        <ele>300.281600</ele>
        <time>2021-11-20T08:29:15.618Z</time>
      </trkpt>
      <trkpt lat="47.541773" lon="7.953695">
        <ele>300.264973</ele>
        <time>2021-11-20T08:29:16.555Z</time>
      </trkpt>
      <trkpt lat="47.541735" lon="7.953892">
        <ele>300.323582</ele>
        <time>2021-11-20T08:29:18.437Z</time>
      </trkpt>
      <trkpt lat="47.541660" lon="7.954250">
        <ele>300.527863</ele>
        <time>2021-11-20T08:29:22.196Z</time>
      </trkpt>
      <trkpt lat="47.541530" lon="7.954936">
        <ele>300.916170</ele>
        <time>2021-11-20T08:29:29.417Z</time>
      </trkpt>
      <trkpt lat="47.541482" lon="7.955294">
        <ele>301.115084</ele>
        <time>2021-11-20T08:29:33.466Z</time>
      </trkpt>
      <trkpt lat="47.541465" lon="7.955512">
        <ele>301.234679</ele>
        <time>2021-11-20T08:29:35.801Z</time>
      </trkpt>
      <trkpt lat="47.541442" lon="7.955866">
        <ele>301.428494</ele>
        <time>2021-11-20T08:29:41.094Z</time>
      </trkpt>
      <trkpt lat="47.541410" lon="7.956569">
        <ele>302.130457</ele>
        <time>2021-11-20T08:29:52.394Z</time>
      </trkpt>
      <trkpt lat="47.541404" lon="7.956677">
        <ele>302.363273</ele>
        <time>2021-11-20T08:29:54.499Z</time>
      </trkpt>
      <trkpt lat="47.541280" lon="7.957569">
        <ele>304.319892</ele>
        <time>2021-11-20T08:30:10.147Z</time>
      </trkpt>
      <trkpt lat="47.541237" lon="7.957756">
        <ele>304.744319</ele>
        <time>2021-11-20T08:30:14.495Z</time>
      </trkpt>
      <trkpt lat="47.541141" lon="7.958127">
        <ele>305.597943</ele>
        <time>2021-11-20T08:30:22.046Z</time>
      </trkpt>
      <trkpt lat="47.540957" lon="7.959132">
        <ele>307.804624</ele>
        <time>2021-11-20T08:30:43.489Z</time>
      </trkpt>
      <trkpt lat="47.540954" lon="7.959705">
        <ele>308.943284</ele>
        <time>2021-11-20T08:30:54.916Z</time>
      </trkpt>
      <trkpt lat="47.540979" lon="7.959950">
        <ele>309.435661</ele>
        <time>2021-11-20T08:31:00.366Z</time>
      </trkpt>
      <trkpt lat="47.541002" lon="7.960092">
        <ele>309.725842</ele>
        <time>2021-11-20T08:31:02.960Z</time>
      </trkpt>
      <trkpt lat="47.541060" lon="7.960321">
        <ele>310.211868</ele>
        <time>2021-11-20T08:31:07.682Z</time>
      </trkpt>
      <trkpt lat="47.541153" lon="7.960814">
        <ele>311.229051</ele>
        <time>2021-11-20T08:31:16.251Z</time>
      </trkpt>
      <trkpt lat="47.541242" lon="7.961294">
        <ele>312.218194</ele>
        <time>2021-11-20T08:31:24.209Z</time>
      </trkpt>
      <trkpt lat="47.541316" lon="7.962197">
        <ele>313.195141</ele>
        <time>2021-11-20T08:31:37.325Z</time>
      </trkpt>
      <trkpt lat="47.541314" lon="7.962377">
        <ele>313.324738</ele>
        <time>2021-11-20T08:31:39.966Z</time>
      </trkpt>
      <trkpt lat="47.541308" lon="7.962513">
        <ele>313.422852</ele>
        <time>2021-11-20T08:31:41.317Z</time>
      </trkpt>
      <trkpt lat="47.541293" lon="7.962730">
        <ele>313.579884</ele>
        <time>2021-11-20T08:31:43.678Z</time>
      </trkpt>
      <trkpt lat="47.541258" lon="7.962975">
        <ele>313.760163</ele>
        <time>2021-11-20T08:31:47.070Z</time>
      </trkpt>
      <trkpt lat="47.541217" lon="7.963187">
        <ele>313.918919</ele>
        <time>2021-11-20T08:31:49.127Z</time>
      </trkpt>
      <trkpt lat="47.541123" lon="7.963520">
        <ele>314.178758</ele>
        <time>2021-11-20T08:31:53.909Z</time>
      </trkpt>
      <trkpt lat="47.541019" lon="7.963815">
        <ele>314.418341</ele>
        <time>2021-11-20T08:31:58.166Z</time>
      </trkpt>
      <trkpt lat="47.541129" lon="7.964008">
        <ele>314.600178</ele>
        <time>2021-11-20T08:32:00.899Z</time>
      </trkpt>
      <trkpt lat="47.541169" lon="7.964123">
        <ele>314.681707</ele>
        <time>2021-11-20T08:32:02.064Z</time>
      </trkpt>
      <trkpt lat="47.541095" lon="7.964204">
        <ele>314.757905</ele>
        <time>2021-11-20T08:32:04.464Z</time>
      </trkpt>
      <trkpt lat="47.540896" lon="7.964711">
        <ele>315.085769</ele>
        <time>2021-11-20T08:32:11.491Z</time>
      </trkpt>
      <trkpt lat="47.540214" lon="7.967628">
        <ele>317.199898</ele>
        <time>2021-11-20T08:32:49.339Z</time>
      </trkpt>
      <trkpt lat="47.539783" lon="7.969587">
        <ele>319.405349</ele>
        <time>2021-11-20T08:33:19.038Z</time>
      </trkpt>
      <trkpt lat="47.539262" lon="7.971768">
        <ele>322.943941</ele>
        <time>2021-11-20T08:33:57.988Z</time>
      </trkpt>
      <trkpt lat="47.538706" lon="7.974459">
        <ele>327.283729</ele>
        <time>2021-11-20T08:34:43.785Z</time>
      </trkpt>
      <trkpt lat="47.538242" lon="7.976347">
        <ele>330.028786</ele>
        <time>2021-11-20T08:35:14.603Z</time>
      </trkpt>
      <trkpt lat="47.538107" lon="7.977240">
        <ele>330.860570</ele>
        <time>2021-11-20T08:35:28.297Z</time>
      </trkpt>
      <trkpt lat="47.537955" lon="7.978125">
        <ele>331.540084</ele>
        <time>2021-11-20T08:35:41.840Z</time>
      </trkpt>
      <trkpt lat="47.537583" lon="7.979760">
        <ele>331.529210</ele>
        <time>2021-11-20T08:36:00.138Z</time>
      </trkpt>
      <trkpt lat="47.537461" lon="7.980118">
        <ele>331.025054</ele>
        <time>2021-11-20T08:36:03.147Z</time>
      </trkpt>
      <trkpt lat="47.537107" lon="7.981082">
        <ele>329.645451</ele>
        <time>2021-11-20T08:36:10.957Z</time>
      </trkpt>
      <trkpt lat="47.536959" lon="7.981602">
        <ele>328.913110</ele>
        <time>2021-11-20T08:36:14.797Z</time>
      </trkpt>
      <trkpt lat="47.536896" lon="7.981697">
        <ele>328.678645</ele>
        <time>2021-11-20T08:36:15.724Z</time>
      </trkpt>
      <trkpt lat="47.536842" lon="7.981878">
        <ele>328.330228</ele>
        <time>2021-11-20T08:36:17.058Z</time>
      </trkpt>
      <trkpt lat="47.536775" lon="7.982096">
        <ele>327.908493</ele>
        <time>2021-11-20T08:36:18.663Z</time>
      </trkpt>
      <trkpt lat="47.536764" lon="7.982225">
        <ele>327.679558</ele>
        <time>2021-11-20T08:36:19.557Z</time>
      </trkpt>
      <trkpt lat="47.536530" lon="7.982859">
        <ele>326.407344</ele>
        <time>2021-11-20T08:36:24.479Z</time>
      </trkpt>
      <trkpt lat="47.536410" lon="7.983244">
        <ele>325.660713</ele>
        <time>2021-11-20T08:36:27.463Z</time>
      </trkpt>
      <trkpt lat="47.536199" lon="7.983737">
        <ele>324.632949</ele>
        <time>2021-11-20T08:36:31.751Z</time>
      </trkpt>
      <trkpt lat="47.536026" lon="7.984206">
        <ele>324.258671</ele>
        <time>2021-11-20T08:36:36.050Z</time>
      </trkpt>
      <trkpt lat="47.535614" lon="7.985212">
        <ele>324.110612</ele>
        <time>2021-11-20T08:36:46.989Z</time>
      </trkpt>
      <trkpt lat="47.535270" lon="7.985985">
        <ele>323.994112</ele>
        <time>2021-11-20T08:36:57.211Z</time>
      </trkpt>
      <trkpt lat="47.534974" lon="7.986602">
        <ele>324.642756</ele>
        <time>2021-11-20T08:37:06.286Z</time>
      </trkpt>
      <trkpt lat="47.534590" lon="7.987330">
        <ele>325.794810</ele>
        <time>2021-11-20T08:37:19.979Z</time>
      </trkpt>
      <trkpt lat="47.534466" lon="7.987626">
        <ele>326.229215</ele>
        <time>2021-11-20T08:37:25.853Z</time>
      </trkpt>
      <trkpt lat="47.534363" lon="7.987895">
        <ele>326.614860</ele>
        <time>2021-11-20T08:37:31.315Z</time>
      </trkpt>
      <trkpt lat="47.534280" lon="7.987862">
        <ele>326.773593</ele>
        <time>2021-11-20T08:37:33.555Z</time>
      </trkpt>
      <trkpt lat="47.534072" lon="7.987749">
        <ele>327.182808</ele>
        <time>2021-11-20T08:37:39.388Z</time>
      </trkpt>
      <trkpt lat="47.533728" lon="7.987557">
        <ele>327.914779</ele>
        <time>2021-11-20T08:37:48.576Z</time>
      </trkpt>
      <trkpt lat="47.533509" lon="7.987411">
        <ele>328.399408</ele>
        <time>2021-11-20T08:37:53.491Z</time>
      </trkpt>
      <trkpt lat="47.533195" lon="7.987215">
        <ele>329.087008</ele>
        <time>2021-11-20T08:38:01.899Z</time>
      </trkpt>
      <trkpt lat="47.533142" lon="7.987165">
        <ele>329.213810</ele>
        <time>2021-11-20T08:38:02.831Z</time>
      </trkpt>
      <trkpt lat="47.533114" lon="7.987128">
        <ele>329.289531</ele>
        <time>2021-11-20T08:38:04.131Z</time>
      </trkpt>
      <trkpt lat="47.532879" lon="7.987447">
        <ele>329.932780</ele>
        <time>2021-11-20T08:38:11.466Z</time>
      </trkpt>
      <trkpt lat="47.532716" lon="7.987667">
        <ele>330.377788</ele>
        <time>2021-11-20T08:38:17.327Z</time>
      </trkpt>
      <trkpt lat="47.532621" lon="7.987826">
        <ele>330.667060</ele>
        <time>2021-11-20T08:38:19.469Z</time>
      </trkpt>
      <trkpt lat="47.532544" lon="7.987973">
        <ele>330.918606</ele>
        <time>2021-11-20T08:38:23.724Z</time>
      </trkpt>
      <trkpt lat="47.532464" lon="7.988171">
        <ele>330.888305</ele>
        <time>2021-11-20T08:38:25.825Z</time>
      </trkpt>
      <trkpt lat="47.532401" lon="7.988331">
        <ele>330.863982</ele>
        <time>2021-11-20T08:38:27.858Z</time>
      </trkpt>
      <trkpt lat="47.532373" lon="7.988399">
        <ele>330.853522</ele>
        <time>2021-11-20T08:38:30.191Z</time>
      </trkpt>
      <trkpt lat="47.532299" lon="7.988577">
        <ele>330.826072</ele>
        <time>2021-11-20T08:38:31.832Z</time>
      </trkpt>
      <trkpt lat="47.532014" lon="7.989225">
        <ele>330.724514</ele>
        <time>2021-11-20T08:38:38.377Z</time>
      </trkpt>
      <trkpt lat="47.531897" lon="7.989450">
        <ele>330.687219</ele>
        <time>2021-11-20T08:38:41.287Z</time>
      </trkpt>
      <trkpt lat="47.531823" lon="7.989607">
        <ele>330.662075</ele>
        <time>2021-11-20T08:38:42.649Z</time>
      </trkpt>
      <trkpt lat="47.531667" lon="7.989873">
        <ele>330.615806</ele>
        <time>2021-11-20T08:38:45.799Z</time>
      </trkpt>
      <trkpt lat="47.531363" lon="7.990436">
        <ele>330.468947</ele>
        <time>2021-11-20T08:38:51.721Z</time>
      </trkpt>
      <trkpt lat="47.530979" lon="7.991211">
        <ele>330.204899</ele>
        <time>2021-11-20T08:39:00.170Z</time>
      </trkpt>
      <trkpt lat="47.530933" lon="7.991310">
        <ele>330.171889</ele>
        <time>2021-11-20T08:39:01.155Z</time>
      </trkpt>
      <trkpt lat="47.530776" lon="7.991586">
        <ele>330.072757</ele>
        <time>2021-11-20T08:39:04.671Z</time>
      </trkpt>
      <trkpt lat="47.530495" lon="7.992103">
        <ele>329.890451</ele>
        <time>2021-11-20T08:39:10.600Z</time>
      </trkpt>
      <trkpt lat="47.530141" lon="7.992757">
        <ele>330.888688</ele>
        <time>2021-11-20T08:39:19.275Z</time>
      </trkpt>
      <trkpt lat="47.529350" lon="7.994228">
        <ele>333.957050</ele>
        <time>2021-11-20T08:39:55.179Z</time>
      </trkpt>
      <trkpt lat="47.529261" lon="7.994394">
        <ele>334.280845</ele>
        <time>2021-11-20T08:39:59.329Z</time>
      </trkpt>
      <trkpt lat="47.529180" lon="7.994531">
        <ele>334.522938</ele>
        <time>2021-11-20T08:40:02.791Z</time>
      </trkpt>
      <trkpt lat="47.528851" lon="7.994185">
        <ele>335.317432</ele>
        <time>2021-11-20T08:40:16.316Z</time>
      </trkpt>
      <trkpt lat="47.528522" lon="7.994788">
        <ele>336.348114</ele>
        <time>2021-11-20T08:40:32.805Z</time>
      </trkpt>
      <trkpt lat="47.527390" lon="7.996879">
        <ele>337.725786</ele>
        <time>2021-11-20T08:41:10.826Z</time>
      </trkpt>
      <trkpt lat="47.527239" lon="7.997118">
        <ele>337.725903</ele>
        <time>2021-11-20T08:41:14.506Z</time>
      </trkpt>
      <trkpt lat="47.527061" lon="7.997361">
        <ele>337.726032</ele>
        <time>2021-11-20T08:41:19.239Z</time>
      </trkpt>
      <trkpt lat="47.527005" lon="7.997436">
        <ele>337.726072</ele>
        <time>2021-11-20T08:41:20.606Z</time>
      </trkpt>
      <trkpt lat="47.526659" lon="7.997896">
        <ele>337.964556</ele>
        <time>2021-11-20T08:41:30.010Z</time>
      </trkpt>
      <trkpt lat="47.526462" lon="7.998465">
        <ele>338.291136</ele>
        <time>2021-11-20T08:41:39.612Z</time>
      </trkpt>
      <trkpt lat="47.526232" lon="7.998874">
        <ele>338.562980</ele>
        <time>2021-11-20T08:41:47.778Z</time>
      </trkpt>
      <trkpt lat="47.522812" lon="8.002772">
        <ele>344.798550</ele>
        <time>2021-11-20T08:43:41.661Z</time>
      </trkpt>
      <trkpt lat="47.522593" lon="8.003040">
        <ele>345.182301</ele>
        <time>2021-11-20T08:43:49.923Z</time>
      </trkpt>
      <trkpt lat="47.522286" lon="8.003405">
        <ele>345.714095</ele>
        <time>2021-11-20T08:44:01.223Z</time>
      </trkpt>
      <trkpt lat="47.521941" lon="8.003805">
        <ele>346.305946</ele>
        <time>2021-11-20T08:44:12.517Z</time>
      </trkpt>
      <trkpt lat="47.521691" lon="8.004044">
        <ele>346.707891</ele>
        <time>2021-11-20T08:44:20.233Z</time>
      </trkpt>
      <trkpt lat="47.521488" lon="8.004236">
        <ele>347.033250</ele>
        <time>2021-11-20T08:44:25.579Z</time>
      </trkpt>
      <trkpt lat="47.521214" lon="8.004538">
        <ele>346.985408</ele>
        <time>2021-11-20T08:44:33.425Z</time>
      </trkpt>
      <trkpt lat="47.521327" lon="8.004951">
        <ele>346.706171</ele>
        <time>2021-11-20T08:44:39.371Z</time>
      </trkpt>
      <trkpt lat="47.521277" lon="8.005104">
        <ele>346.599658</ele>
        <time>2021-11-20T08:44:41.504Z</time>
      </trkpt>
      <trkpt lat="47.520956" lon="8.005345">
        <ele>346.265697</ele>
        <time>2021-11-20T08:44:47.766Z</time>
      </trkpt>
      <trkpt lat="47.518926" lon="8.007732">
        <ele>342.207816</ele>
        <time>2021-11-20T08:45:28.742Z</time>
      </trkpt>
      <trkpt lat="47.518239" lon="8.008485">
        <ele>341.321063</ele>
        <time>2021-11-20T08:45:43.468Z</time>
      </trkpt>
      <trkpt lat="47.517851" lon="8.008946">
        <ele>340.807818</ele>
        <time>2021-11-20T08:45:52.235Z</time>
      </trkpt>
      <trkpt lat="47.517791" lon="8.009018">
        <ele>340.728139</ele>
        <time>2021-11-20T08:45:53.491Z</time>
      </trkpt>
      <trkpt lat="47.517615" lon="8.009232">
        <ele>340.493180</ele>
        <time>2021-11-20T08:45:57.601Z</time>
      </trkpt>
      <trkpt lat="47.517564" lon="8.009350">
        <ele>340.395565</ele>
        <time>2021-11-20T08:45:59.281Z</time>
      </trkpt>
      <trkpt lat="47.517508" lon="8.009440">
        <ele>340.324311</ele>
        <time>2021-11-20T08:46:00.833Z</time>
      </trkpt>
      <trkpt lat="47.517573" lon="8.009513">
        <ele>340.278510</ele>
        <time>2021-11-20T08:46:02.143Z</time>
      </trkpt>
      <trkpt lat="47.517931" lon="8.010095">
        <ele>339.980030</ele>
        <time>2021-11-20T08:46:12.375Z</time>
      </trkpt>
      <trkpt lat="47.517926" lon="8.010148">
        <ele>339.959739</ele>
        <time>2021-11-20T08:46:12.926Z</time>
      </trkpt>
      <trkpt lat="47.517876" lon="8.010233">
        <ele>339.917000</ele>
        <time>2021-11-20T08:46:14.541Z</time>
      </trkpt>
      <trkpt lat="47.517619" lon="8.010643">
        <ele>339.704907</ele>
        <time>2021-11-20T08:46:21.509Z</time>
      </trkpt>
      <trkpt lat="47.517648" lon="8.010855">
        <ele>339.622893</ele>
        <time>2021-11-20T08:46:24.160Z</time>
      </trkpt>
      <trkpt lat="47.517797" lon="8.011090">
        <ele>339.500678</ele>
        <time>2021-11-20T08:46:28.068Z</time>
      </trkpt>
      <trkpt lat="47.517842" lon="8.011140">
        <ele>339.469092</ele>
        <time>2021-11-20T08:46:28.982Z</time>
      </trkpt>
      <trkpt lat="47.517559" lon="8.011519">
        <ele>339.354948</ele>
        <time>2021-11-20T08:46:34.105Z</time>
      </trkpt>
      <trkpt lat="47.517220" lon="8.011958">
        <ele>339.433356</ele>
        <time>2021-11-20T08:46:40.393Z</time>
      </trkpt>
      <trkpt lat="47.516968" lon="8.012240">
        <ele>339.488350</ele>
        <time>2021-11-20T08:46:45.193Z</time>
      </trkpt>
      <trkpt lat="47.515686" lon="8.013458">
        <ele>340.277891</ele>
        <time>2021-11-20T08:47:11.385Z</time>
      </trkpt>
      <trkpt lat="47.515654" lon="8.013483">
        <ele>340.314453</ele>
        <time>2021-11-20T08:47:12.168Z</time>
      </trkpt>
      <trkpt lat="47.515613" lon="8.013424">
        <ele>340.372229</ele>
        <time>2021-11-20T08:47:13.313Z</time>
      </trkpt>
      <trkpt lat="47.515541" lon="8.013407">
        <ele>340.445906</ele>
        <time>2021-11-20T08:47:14.674Z</time>
      </trkpt>
      <trkpt lat="47.515502" lon="8.013432">
        <ele>340.488852</ele>
        <time>2021-11-20T08:47:15.588Z</time>
      </trkpt>
      <trkpt lat="47.515475" lon="8.013469">
        <ele>340.526029</ele>
        <time>2021-11-20T08:47:16.262Z</time>
      </trkpt>
      <trkpt lat="47.515457" lon="8.013608">
        <ele>340.622624</ele>
        <time>2021-11-20T08:47:17.991Z</time>
      </trkpt>
      <trkpt lat="47.515468" lon="8.013643">
        <ele>340.648972</ele>
        <time>2021-11-20T08:47:18.449Z</time>
      </trkpt>
      <trkpt lat="47.515263" lon="8.013836">
        <ele>340.894462</ele>
        <time>2021-11-20T08:47:23.359Z</time>
      </trkpt>
      <trkpt lat="47.515054" lon="8.014017">
        <ele>341.139138</ele>
        <time>2021-11-20T08:47:28.100Z</time>
      </trkpt>
      <trkpt lat="47.514746" lon="8.014292">
        <ele>341.516324</ele>
        <time>2021-11-20T08:47:35.303Z</time>
      </trkpt>
      <trkpt lat="47.514628" lon="8.014407">
        <ele>341.707349</ele>
        <time>2021-11-20T08:47:38.187Z</time>
      </trkpt>
      <trkpt lat="47.514464" lon="8.014550">
        <ele>341.964711</ele>
        <time>2021-11-20T08:47:42.082Z</time>
      </trkpt>
      <trkpt lat="47.514162" lon="8.014813">
        <ele>342.438482</ele>
        <time>2021-11-20T08:47:49.103Z</time>
      </trkpt>
      <trkpt lat="47.514036" lon="8.014936">
        <ele>342.642560</ele>
        <time>2021-11-20T08:47:52.389Z</time>
      </trkpt>
      <trkpt lat="47.513919" lon="8.015052">
        <ele>342.832965</ele>
        <time>2021-11-20T08:47:55.275Z</time>
      </trkpt>
      <trkpt lat="47.513872" lon="8.015092">
        <ele>342.906270</ele>
        <time>2021-11-20T08:47:56.339Z</time>
      </trkpt>
      <trkpt lat="47.513615" lon="8.015346">
        <ele>343.324102</ele>
        <time>2021-11-20T08:48:02.961Z</time>
      </trkpt>
      <trkpt lat="47.512943" lon="8.015998">
        <ele>344.090475</ele>
        <time>2021-11-20T08:48:18.764Z</time>
      </trkpt>
      <trkpt lat="47.512748" lon="8.016153">
        <ele>344.204268</ele>
        <time>2021-11-20T08:48:22.618Z</time>
      </trkpt>
      <trkpt lat="47.512572" lon="8.016270">
        <ele>344.303461</ele>
        <time>2021-11-20T08:48:25.792Z</time>
      </trkpt>
      <trkpt lat="47.512292" lon="8.016407">
        <ele>344.455079</ele>
        <time>2021-11-20T08:48:30.759Z</time>
      </trkpt>
      <trkpt lat="47.511937" lon="8.016578">
        <ele>344.647017</ele>
        <time>2021-11-20T08:48:36.709Z</time>
      </trkpt>
      <trkpt lat="47.511835" lon="8.016624">
        <ele>344.701839</ele>
        <time>2021-11-20T08:48:38.203Z</time>
      </trkpt>
      <trkpt lat="47.511079" lon="8.016999">
        <ele>344.575040</ele>
        <time>2021-11-20T08:48:49.794Z</time>
      </trkpt>
      <trkpt lat="47.510624" lon="8.017217">
        <ele>344.370315</ele>
        <time>2021-11-20T08:48:56.161Z</time>
      </trkpt>
      <trkpt lat="47.510117" lon="8.017458">
        <ele>344.142364</ele>
        <time>2021-11-20T08:49:02.904Z</time>
      </trkpt>
      <trkpt lat="47.509872" lon="8.017541">
        <ele>344.029313</ele>
        <time>2021-11-20T08:49:06.067Z</time>
      </trkpt>
      <trkpt lat="47.509728" lon="8.017576">
        <ele>343.942742</ele>
        <time>2021-11-20T08:49:08.023Z</time>
      </trkpt>
      <trkpt lat="47.509596" lon="8.017609">
        <ele>343.863325</ele>
        <time>2021-11-20T08:49:09.679Z</time>
      </trkpt>
      <trkpt lat="47.509437" lon="8.017668">
        <ele>343.766081</ele>
        <time>2021-11-20T08:49:11.803Z</time>
      </trkpt>
      <trkpt lat="47.509253" lon="8.017765">
        <ele>343.650210</ele>
        <time>2021-11-20T08:49:14.315Z</time>
      </trkpt>
      <trkpt lat="47.509105" lon="8.017861">
        <ele>343.554352</ele>
        <time>2021-11-20T08:49:16.418Z</time>
      </trkpt>
      <trkpt lat="47.508988" lon="8.017959">
        <ele>343.474603</ele>
        <time>2021-11-20T08:49:18.193Z</time>
      </trkpt>
      <trkpt lat="47.508896" lon="8.018035">
        <ele>343.412102</ele>
        <time>2021-11-20T08:49:19.500Z</time>
      </trkpt>
      <trkpt lat="47.508805" lon="8.018141">
        <ele>343.343410</ele>
        <time>2021-11-20T08:49:21.136Z</time>
      </trkpt>
      <trkpt lat="47.508699" lon="8.018304">
        <ele>343.252741</ele>
        <time>2021-11-20T08:49:23.253Z</time>
      </trkpt>
      <trkpt lat="47.508636" lon="8.018423">
        <ele>343.192154</ele>
        <time>2021-11-20T08:49:24.601Z</time>
      </trkpt>
      <trkpt lat="47.508617" lon="8.018463">
        <ele>343.172558</ele>
        <time>2021-11-20T08:49:25.054Z</time>
      </trkpt>
      <trkpt lat="47.508597" lon="8.018443">
        <ele>343.158240</ele>
        <time>2021-11-20T08:49:25.375Z</time>
      </trkpt>
      <trkpt lat="47.508507" lon="8.018455">
        <ele>343.104632</ele>
        <time>2021-11-20T08:49:26.654Z</time>
      </trkpt>
      <trkpt lat="47.508490" lon="8.018479">
        <ele>343.090696</ele>
        <time>2021-11-20T08:49:27.018Z</time>
      </trkpt>
      <trkpt lat="47.508475" lon="8.018519">
        <ele>343.072363</ele>
        <time>2021-11-20T08:49:27.415Z</time>
      </trkpt>
      <trkpt lat="47.508493" lon="8.018648">
        <ele>343.019578</ele>
        <time>2021-11-20T08:49:28.554Z</time>
      </trkpt>
      <trkpt lat="47.508517" lon="8.018677">
        <ele>343.001199</ele>
        <time>2021-11-20T08:49:28.915Z</time>
      </trkpt>
      <trkpt lat="47.508505" lon="8.018716">
        <ele>342.984026</ele>
        <time>2021-11-20T08:49:29.281Z</time>
      </trkpt>
      <trkpt lat="47.508436" lon="8.018909">
        <ele>342.987358</ele>
        <time>2021-11-20T08:49:31.286Z</time>
      </trkpt>
      <trkpt lat="47.508403" lon="8.018982">
        <ele>342.989615</ele>
        <time>2021-11-20T08:49:32.089Z</time>
      </trkpt>
      <trkpt lat="47.508273" lon="8.019268">
        <ele>342.998472</ele>
        <time>2021-11-20T08:49:34.991Z</time>
      </trkpt>
      <trkpt lat="47.508117" lon="8.019584">
        <ele>343.008529</ele>
        <time>2021-11-20T08:49:38.643Z</time>
      </trkpt>
      <trkpt lat="47.508075" lon="8.019669">
        <ele>343.011235</ele>
        <time>2021-11-20T08:49:39.604Z</time>
      </trkpt>
      <trkpt lat="47.508029" lon="8.019761">
        <ele>343.014176</ele>
        <time>2021-11-20T08:49:40.669Z</time>
      </trkpt>
      <trkpt lat="47.507951" lon="8.019911">
        <ele>343.019040</ele>
        <time>2021-11-20T08:49:42.396Z</time>
      </trkpt>
      <trkpt lat="47.507863" lon="8.020075">
        <ele>343.024422</ele>
        <time>2021-11-20T08:49:44.668Z</time>
      </trkpt>
      <trkpt lat="47.507895" lon="8.020117">
        <ele>343.026049</ele>
        <time>2021-11-20T08:49:45.241Z</time>
      </trkpt>
      <trkpt lat="47.507995" lon="8.020296">
        <ele>343.032017</ele>
        <time>2021-11-20T08:49:47.633Z</time>
      </trkpt>
      <trkpt lat="47.508000" lon="8.020315">
        <ele>343.032541</ele>
        <time>2021-11-20T08:49:47.783Z</time>
      </trkpt>
      <trkpt lat="47.508039" lon="8.020467">
        <ele>343.036719</ele>
        <time>2021-11-20T08:49:49.823Z</time>
      </trkpt>
      <trkpt lat="47.508194" lon="8.021281">
        <ele>343.341875</ele>
        <time>2021-11-20T08:50:00.217Z</time>
      </trkpt>
      <trkpt lat="47.508213" lon="8.021364">
        <ele>343.422465</ele>
        <time>2021-11-20T08:50:01.152Z</time>
      </trkpt>
      <trkpt lat="47.508185" lon="8.021387">
        <ele>343.466058</ele>
        <time>2021-11-20T08:50:02.120Z</time>
      </trkpt>
      <trkpt lat="47.507703" lon="8.022138">
        <ele>344.418695</ele>
        <time>2021-11-20T08:50:15.534Z</time>
      </trkpt>
      <trkpt lat="47.507378" lon="8.022417">
        <ele>344.930148</ele>
        <time>2021-11-20T08:50:23.716Z</time>
      </trkpt>
      <trkpt lat="47.507363" lon="8.022432">
        <ele>344.954791</ele>
        <time>2021-11-20T08:50:24.249Z</time>
      </trkpt>
      <trkpt lat="47.507331" lon="8.022469">
        <ele>345.010068</ele>
        <time>2021-11-20T08:50:25.336Z</time>
      </trkpt>
      <trkpt lat="47.507266" lon="8.022548">
        <ele>345.124558</ele>
        <time>2021-11-20T08:50:27.695Z</time>
      </trkpt>
      <trkpt lat="47.507083" lon="8.022900">
        <ele>345.540583</ele>
        <time>2021-11-20T08:50:36.142Z</time>
      </trkpt>
      <trkpt lat="47.506897" lon="8.023415">
        <ele>346.196580</ele>
        <time>2021-11-20T08:50:47.010Z</time>
      </trkpt>
      <trkpt lat="47.506747" lon="8.023829">
        <ele>346.724300</ele>
        <time>2021-11-20T08:50:55.526Z</time>
      </trkpt>
      <trkpt lat="47.506675" lon="8.024087">
        <ele>347.037872</ele>
        <time>2021-11-20T08:51:00.913Z</time>
      </trkpt>
      <trkpt lat="47.506661" lon="8.024170">
        <ele>347.133969</ele>
        <time>2021-11-20T08:51:02.487Z</time>
      </trkpt>
      <trkpt lat="47.506654" lon="8.024209">
        <ele>347.179298</ele>
        <time>2021-11-20T08:51:03.187Z</time>
      </trkpt>
      <trkpt lat="47.506634" lon="8.024331">
        <ele>347.320320</ele>
        <time>2021-11-20T08:51:05.346Z</time>
      </trkpt>
      <trkpt lat="47.506571" lon="8.024790">
        <ele>347.846455</ele>
        <time>2021-11-20T08:51:13.745Z</time>
      </trkpt>
      <trkpt lat="47.506550" lon="8.024942">
        <ele>348.020733</ele>
        <time>2021-11-20T08:51:16.351Z</time>
      </trkpt>
      <trkpt lat="47.506494" lon="8.025370">
        <ele>348.499684</ele>
        <time>2021-11-20T08:51:24.370Z</time>
      </trkpt>
      <trkpt lat="47.506464" lon="8.025540">
        <ele>348.593571</ele>
        <time>2021-11-20T08:51:27.395Z</time>
      </trkpt>
      <trkpt lat="47.506438" lon="8.025630">
        <ele>348.645876</ele>
        <time>2021-11-20T08:51:29.155Z</time>
      </trkpt>
      <trkpt lat="47.506408" lon="8.025723">
        <ele>348.700945</ele>
        <time>2021-11-20T08:51:31.003Z</time>
      </trkpt>
      <trkpt lat="47.506324" lon="8.025948">
        <ele>348.838313</ele>
        <time>2021-11-20T08:51:35.291Z</time>
      </trkpt>
      <trkpt lat="47.506281" lon="8.026061">
        <ele>348.907616</ele>
        <time>2021-11-20T08:51:37.523Z</time>
      </trkpt>
      <trkpt lat="47.506132" lon="8.026567">
        <ele>349.202569</ele>
        <time>2021-11-20T08:51:46.570Z</time>
      </trkpt>
      <trkpt lat="47.505984" lon="8.027167">
        <ele>349.543886</ele>
        <time>2021-11-20T08:51:56.232Z</time>
      </trkpt>
      <trkpt lat="47.505967" lon="8.027229">
        <ele>349.579641</ele>
        <time>2021-11-20T08:51:57.102Z</time>
      </trkpt>
      <trkpt lat="47.505954" lon="8.027254">
        <ele>349.596499</ele>
        <time>2021-11-20T08:51:57.536Z</time>
      </trkpt>
      <trkpt lat="47.505932" lon="8.027248">
        <ele>349.614195</ele>
        <time>2021-11-20T08:51:58.034Z</time>
      </trkpt>
      <trkpt lat="47.505896" lon="8.027270">
        <ele>349.645003</ele>
        <time>2021-11-20T08:51:58.794Z</time>
      </trkpt>
      <trkpt lat="47.505882" lon="8.027305">
        <ele>349.666738</ele>
        <time>2021-11-20T08:51:59.434Z</time>
      </trkpt>
      <trkpt lat="47.505880" lon="8.027324">
        <ele>349.677013</ele>
        <time>2021-11-20T08:51:59.683Z</time>
      </trkpt>
      <trkpt lat="47.505884" lon="8.027352">
        <ele>349.692306</ele>
        <time>2021-11-20T08:52:00.085Z</time>
      </trkpt>
      <trkpt lat="47.505896" lon="8.027379">
        <ele>349.709576</ele>
        <time>2021-11-20T08:52:00.595Z</time>
      </trkpt>
      <trkpt lat="47.505909" lon="8.027394">
        <ele>349.722614</ele>
        <time>2021-11-20T08:52:00.957Z</time>
      </trkpt>
      <trkpt lat="47.505930" lon="8.027402">
        <ele>349.739767</ele>
        <time>2021-11-20T08:52:01.451Z</time>
      </trkpt>
      <trkpt lat="47.505918" lon="8.027442">
        <ele>349.763154</ele>
        <time>2021-11-20T08:52:02.181Z</time>
      </trkpt>
      <trkpt lat="47.505899" lon="8.027524">
        <ele>349.809477</ele>
        <time>2021-11-20T08:52:03.472Z</time>
      </trkpt>
      <trkpt lat="47.505841" lon="8.027752">
        <ele>349.918464</ele>
        <time>2021-11-20T08:52:06.732Z</time>
      </trkpt>
      <trkpt lat="47.505760" lon="8.028072">
        <ele>349.957504</ele>
        <time>2021-11-20T08:52:11.701Z</time>
      </trkpt>
      <trkpt lat="47.505717" lon="8.028403">
        <ele>349.996010</ele>
        <time>2021-11-20T08:52:16.051Z</time>
      </trkpt>
      <trkpt lat="47.505707" lon="8.028569">
        <ele>350.015050</ele>
        <time>2021-11-20T08:52:18.359Z</time>
      </trkpt>
      <trkpt lat="47.505673" lon="8.028775">
        <ele>350.039276</ele>
        <time>2021-11-20T08:52:21.138Z</time>
      </trkpt>
      <trkpt lat="47.505568" lon="8.029009">
        <ele>350.071369</ele>
        <time>2021-11-20T08:52:24.934Z</time>
      </trkpt>
      <trkpt lat="47.505477" lon="8.029211">
        <ele>350.099106</ele>
        <time>2021-11-20T08:52:28.111Z</time>
      </trkpt>
      <trkpt lat="47.504830" lon="8.030312">
        <ele>350.612332</ele>
        <time>2021-11-20T08:52:49.195Z</time>
      </trkpt>
      <trkpt lat="47.504264" lon="8.031262">
        <ele>351.781687</ele>
        <time>2021-11-20T08:53:10.815Z</time>
      </trkpt>
      <trkpt lat="47.503900" lon="8.031853">
        <ele>352.519999</ele>
        <time>2021-11-20T08:53:26.261Z</time>
      </trkpt>
      <trkpt lat="47.503542" lon="8.032498">
        <ele>353.633973</ele>
        <time>2021-11-20T08:53:42.341Z</time>
      </trkpt>
      <trkpt lat="47.503241" lon="8.033161">
        <ele>354.782554</ele>
        <time>2021-11-20T08:53:58.273Z</time>
      </trkpt>
      <trkpt lat="47.502736" lon="8.034380">
        <ele>356.791535</ele>
        <time>2021-11-20T08:54:25.888Z</time>
      </trkpt>
      <trkpt lat="47.502581" lon="8.034740">
        <ele>357.319158</ele>
        <time>2021-11-20T08:54:34.439Z</time>
      </trkpt>
      <trkpt lat="47.502156" lon="8.035747">
        <ele>358.786677</ele>
        <time>2021-11-20T08:54:56.803Z</time>
      </trkpt>
      <trkpt lat="47.502046" lon="8.036004">
        <ele>359.162703</ele>
        <time>2021-11-20T08:55:02.653Z</time>
      </trkpt>
      <trkpt lat="47.501617" lon="8.035668">
        <ele>359.779258</ele>
        <time>2021-11-20T08:55:15.256Z</time>
      </trkpt>
      <trkpt lat="47.501518" lon="8.035634">
        <ele>359.768723</ele>
        <time>2021-11-20T08:55:17.673Z</time>
      </trkpt>
      <trkpt lat="47.501454" lon="8.035709">
        <ele>359.760261</ele>
        <time>2021-11-20T08:55:20.061Z</time>
      </trkpt>
      <trkpt lat="47.501437" lon="8.035841">
        <ele>359.750850</ele>
        <time>2021-11-20T08:55:22.030Z</time>
      </trkpt>
      <trkpt lat="47.501234" lon="8.038241">
        <ele>359.430359</ele>
        <time>2021-11-20T08:55:52.052Z</time>
      </trkpt>
      <trkpt lat="47.501231" lon="8.038279">
        <ele>359.412048</ele>
        <time>2021-11-20T08:55:52.384Z</time>
      </trkpt>
      <trkpt lat="47.501267" lon="8.038284">
        <ele>359.386430</ele>
        <time>2021-11-20T08:55:52.756Z</time>
      </trkpt>
      <trkpt lat="47.501901" lon="8.038376">
        <ele>358.935097</ele>
        <time>2021-11-20T08:56:00.582Z</time>
      </trkpt>
      <trkpt lat="47.502069" lon="8.038565">
        <ele>358.785598</ele>
        <time>2021-11-20T08:56:03.053Z</time>
      </trkpt>
      <trkpt lat="47.502088" lon="8.038680">
        <ele>358.728933</ele>
        <time>2021-11-20T08:56:04.201Z</time>
      </trkpt>
      <trkpt lat="47.502099" lon="8.038844">
        <ele>358.650053</ele>
        <time>2021-11-20T08:56:05.428Z</time>
      </trkpt>
      <trkpt lat="47.502104" lon="8.038924">
        <ele>358.611599</ele>
        <time>2021-11-20T08:56:06.054Z</time>
      </trkpt>
      <trkpt lat="47.502162" lon="8.040946">
        <ele>359.029471</ele>
        <time>2021-11-20T08:56:27.966Z</time>
      </trkpt>
      <trkpt lat="47.502240" lon="8.041844">
        <ele>359.466790</ele>
        <time>2021-11-20T08:56:40.057Z</time>
      </trkpt>
      <trkpt lat="47.502261" lon="8.042085">
        <ele>359.584161</ele>
        <time>2021-11-20T08:56:43.369Z</time>
      </trkpt>
      <trkpt lat="47.502592" lon="8.044305">
        <ele>361.861204</ele>
        <time>2021-11-20T08:57:15.311Z</time>
      </trkpt>
      <trkpt lat="47.502959" lon="8.047023">
        <ele>364.897484</ele>
        <time>2021-11-20T08:57:55.504Z</time>
      </trkpt>
      <trkpt lat="47.503126" lon="8.048338">
        <ele>366.209600</ele>
        <time>2021-11-20T08:58:14.867Z</time>
      </trkpt>
      <trkpt lat="47.503303" lon="8.050012">
        <ele>367.789749</ele>
        <time>2021-11-20T08:58:37.512Z</time>
      </trkpt>
      <trkpt lat="47.503323" lon="8.050248">
        <ele>367.976184</ele>
        <time>2021-11-20T08:58:40.757Z</time>
      </trkpt>
      <trkpt lat="47.503363" lon="8.050738">
        <ele>368.363058</ele>
        <time>2021-11-20T08:58:47.133Z</time>
      </trkpt>
      <trkpt lat="47.503386" lon="8.051161">
        <ele>368.695692</ele>
        <time>2021-11-20T08:58:52.582Z</time>
      </trkpt>
      <trkpt lat="47.503397" lon="8.051365">
        <ele>368.856103</ele>
        <time>2021-11-20T08:58:55.377Z</time>
      </trkpt>
      <trkpt lat="47.503421" lon="8.051996">
        <ele>369.351486</ele>
        <time>2021-11-20T08:59:03.720Z</time>
      </trkpt>
      <trkpt lat="47.503428" lon="8.052181">
        <ele>369.496722</ele>
        <time>2021-11-20T08:59:06.117Z</time>
      </trkpt>
      <trkpt lat="47.503428" lon="8.052697">
        <ele>369.911142</ele>
        <time>2021-11-20T08:59:12.894Z</time>
      </trkpt>
      <trkpt lat="47.503431" lon="8.052821">
        <ele>370.033529</ele>
        <time>2021-11-20T08:59:14.512Z</time>
      </trkpt>
      <trkpt lat="47.503433" lon="8.053143">
        <ele>370.351151</ele>
        <time>2021-11-20T08:59:19.985Z</time>
      </trkpt>
      <trkpt lat="47.503429" lon="8.053339">
        <ele>370.544566</ele>
        <time>2021-11-20T08:59:23.422Z</time>
      </trkpt>
      <trkpt lat="47.503413" lon="8.053999">
        <ele>371.195984</ele>
        <time>2021-11-20T08:59:35.194Z</time>
      </trkpt>
      <trkpt lat="47.503340" lon="8.055072">
        <ele>372.259705</ele>
        <time>2021-11-20T08:59:54.474Z</time>
      </trkpt>
      <trkpt lat="47.503298" lon="8.055555">
        <ele>372.796247</ele>
        <time>2021-11-20T09:00:03.005Z</time>
      </trkpt>
      <trkpt lat="47.503232" lon="8.056115">
        <ele>373.482377</ele>
        <time>2021-11-20T09:00:12.937Z</time>
      </trkpt>
      <trkpt lat="47.502927" lon="8.057944">
        <ele>375.754009</ele>
        <time>2021-11-20T09:00:48.622Z</time>
      </trkpt>
      <trkpt lat="47.502836" lon="8.058343">
        <ele>376.241084</ele>
        <time>2021-11-20T09:00:56.374Z</time>
      </trkpt>
      <trkpt lat="47.502806" lon="8.058487">
        <ele>376.415375</ele>
        <time>2021-11-20T09:00:59.395Z</time>
      </trkpt>
      <trkpt lat="47.502690" lon="8.058955">
        <ele>376.991951</ele>
        <time>2021-11-20T09:01:08.396Z</time>
      </trkpt>
      <trkpt lat="47.502580" lon="8.059374">
        <ele>377.511879</ele>
        <time>2021-11-20T09:01:16.382Z</time>
      </trkpt>
      <trkpt lat="47.502534" lon="8.059520">
        <ele>377.698206</ele>
        <time>2021-11-20T09:01:19.753Z</time>
      </trkpt>
      <trkpt lat="47.502407" lon="8.059925">
        <ele>378.214640</ele>
        <time>2021-11-20T09:01:27.769Z</time>
      </trkpt>
      <trkpt lat="47.502229" lon="8.060464">
        <ele>378.881210</ele>
        <time>2021-11-20T09:01:38.986Z</time>
      </trkpt>
      <trkpt lat="47.502130" lon="8.060761">
        <ele>379.181571</ele>
        <time>2021-11-20T09:01:44.538Z</time>
      </trkpt>
      <trkpt lat="47.501960" lon="8.061164">
        <ele>379.612464</ele>
        <time>2021-11-20T09:01:52.752Z</time>
      </trkpt>
      <trkpt lat="47.501169" lon="8.063017">
        <ele>382.017851</ele>
        <time>2021-11-20T09:02:29.411Z</time>
      </trkpt>
      <trkpt lat="47.500653" lon="8.064026">
        <ele>384.351884</ele>
        <time>2021-11-20T09:02:55.644Z</time>
      </trkpt>
      <trkpt lat="47.500531" lon="8.064169">
        <ele>384.776733</ele>
        <time>2021-11-20T09:03:00.648Z</time>
      </trkpt>
      <trkpt lat="47.500414" lon="8.064350">
        <ele>385.238765</ele>
        <time>2021-11-20T09:03:06.779Z</time>
      </trkpt>
      <trkpt lat="47.500341" lon="8.064457">
        <ele>385.519239</ele>
        <time>2021-11-20T09:03:09.961Z</time>
      </trkpt>
      <trkpt lat="47.500095" lon="8.064612">
        <ele>386.286802</ele>
        <time>2021-11-20T09:03:19.524Z</time>
      </trkpt>
      <trkpt lat="47.500120" lon="8.064657">
        <ele>386.422707</ele>
        <time>2021-11-20T09:03:21.214Z</time>
      </trkpt>
      <trkpt lat="47.500182" lon="8.064834">
        <ele>386.887792</ele>
        <time>2021-11-20T09:03:26.107Z</time>
      </trkpt>
      <trkpt lat="47.500209" lon="8.064917">
        <ele>387.102682</ele>
        <time>2021-11-20T09:03:29.568Z</time>
      </trkpt>
      <trkpt lat="47.500343" lon="8.065218">
        <ele>387.943558</ele>
        <time>2021-11-20T09:03:37.685Z</time>
      </trkpt>
      <trkpt lat="47.500746" lon="8.065595">
        <ele>389.589653</ele>
        <time>2021-11-20T09:03:55.556Z</time>
      </trkpt>
      <trkpt lat="47.500757" lon="8.065687">
        <ele>389.807594</ele>
        <time>2021-11-20T09:03:57.128Z</time>
      </trkpt>
      <trkpt lat="47.500523" lon="8.066198">
        <ele>391.247614</ele>
        <time>2021-11-20T09:04:10.824Z</time>
      </trkpt>
      <trkpt lat="47.500485" lon="8.066332">
        <ele>391.586615</ele>
        <time>2021-11-20T09:04:14.619Z</time>
      </trkpt>
      <trkpt lat="47.500368" lon="8.066586">
        <ele>392.303733</ele>
        <time>2021-11-20T09:04:21.742Z</time>
      </trkpt>
      <trkpt lat="47.499930" lon="8.068012">
        <ele>393.255193</ele>
        <time>2021-11-20T09:04:48.199Z</time>
      </trkpt>
      <trkpt lat="47.499748" lon="8.068841">
        <ele>393.779020</ele>
        <time>2021-11-20T09:05:00.019Z</time>
      </trkpt>
      <trkpt lat="47.499620" lon="8.069496">
        <ele>393.923135</ele>
        <time>2021-11-20T09:05:08.520Z</time>
      </trkpt>
      <trkpt lat="47.499538" lon="8.069838">
        <ele>393.927856</ele>
        <time>2021-11-20T09:05:13.112Z</time>
      </trkpt>
      <trkpt lat="47.499461" lon="8.070758">
        <ele>393.939915</ele>
        <time>2021-11-20T09:05:24.988Z</time>
      </trkpt>
      <trkpt lat="47.499601" lon="8.071817">
        <ele>394.083938</ele>
        <time>2021-11-20T09:05:41.135Z</time>
      </trkpt>
      <trkpt lat="47.499631" lon="8.072434">
        <ele>394.599201</ele>
        <time>2021-11-20T09:05:51.437Z</time>
      </trkpt>
      <trkpt lat="47.499618" lon="8.072678">
        <ele>394.803073</ele>
        <time>2021-11-20T09:05:55.893Z</time>
      </trkpt>
      <trkpt lat="47.499580" lon="8.073053">
        <ele>395.118926</ele>
        <time>2021-11-20T09:06:01.946Z</time>
      </trkpt>
      <trkpt lat="47.499525" lon="8.073287">
        <ele>395.325297</ele>
        <time>2021-11-20T09:06:06.894Z</time>
      </trkpt>
      <trkpt lat="47.499275" lon="8.073955">
        <ele>395.961383</ele>
        <time>2021-11-20T09:06:19.672Z</time>
      </trkpt>
      <trkpt lat="47.499163" lon="8.074206">
        <ele>396.218224</ele>
        <time>2021-11-20T09:06:25.672Z</time>
      </trkpt>
      <trkpt lat="47.498910" lon="8.074849">
        <ele>396.929724</ele>
        <time>2021-11-20T09:06:38.560Z</time>
      </trkpt>
      <trkpt lat="47.498145" lon="8.076850">
        <ele>399.074670</ele>
        <time>2021-11-20T09:07:18.558Z</time>
      </trkpt>
      <trkpt lat="47.497682" lon="8.077743">
        <ele>400.011596</ele>
        <time>2021-11-20T09:07:38.527Z</time>
      </trkpt>
      <trkpt lat="47.497198" lon="8.078441">
        <ele>400.844113</ele>
        <time>2021-11-20T09:07:54.839Z</time>
      </trkpt>
      <trkpt lat="47.497125" lon="8.078508">
        <ele>400.937254</ele>
        <time>2021-11-20T09:07:57.249Z</time>
      </trkpt>
      <trkpt lat="47.497038" lon="8.078610">
        <ele>400.982396</ele>
        <time>2021-11-20T09:07:59.904Z</time>
      </trkpt>
      <trkpt lat="47.496793" lon="8.078891">
        <ele>401.108464</ele>
        <time>2021-11-20T09:08:06.971Z</time>
      </trkpt>
      <trkpt lat="47.496446" lon="8.079280">
        <ele>401.285516</ele>
        <time>2021-11-20T09:08:16.383Z</time>
      </trkpt>
      <trkpt lat="47.496380" lon="8.079285">
        <ele>401.312395</ele>
        <time>2021-11-20T09:08:17.213Z</time>
      </trkpt>
      <trkpt lat="47.496040" lon="8.079701">
        <ele>401.491820</ele>
        <time>2021-11-20T09:08:23.979Z</time>
      </trkpt>
      <trkpt lat="47.495859" lon="8.079943">
        <ele>401.591030</ele>
        <time>2021-11-20T09:08:28.049Z</time>
      </trkpt>
      <trkpt lat="47.495681" lon="8.080229">
        <ele>401.738056</ele>
        <time>2021-11-20T09:08:32.013Z</time>
      </trkpt>
      <trkpt lat="47.495562" lon="8.080466">
        <ele>401.911508</ele>
        <time>2021-11-20T09:08:35.066Z</time>
      </trkpt>
      <trkpt lat="47.495515" lon="8.080558">
        <ele>401.979260</ele>
        <time>2021-11-20T09:08:36.303Z</time>
      </trkpt>
      <trkpt lat="47.495384" lon="8.080873">
        <ele>402.196538</ele>
        <time>2021-11-20T09:08:40.364Z</time>
      </trkpt>
      <trkpt lat="47.495292" lon="8.081144">
        <ele>402.374694</ele>
        <time>2021-11-20T09:08:44.133Z</time>
      </trkpt>
      <trkpt lat="47.495281" lon="8.081177">
        <ele>402.396309</ele>
        <time>2021-11-20T09:08:44.656Z</time>
      </trkpt>
      <trkpt lat="47.495207" lon="8.081445">
        <ele>402.566377</ele>
        <time>2021-11-20T09:08:48.047Z</time>
      </trkpt>
      <trkpt lat="47.495162" lon="8.081632">
        <ele>402.682983</ele>
        <time>2021-11-20T09:08:50.800Z</time>
      </trkpt>
      <trkpt lat="47.495132" lon="8.081754">
        <ele>402.759247</ele>
        <time>2021-11-20T09:08:52.479Z</time>
      </trkpt>
      <trkpt lat="47.495088" lon="8.082021">
        <ele>402.920687</ele>
        <time>2021-11-20T09:08:55.992Z</time>
      </trkpt>
      <trkpt lat="47.495034" lon="8.082354">
        <ele>403.121853</ele>
        <time>2021-11-20T09:09:00.674Z</time>
      </trkpt>
      <trkpt lat="47.495018" lon="8.082502">
        <ele>403.209897</ele>
        <time>2021-11-20T09:09:02.673Z</time>
      </trkpt>
      <trkpt lat="47.494982" lon="8.082826">
        <ele>403.638426</ele>
        <time>2021-11-20T09:09:07.438Z</time>
      </trkpt>
      <trkpt lat="47.494963" lon="8.083009">
        <ele>403.892444</ele>
        <time>2021-11-20T09:09:10.196Z</time>
      </trkpt>
      <trkpt lat="47.494933" lon="8.083243">
        <ele>404.219214</ele>
        <time>2021-11-20T09:09:14.110Z</time>
      </trkpt>
      <trkpt lat="47.494898" lon="8.083514">
        <ele>404.597750</ele>
        <time>2021-11-20T09:09:18.376Z</time>
      </trkpt>
      <trkpt lat="47.494867" lon="8.083719">
        <ele>404.885963</ele>
        <time>2021-11-20T09:09:22.038Z</time>
      </trkpt>
      <trkpt lat="47.494822" lon="8.084015">
        <ele>405.302220</ele>
        <time>2021-11-20T09:09:26.930Z</time>
      </trkpt>
      <trkpt lat="47.494749" lon="8.084368">
        <ele>405.808705</ele>
        <time>2021-11-20T09:09:33.152Z</time>
      </trkpt>
      <trkpt lat="47.494666" lon="8.084717">
        <ele>406.316321</ele>
        <time>2021-11-20T09:09:39.095Z</time>
      </trkpt>
      <trkpt lat="47.494652" lon="8.084779">
        <ele>406.406008</ele>
        <time>2021-11-20T09:09:40.154Z</time>
      </trkpt>
      <trkpt lat="47.494640" lon="8.084828">
        <ele>406.477515</ele>
        <time>2021-11-20T09:09:40.938Z</time>
      </trkpt>
      <trkpt lat="47.494445" lon="8.085612">
        <ele>407.498635</ele>
        <time>2021-11-20T09:09:53.294Z</time>
      </trkpt>
      <trkpt lat="47.494237" lon="8.086449">
        <ele>408.516792</ele>
        <time>2021-11-20T09:10:06.198Z</time>
      </trkpt>
      <trkpt lat="47.494042" lon="8.087271">
        <ele>409.511407</ele>
        <time>2021-11-20T09:10:18.899Z</time>
      </trkpt>
      <trkpt lat="47.493891" lon="8.087911">
        <ele>410.215812</ele>
        <time>2021-11-20T09:10:28.355Z</time>
      </trkpt>
      <trkpt lat="47.493802" lon="8.088286">
        <ele>410.583741</ele>
        <time>2021-11-20T09:10:33.915Z</time>
      </trkpt>
      <trkpt lat="47.493532" lon="8.089427">
        <ele>411.702868</ele>
        <time>2021-11-20T09:10:49.291Z</time>
      </trkpt>
      <trkpt lat="47.493523" lon="8.089470">
        <ele>411.744540</ele>
        <time>2021-11-20T09:10:49.849Z</time>
      </trkpt>
      <trkpt lat="47.493453" lon="8.089837">
        <ele>412.097550</ele>
        <time>2021-11-20T09:10:55.268Z</time>
      </trkpt>
      <trkpt lat="47.493381" lon="8.090217">
        <ele>412.503416</ele>
        <time>2021-11-20T09:11:01.330Z</time>
      </trkpt>
      <trkpt lat="47.493362" lon="8.090313">
        <ele>412.642426</ele>
        <time>2021-11-20T09:11:02.772Z</time>
      </trkpt>
      <trkpt lat="47.493318" lon="8.090521">
        <ele>412.945303</ele>
        <time>2021-11-20T09:11:05.583Z</time>
      </trkpt>
      <trkpt lat="47.493278" lon="8.090706">
        <ele>413.215226</ele>
        <time>2021-11-20T09:11:09.204Z</time>
      </trkpt>
      <trkpt lat="47.493199" lon="8.091055">
        <ele>413.726698</ele>
        <time>2021-11-20T09:11:14.487Z</time>
      </trkpt>
      <trkpt lat="47.493176" lon="8.091152">
        <ele>413.869552</ele>
        <time>2021-11-20T09:11:16.748Z</time>
      </trkpt>
      <trkpt lat="47.493111" lon="8.091365">
        <ele>414.194332</ele>
        <time>2021-11-20T09:11:20.267Z</time>
      </trkpt>
      <trkpt lat="47.493013" lon="8.091685">
        <ele>414.682559</ele>
        <time>2021-11-20T09:11:26.225Z</time>
      </trkpt>
      <trkpt lat="47.493004" lon="8.091715">
        <ele>414.728172</ele>
        <time>2021-11-20T09:11:26.765Z</time>
      </trkpt>
      <trkpt lat="47.492943" lon="8.091916">
        <ele>415.034370</ele>
        <time>2021-11-20T09:11:29.732Z</time>
      </trkpt>
      <trkpt lat="47.492908" lon="8.092021">
        <ele>415.197072</ele>
        <time>2021-11-20T09:11:31.390Z</time>
      </trkpt>
      <trkpt lat="47.492785" lon="8.092387">
        <ele>415.765117</ele>
        <time>2021-11-20T09:11:38.162Z</time>
      </trkpt>
      <trkpt lat="47.492561" lon="8.093030">
        <ele>416.710130</ele>
        <time>2021-11-20T09:11:49.285Z</time>
      </trkpt>
      <trkpt lat="47.492561" lon="8.093030">
        <ele>416.710130</ele>
        <time>2021-11-20T09:11:49.351Z</time>
      </trkpt>
      <trkpt lat="47.492222" lon="8.094030">
        <ele>418.128857</ele>
        <time>2021-11-20T09:12:07.152Z</time>
      </trkpt>
      <trkpt lat="47.491531" lon="8.095826">
        <ele>420.516842</ele>
        <time>2021-11-20T09:12:36.263Z</time>
      </trkpt>
      <trkpt lat="47.490966" lon="8.097142">
        <ele>422.137983</ele>
        <time>2021-11-20T09:12:57.848Z</time>
      </trkpt>
      <trkpt lat="47.490321" lon="8.098647">
        <ele>424.887708</ele>
        <time>2021-11-20T09:13:24.995Z</time>
      </trkpt>
      <trkpt lat="47.489995" lon="8.099422">
        <ele>426.318699</ele>
        <time>2021-11-20T09:13:40.980Z</time>
      </trkpt>
      <trkpt lat="47.489912" lon="8.099621">
        <ele>427.028968</ele>
        <time>2021-11-20T09:13:45.255Z</time>
      </trkpt>
      <trkpt lat="47.489698" lon="8.100128">
        <ele>429.082813</ele>
        <time>2021-11-20T09:13:56.885Z</time>
      </trkpt>
      <trkpt lat="47.489550" lon="8.100488">
        <ele>430.530621</ele>
        <time>2021-11-20T09:14:06.976Z</time>
      </trkpt>
      <trkpt lat="47.489497" lon="8.100620">
        <ele>431.058166</ele>
        <time>2021-11-20T09:14:10.990Z</time>
      </trkpt>
      <trkpt lat="47.489406" lon="8.100900">
        <ele>432.125672</ele>
        <time>2021-11-20T09:14:19.825Z</time>
      </trkpt>
      <trkpt lat="47.489218" lon="8.101622">
        <ele>434.784117</ele>
        <time>2021-11-20T09:14:43.911Z</time>
      </trkpt>
      <trkpt lat="47.489160" lon="8.101908">
        <ele>435.711747</ele>
        <time>2021-11-20T09:14:51.217Z</time>
      </trkpt>
      <trkpt lat="47.488961" lon="8.102990">
        <ele>438.150245</ele>
        <time>2021-11-20T09:15:11.811Z</time>
      </trkpt>
      <trkpt lat="47.488863" lon="8.103453">
        <ele>439.205319</ele>
        <time>2021-11-20T09:15:21.549Z</time>
      </trkpt>
      <trkpt lat="47.488766" lon="8.103832">
        <ele>440.086626</ele>
        <time>2021-11-20T09:15:26.387Z</time>
      </trkpt>
      <trkpt lat="47.488623" lon="8.104263">
        <ele>441.130763</ele>
        <time>2021-11-20T09:15:36.442Z</time>
      </trkpt>
      <trkpt lat="47.488025" lon="8.105557">
        <ele>444.543094</ele>
        <time>2021-11-20T09:15:55.807Z</time>
      </trkpt>
      <trkpt lat="47.487723" lon="8.106230">
        <ele>446.301708</ele>
        <time>2021-11-20T09:16:14.518Z</time>
      </trkpt>
      <trkpt lat="47.487526" lon="8.106968">
        <ele>449.284967</ele>
        <time>2021-11-20T09:16:35.683Z</time>
      </trkpt>
      <trkpt lat="47.487493" lon="8.107281">
        <ele>450.932219</ele>
        <time>2021-11-20T09:16:45.092Z</time>
      </trkpt>
      <trkpt lat="47.487488" lon="8.107690">
        <ele>453.059317</ele>
        <time>2021-11-20T09:16:57.136Z</time>
      </trkpt>
      <trkpt lat="47.487522" lon="8.108181">
        <ele>455.625827</ele>
        <time>2021-11-20T09:17:12.297Z</time>
      </trkpt>
      <trkpt lat="47.487592" lon="8.108945">
        <ele>459.634880</ele>
        <time>2021-11-20T09:17:37.675Z</time>
      </trkpt>
      <trkpt lat="47.487704" lon="8.110209">
        <ele>467.735541</ele>
        <time>2021-11-20T09:18:24.120Z</time>
      </trkpt>
      <trkpt lat="47.487750" lon="8.110724">
        <ele>471.187059</ele>
        <time>2021-11-20T09:18:43.327Z</time>
      </trkpt>
      <trkpt lat="47.487784" lon="8.111079">
        <ele>473.569316</ele>
        <time>2021-11-20T09:18:56.769Z</time>
      </trkpt>
      <trkpt lat="47.487816" lon="8.111427">
        <ele>475.902798</ele>
        <time>2021-11-20T09:19:09.878Z</time>
      </trkpt>
      <trkpt lat="47.487873" lon="8.112054">
        <ele>480.210431</ele>
        <time>2021-11-20T09:19:33.685Z</time>
      </trkpt>
      <trkpt lat="47.487928" lon="8.112601">
        <ele>484.147741</ele>
        <time>2021-11-20T09:19:54.164Z</time>
      </trkpt>
      <trkpt lat="47.487946" lon="8.113698">
        <ele>491.960265</ele>
        <time>2021-11-20T09:20:35.345Z</time>
      </trkpt>
      <trkpt lat="47.487880" lon="8.114431">
        <ele>497.225073</ele>
        <time>2021-11-20T09:21:04.538Z</time>
      </trkpt>
      <trkpt lat="47.487657" lon="8.115463">
        <ele>506.178932</ele>
        <time>2021-11-20T09:21:50.904Z</time>
      </trkpt>
      <trkpt lat="47.487583" lon="8.115667">
        <ele>508.105883</ele>
        <time>2021-11-20T09:22:02.255Z</time>
      </trkpt>
      <trkpt lat="47.486845" lon="8.117095">
        <ele>522.088533</ele>
        <time>2021-11-20T09:23:21.539Z</time>
      </trkpt>
      <trkpt lat="47.486571" lon="8.117656">
        <ele>526.147743</ele>
        <time>2021-11-20T09:23:49.945Z</time>
      </trkpt>
      <trkpt lat="47.486268" lon="8.118191">
        <ele>530.241330</ele>
        <time>2021-11-20T09:24:13.530Z</time>
      </trkpt>
      <trkpt lat="47.485564" lon="8.119205">
        <ele>535.948913</ele>
        <time>2021-11-20T09:24:47.624Z</time>
      </trkpt>
      <trkpt lat="47.485363" lon="8.119586">
        <ele>536.438018</ele>
        <time>2021-11-20T09:24:54.081Z</time>
      </trkpt>
      <trkpt lat="47.485011" lon="8.120456">
        <ele>537.464104</ele>
        <time>2021-11-20T09:25:05.019Z</time>
      </trkpt>
      <trkpt lat="47.484889" lon="8.120748">
        <ele>537.811495</ele>
        <time>2021-11-20T09:25:07.956Z</time>
      </trkpt>
      <trkpt lat="47.484812" lon="8.120917">
        <ele>538.017746</ele>
        <time>2021-11-20T09:25:10.567Z</time>
      </trkpt>
      <trkpt lat="47.484688" lon="8.121120">
        <ele>538.021744</ele>
        <time>2021-11-20T09:25:12.821Z</time>
      </trkpt>
      <trkpt lat="47.484520" lon="8.121330">
        <ele>537.976741</ele>
        <time>2021-11-20T09:25:16.054Z</time>
      </trkpt>
      <trkpt lat="47.484367" lon="8.121479">
        <ele>537.939261</ele>
        <time>2021-11-20T09:25:18.254Z</time>
      </trkpt>
      <trkpt lat="47.484058" lon="8.121717">
        <ele>537.867977</ele>
        <time>2021-11-20T09:25:23.064Z</time>
      </trkpt>
      <trkpt lat="47.484027" lon="8.121739">
        <ele>537.860942</ele>
        <time>2021-11-20T09:25:23.755Z</time>
      </trkpt>
      <trkpt lat="47.483946" lon="8.121799">
        <ele>537.842406</ele>
        <time>2021-11-20T09:25:25.287Z</time>
      </trkpt>
      <trkpt lat="47.483830" lon="8.121913">
        <ele>537.813910</ele>
        <time>2021-11-20T09:25:26.961Z</time>
      </trkpt>
      <trkpt lat="47.483747" lon="8.122015">
        <ele>537.791832</ele>
        <time>2021-11-20T09:25:28.228Z</time>
      </trkpt>
      <trkpt lat="47.483715" lon="8.122061">
        <ele>537.782703</ele>
        <time>2021-11-20T09:25:29.313Z</time>
      </trkpt>
      <trkpt lat="47.483395" lon="8.122774">
        <ele>537.674619</ele>
        <time>2021-11-20T09:25:38.095Z</time>
      </trkpt>
      <trkpt lat="47.483204" lon="8.123277">
        <ele>537.631847</ele>
        <time>2021-11-20T09:25:43.946Z</time>
      </trkpt>
      <trkpt lat="47.482968" lon="8.123897">
        <ele>537.579097</ele>
        <time>2021-11-20T09:25:51.487Z</time>
      </trkpt>
      <trkpt lat="47.482747" lon="8.124448">
        <ele>537.531598</ele>
        <time>2021-11-20T09:25:57.419Z</time>
      </trkpt>
      <trkpt lat="47.482507" lon="8.124964">
        <ele>537.508639</ele>
        <time>2021-11-20T09:26:03.067Z</time>
      </trkpt>
      <trkpt lat="47.481997" lon="8.125997">
        <ele>537.965648</ele>
        <time>2021-11-20T09:26:15.257Z</time>
      </trkpt>
      <trkpt lat="47.481879" lon="8.126325">
        <ele>538.098391</ele>
        <time>2021-11-20T09:26:20.972Z</time>
      </trkpt>
      <trkpt lat="47.481779" lon="8.126701">
        <ele>538.242740</ele>
        <time>2021-11-20T09:26:25.952Z</time>
      </trkpt>
      <trkpt lat="47.481722" lon="8.127177">
        <ele>538.415436</ele>
        <time>2021-11-20T09:26:31.565Z</time>
      </trkpt>
      <trkpt lat="47.481690" lon="8.127694">
        <ele>539.186387</ele>
        <time>2021-11-20T09:26:38.709Z</time>
      </trkpt>
      <trkpt lat="47.481655" lon="8.128429">
        <ele>540.407178</ele>
        <time>2021-11-20T09:26:49.978Z</time>
      </trkpt>
      <trkpt lat="47.481607" lon="8.129456">
        <ele>542.112812</ele>
        <time>2021-11-20T09:27:09.033Z</time>
      </trkpt>
      <trkpt lat="47.481589" lon="8.129851">
        <ele>542.768748</ele>
        <time>2021-11-20T09:27:16.995Z</time>
      </trkpt>
      <trkpt lat="47.481509" lon="8.130687">
        <ele>545.043323</ele>
        <time>2021-11-20T09:27:33.009Z</time>
      </trkpt>
      <trkpt lat="47.481421" lon="8.131045">
        <ele>546.093744</ele>
        <time>2021-11-20T09:27:39.288Z</time>
      </trkpt>
      <trkpt lat="47.481323" lon="8.131382">
        <ele>547.105366</ele>
        <time>2021-11-20T09:27:46.455Z</time>
      </trkpt>
      <trkpt lat="47.480899" lon="8.132641">
        <ele>551.431733</ele>
        <time>2021-11-20T09:28:19.258Z</time>
      </trkpt>
      <trkpt lat="47.480724" lon="8.133367">
        <ele>554.752170</ele>
        <time>2021-11-20T09:28:40.928Z</time>
      </trkpt>
      <trkpt lat="47.480608" lon="8.134090">
        <ele>557.953285</ele>
        <time>2021-11-20T09:29:02.284Z</time>
      </trkpt>
      <trkpt lat="47.480460" lon="8.135036">
        <ele>561.995948</ele>
        <time>2021-11-20T09:29:30.162Z</time>
      </trkpt>
      <trkpt lat="47.480431" lon="8.135333">
        <ele>562.913639</ele>
        <time>2021-11-20T09:29:37.218Z</time>
      </trkpt>
      <trkpt lat="47.480428" lon="8.135495">
        <ele>563.409240</ele>
        <time>2021-11-20T09:29:42.823Z</time>
      </trkpt>
      <trkpt lat="47.480445" lon="8.135745">
        <ele>564.177629</ele>
        <time>2021-11-20T09:29:48.734Z</time>
      </trkpt>
      <trkpt lat="47.480497" lon="8.136071">
        <ele>565.201965</ele>
        <time>2021-11-20T09:29:57.683Z</time>
      </trkpt>
      <trkpt lat="47.480611" lon="8.136738">
        <ele>567.305940</ele>
        <time>2021-11-20T09:30:12.529Z</time>
      </trkpt>
      <trkpt lat="47.480729" lon="8.137479">
        <ele>569.634049</ele>
        <time>2021-11-20T09:30:27.896Z</time>
      </trkpt>
      <trkpt lat="47.480849" lon="8.138227">
        <ele>570.486543</ele>
        <time>2021-11-20T09:30:36.177Z</time>
      </trkpt>
      <trkpt lat="47.480926" lon="8.138706">
        <ele>570.963727</ele>
        <time>2021-11-20T09:30:41.447Z</time>
      </trkpt>
      <trkpt lat="47.480931" lon="8.138738">
        <ele>570.995558</ele>
        <time>2021-11-20T09:30:41.636Z</time>
      </trkpt>
      <trkpt lat="47.480997" lon="8.139156">
        <ele>571.411580</ele>
        <time>2021-11-20T09:30:48.595Z</time>
      </trkpt>
      <trkpt lat="47.481047" lon="8.139151">
        <ele>571.483445</ele>
        <time>2021-11-20T09:30:49.110Z</time>
      </trkpt>
      <trkpt lat="47.481211" lon="8.139188">
        <ele>571.721344</ele>
        <time>2021-11-20T09:30:51.805Z</time>
      </trkpt>
      <trkpt lat="47.481334" lon="8.139233">
        <ele>571.903041</ele>
        <time>2021-11-20T09:30:55.599Z</time>
      </trkpt>
      <trkpt lat="47.481570" lon="8.139330">
        <ele>572.254287</ele>
        <time>2021-11-20T09:30:59.433Z</time>
      </trkpt>
      <trkpt lat="47.481795" lon="8.139350">
        <ele>572.807825</ele>
        <time>2021-11-20T09:31:05.827Z</time>
      </trkpt>
      <trkpt lat="47.481930" lon="8.139364">
        <ele>573.217887</ele>
        <time>2021-11-20T09:31:09.313Z</time>
      </trkpt>
      <trkpt lat="47.482269" lon="8.139354">
        <ele>574.245282</ele>
        <time>2021-11-20T09:31:18.824Z</time>
      </trkpt>
      <trkpt lat="47.482314" lon="8.139339">
        <ele>574.385052</ele>
        <time>2021-11-20T09:31:20.091Z</time>
      </trkpt>
      <trkpt lat="47.482382" lon="8.139311">
        <ele>574.598925</ele>
        <time>2021-11-20T09:31:24.281Z</time>
      </trkpt>
      <trkpt lat="47.482938" lon="8.138763">
        <ele>576.623161</ele>
        <time>2021-11-20T09:31:40.093Z</time>
      </trkpt>
      <trkpt lat="47.482993" lon="8.138736">
        <ele>576.798746</ele>
        <time>2021-11-20T09:31:43.444Z</time>
      </trkpt>
      <trkpt lat="47.483055" lon="8.138704">
        <ele>576.997710</ele>
        <time>2021-11-20T09:31:44.875Z</time>
      </trkpt>
      <trkpt lat="47.483799" lon="8.138672">
        <ele>578.485537</ele>
        <time>2021-11-20T09:32:05.770Z</time>
      </trkpt>
      <trkpt lat="47.483932" lon="8.138672">
        <ele>578.672610</ele>
        <time>2021-11-20T09:32:08.388Z</time>
      </trkpt>
      <trkpt lat="47.484101" lon="8.138667">
        <ele>578.910366</ele>
        <time>2021-11-20T09:32:12.200Z</time>
      </trkpt>
      <trkpt lat="47.484611" lon="8.138600">
        <ele>579.630534</ele>
        <time>2021-11-20T09:32:22.165Z</time>
      </trkpt>
      <trkpt lat="47.485087" lon="8.139024">
        <ele>580.333796</ele>
        <time>2021-11-20T09:32:29.781Z</time>
      </trkpt>
      <trkpt lat="47.485614" lon="8.139130">
        <ele>580.130553</ele>
        <time>2021-11-20T09:32:36.991Z</time>
      </trkpt>
      <trkpt lat="47.485679" lon="8.139129">
        <ele>580.105712</ele>
        <time>2021-11-20T09:32:37.747Z</time>
      </trkpt>
      <trkpt lat="47.485769" lon="8.139093">
        <ele>580.070084</ele>
        <time>2021-11-20T09:32:41.540Z</time>
      </trkpt>
      <trkpt lat="47.485914" lon="8.138973">
        <ele>580.006596</ele>
        <time>2021-11-20T09:32:47.374Z</time>
      </trkpt>
      <trkpt lat="47.486150" lon="8.138614">
        <ele>579.877257</ele>
        <time>2021-11-20T09:32:59.380Z</time>
      </trkpt>
      <trkpt lat="47.486244" lon="8.138406">
        <ele>579.812638</ele>
        <time>2021-11-20T09:33:05.312Z</time>
      </trkpt>
      <trkpt lat="47.486385" lon="8.138090">
        <ele>579.714849</ele>
        <time>2021-11-20T09:33:14.187Z</time>
      </trkpt>
      <trkpt lat="47.486480" lon="8.137926">
        <ele>579.651026</ele>
        <time>2021-11-20T09:33:19.741Z</time>
      </trkpt>
      <trkpt lat="47.486500" lon="8.137887">
        <ele>579.613536</ele>
        <time>2021-11-20T09:33:20.913Z</time>
      </trkpt>
      <trkpt lat="47.486625" lon="8.137748">
        <ele>579.436353</ele>
        <time>2021-11-20T09:33:22.966Z</time>
      </trkpt>
      <trkpt lat="47.486647" lon="8.137734">
        <ele>579.409216</ele>
        <time>2021-11-20T09:33:23.201Z</time>
      </trkpt>
      <trkpt lat="47.487220" lon="8.137494">
        <ele>578.734397</ele>
        <time>2021-11-20T09:33:31.202Z</time>
      </trkpt>
      <trkpt lat="47.487735" lon="8.137374">
        <ele>578.143620</ele>
        <time>2021-11-20T09:33:37.156Z</time>
      </trkpt>
      <trkpt lat="47.488213" lon="8.137151">
        <ele>577.577388</ele>
        <time>2021-11-20T09:33:42.731Z</time>
      </trkpt>
      <trkpt lat="47.488465" lon="8.137151">
        <ele>577.301710</ele>
        <time>2021-11-20T09:33:45.585Z</time>
      </trkpt>
      <trkpt lat="47.488649" lon="8.137254">
        <ele>577.086502</ele>
        <time>2021-11-20T09:33:47.862Z</time>
      </trkpt>
      <trkpt lat="47.488837" lon="8.137371">
        <ele>576.863391</ele>
        <time>2021-11-20T09:33:50.174Z</time>
      </trkpt>
      <trkpt lat="47.488954" lon="8.137431">
        <ele>576.727930</ele>
        <time>2021-11-20T09:33:51.647Z</time>
      </trkpt>
      <trkpt lat="47.489423" lon="8.137655">
        <ele>576.188804</ele>
        <time>2021-11-20T09:33:57.620Z</time>
      </trkpt>
      <trkpt lat="47.489880" lon="8.137807">
        <ele>575.676393</ele>
        <time>2021-11-20T09:34:03.642Z</time>
      </trkpt>
      <trkpt lat="47.490265" lon="8.137935">
        <ele>575.872477</ele>
        <time>2021-11-20T09:34:09.194Z</time>
      </trkpt>
      <trkpt lat="47.490479" lon="8.137973">
        <ele>575.995424</ele>
        <time>2021-11-20T09:34:12.628Z</time>
      </trkpt>
      <trkpt lat="47.490906" lon="8.138091">
        <ele>576.243206</ele>
        <time>2021-11-20T09:34:20.577Z</time>
      </trkpt>
      <trkpt lat="47.491438" lon="8.138230">
        <ele>576.551367</ele>
        <time>2021-11-20T09:34:31.312Z</time>
      </trkpt>
      <trkpt lat="47.491600" lon="8.138244">
        <ele>576.643933</ele>
        <time>2021-11-20T09:34:34.286Z</time>
      </trkpt>
      <trkpt lat="47.492088" lon="8.138269">
        <ele>576.579202</ele>
        <time>2021-11-20T09:34:43.509Z</time>
      </trkpt>
      <trkpt lat="47.492211" lon="8.138284">
        <ele>576.548550</ele>
        <time>2021-11-20T09:34:45.885Z</time>
      </trkpt>
      <trkpt lat="47.492313" lon="8.138377">
        <ele>576.518796</ele>
        <time>2021-11-20T09:34:47.887Z</time>
      </trkpt>
      <trkpt lat="47.492359" lon="8.138479">
        <ele>576.498217</ele>
        <time>2021-11-20T09:34:49.296Z</time>
      </trkpt>
      <trkpt lat="47.492379" lon="8.138603">
        <ele>576.476823</ele>
        <time>2021-11-20T09:34:51.057Z</time>
      </trkpt>
      <trkpt lat="47.492416" lon="8.138929">
        <ele>576.421350</ele>
        <time>2021-11-20T09:34:54.376Z</time>
      </trkpt>
      <trkpt lat="47.492651" lon="8.141002">
        <ele>573.762667</ele>
        <time>2021-11-20T09:35:10.457Z</time>
      </trkpt>
      <trkpt lat="47.492634" lon="8.141132">
        <ele>573.435456</ele>
        <time>2021-11-20T09:35:11.307Z</time>
      </trkpt>
      <trkpt lat="47.492604" lon="8.141229">
        <ele>573.171837</ele>
        <time>2021-11-20T09:35:11.999Z</time>
      </trkpt>
      <trkpt lat="47.492178" lon="8.141991">
        <ele>570.727840</ele>
        <time>2021-11-20T09:35:18.429Z</time>
      </trkpt>
      <trkpt lat="47.492091" lon="8.142144">
        <ele>570.233683</ele>
        <time>2021-11-20T09:35:19.689Z</time>
      </trkpt>
      <trkpt lat="47.492031" lon="8.142263">
        <ele>569.866764</ele>
        <time>2021-11-20T09:35:20.633Z</time>
      </trkpt>
      <trkpt lat="47.491977" lon="8.142556">
        <ele>568.840831</ele>
        <time>2021-11-20T09:35:22.511Z</time>
      </trkpt>
      <trkpt lat="47.491957" lon="8.142795">
        <ele>567.943427</ele>
        <time>2021-11-20T09:35:24.028Z</time>
      </trkpt>
      <trkpt lat="47.491953" lon="8.143034">
        <ele>567.052554</ele>
        <time>2021-11-20T09:35:25.483Z</time>
      </trkpt>
      <trkpt lat="47.491965" lon="8.143321">
        <ele>565.981044</ele>
        <time>2021-11-20T09:35:27.271Z</time>
      </trkpt>
      <trkpt lat="47.492011" lon="8.143597">
        <ele>564.921744</ele>
        <time>2021-11-20T09:35:29.079Z</time>
      </trkpt>
      <trkpt lat="47.492053" lon="8.143800">
        <ele>564.130628</ele>
        <time>2021-11-20T09:35:30.384Z</time>
      </trkpt>
      <trkpt lat="47.492087" lon="8.143971">
        <ele>563.466406</ele>
        <time>2021-11-20T09:35:31.533Z</time>
      </trkpt>
      <trkpt lat="47.492087" lon="8.144186">
        <ele>562.665241</ele>
        <time>2021-11-20T09:35:32.875Z</time>
      </trkpt>
      <trkpt lat="47.492088" lon="8.144557">
        <ele>561.282755</ele>
        <time>2021-11-20T09:35:35.182Z</time>
      </trkpt>
      <trkpt lat="47.492088" lon="8.145158">
        <ele>559.314768</ele>
        <time>2021-11-20T09:35:38.946Z</time>
      </trkpt>
      <trkpt lat="47.492088" lon="8.145254">
        <ele>559.096604</ele>
        <time>2021-11-20T09:35:39.564Z</time>
      </trkpt>
      <trkpt lat="47.492082" lon="8.145838">
        <ele>557.769286</ele>
        <time>2021-11-20T09:35:43.345Z</time>
      </trkpt>
      <trkpt lat="47.492079" lon="8.146009">
        <ele>557.380550</ele>
        <time>2021-11-20T09:35:44.503Z</time>
      </trkpt>
      <trkpt lat="47.492088" lon="8.146482">
        <ele>556.305212</ele>
        <time>2021-11-20T09:35:47.682Z</time>
      </trkpt>
      <trkpt lat="47.492125" lon="8.146571">
        <ele>556.067739</ele>
        <time>2021-11-20T09:35:48.410Z</time>
      </trkpt>
      <trkpt lat="47.492241" lon="8.146624">
        <ele>555.659429</ele>
        <time>2021-11-20T09:35:49.596Z</time>
      </trkpt>
      <trkpt lat="47.492464" lon="8.146635">
        <ele>554.909001</ele>
        <time>2021-11-20T09:35:51.996Z</time>
      </trkpt>
      <trkpt lat="47.494351" lon="8.146113">
        <ele>552.185357</ele>
        <time>2021-11-20T09:36:14.944Z</time>
      </trkpt>
      <trkpt lat="47.494476" lon="8.146116">
        <ele>552.064569</ele>
        <time>2021-11-20T09:36:16.909Z</time>
      </trkpt>
      <trkpt lat="47.494550" lon="8.146113">
        <ele>551.993044</ele>
        <time>2021-11-20T09:36:18.097Z</time>
      </trkpt>
      <trkpt lat="47.494802" lon="8.146133">
        <ele>551.969848</ele>
        <time>2021-11-20T09:36:21.800Z</time>
      </trkpt>
      <trkpt lat="47.495167" lon="8.146162">
        <ele>552.000770</ele>
        <time>2021-11-20T09:36:27.725Z</time>
      </trkpt>
      <trkpt lat="47.495291" lon="8.146216">
        <ele>552.011705</ele>
        <time>2021-11-20T09:36:30.009Z</time>
      </trkpt>
      <trkpt lat="47.495330" lon="8.146238">
        <ele>552.015236</ele>
        <time>2021-11-20T09:36:30.655Z</time>
      </trkpt>
      <trkpt lat="47.495531" lon="8.146431">
        <ele>552.035505</ele>
        <time>2021-11-20T09:36:34.982Z</time>
      </trkpt>
      <trkpt lat="47.495811" lon="8.147525">
        <ele>552.102372</ele>
        <time>2021-11-20T09:36:47.424Z</time>
      </trkpt>
      <trkpt lat="47.496048" lon="8.148514">
        <ele>551.285779</ele>
        <time>2021-11-20T09:36:56.117Z</time>
      </trkpt>
      <trkpt lat="47.496081" lon="8.148674">
        <ele>551.151092</ele>
        <time>2021-11-20T09:36:57.415Z</time>
      </trkpt>
      <trkpt lat="47.496114" lon="8.148836">
        <ele>551.014865</ele>
        <time>2021-11-20T09:36:58.771Z</time>
      </trkpt>
      <trkpt lat="47.496100" lon="8.148965">
        <ele>550.909674</ele>
        <time>2021-11-20T09:36:59.754Z</time>
      </trkpt>
      <trkpt lat="47.496064" lon="8.149222">
        <ele>550.698360</ele>
        <time>2021-11-20T09:37:01.743Z</time>
      </trkpt>
      <trkpt lat="47.495916" lon="8.150228">
        <ele>549.887770</ele>
        <time>2021-11-20T09:37:09.640Z</time>
      </trkpt>
      <trkpt lat="47.495907" lon="8.150548">
        <ele>549.681584</ele>
        <time>2021-11-20T09:37:12.219Z</time>
      </trkpt>
      <trkpt lat="47.495926" lon="8.150795">
        <ele>549.521545</ele>
        <time>2021-11-20T09:37:14.092Z</time>
      </trkpt>
      <trkpt lat="47.495980" lon="8.151500">
        <ele>549.064777</ele>
        <time>2021-11-20T09:37:19.914Z</time>
      </trkpt>
      <trkpt lat="47.496013" lon="8.152224">
        <ele>548.597627</ele>
        <time>2021-11-20T09:37:26.074Z</time>
      </trkpt>
      <trkpt lat="47.496031" lon="8.152401">
        <ele>548.482395</ele>
        <time>2021-11-20T09:37:27.771Z</time>
      </trkpt>
      <trkpt lat="47.496043" lon="8.152517">
        <ele>548.406848</ele>
        <time>2021-11-20T09:37:29.181Z</time>
      </trkpt>
      <trkpt lat="47.496252" lon="8.153481">
        <ele>547.399300</ele>
        <time>2021-11-20T09:37:38.425Z</time>
      </trkpt>
      <trkpt lat="47.496295" lon="8.153600">
        <ele>547.249605</ele>
        <time>2021-11-20T09:37:40.108Z</time>
      </trkpt>
      <trkpt lat="47.496354" lon="8.153743">
        <ele>547.063742</ele>
        <time>2021-11-20T09:37:41.358Z</time>
      </trkpt>
      <trkpt lat="47.496607" lon="8.154090">
        <ele>546.497443</ele>
        <time>2021-11-20T09:37:45.473Z</time>
      </trkpt>
      <trkpt lat="47.496673" lon="8.154171">
        <ele>546.356678</ele>
        <time>2021-11-20T09:37:46.473Z</time>
      </trkpt>
      <trkpt lat="47.496872" lon="8.154444">
        <ele>545.911202</ele>
        <time>2021-11-20T09:37:49.346Z</time>
      </trkpt>
      <trkpt lat="47.496927" lon="8.154519">
        <ele>545.788421</ele>
        <time>2021-11-20T09:37:50.123Z</time>
      </trkpt>
      <trkpt lat="47.497011" lon="8.154633">
        <ele>545.601311</ele>
        <time>2021-11-20T09:37:51.281Z</time>
      </trkpt>
      <trkpt lat="47.497059" lon="8.154725">
        <ele>545.472373</ele>
        <time>2021-11-20T09:37:52.085Z</time>
      </trkpt>
      <trkpt lat="47.497215" lon="8.155097">
        <ele>544.656157</ele>
        <time>2021-11-20T09:37:54.994Z</time>
      </trkpt>
      <trkpt lat="47.497351" lon="8.155541">
        <ele>543.533915</ele>
        <time>2021-11-20T09:37:58.237Z</time>
      </trkpt>
      <trkpt lat="47.497376" lon="8.155653">
        <ele>543.262380</ele>
        <time>2021-11-20T09:37:59.000Z</time>
      </trkpt>
      <trkpt lat="47.497382" lon="8.155739">
        <ele>543.063352</ele>
        <time>2021-11-20T09:37:59.555Z</time>
      </trkpt>
      <trkpt lat="47.497390" lon="8.155891">
        <ele>542.712383</ele>
        <time>2021-11-20T09:38:00.687Z</time>
      </trkpt>
      <trkpt lat="47.497388" lon="8.155994">
        <ele>542.475176</ele>
        <time>2021-11-20T09:38:01.335Z</time>
      </trkpt>
      <trkpt lat="47.497386" lon="8.156131">
        <ele>542.159723</ele>
        <time>2021-11-20T09:38:02.241Z</time>
      </trkpt>
      <trkpt lat="47.497390" lon="8.156282">
        <ele>541.811849</ele>
        <time>2021-11-20T09:38:03.228Z</time>
      </trkpt>
      <trkpt lat="47.497395" lon="8.156369">
        <ele>541.610849</ele>
        <time>2021-11-20T09:38:03.876Z</time>
      </trkpt>
      <trkpt lat="47.497401" lon="8.156439">
        <ele>541.448415</ele>
        <time>2021-11-20T09:38:04.374Z</time>
      </trkpt>
      <trkpt lat="47.497410" lon="8.156510">
        <ele>541.282119</ele>
        <time>2021-11-20T09:38:04.828Z</time>
      </trkpt>
      <trkpt lat="47.497515" lon="8.156974">
        <ele>540.155654</ele>
        <time>2021-11-20T09:38:08.183Z</time>
      </trkpt>
      <trkpt lat="47.497556" lon="8.157098">
        <ele>539.837852</ele>
        <time>2021-11-20T09:38:09.084Z</time>
      </trkpt>
      <trkpt lat="47.497620" lon="8.157313">
        <ele>539.297007</ele>
        <time>2021-11-20T09:38:10.701Z</time>
      </trkpt>
      <trkpt lat="47.497677" lon="8.157483">
        <ele>538.996100</ele>
        <time>2021-11-20T09:38:12.065Z</time>
      </trkpt>
      <trkpt lat="47.497717" lon="8.157596">
        <ele>538.833135</ele>
        <time>2021-11-20T09:38:12.938Z</time>
      </trkpt>
      <trkpt lat="47.497827" lon="8.157898">
        <ele>538.394851</ele>
        <time>2021-11-20T09:38:15.439Z</time>
      </trkpt>
      <trkpt lat="47.497875" lon="8.158014">
        <ele>538.221082</ele>
        <time>2021-11-20T09:38:16.336Z</time>
      </trkpt>
      <trkpt lat="47.498196" lon="8.158878">
        <ele>536.961494</ele>
        <time>2021-11-20T09:38:24.192Z</time>
      </trkpt>
      <trkpt lat="47.498560" lon="8.159790">
        <ele>535.595865</ele>
        <time>2021-11-20T09:38:32.559Z</time>
      </trkpt>
      <trkpt lat="47.498722" lon="8.160237">
        <ele>534.896108</ele>
        <time>2021-11-20T09:38:36.380Z</time>
      </trkpt>
      <trkpt lat="47.498784" lon="8.160412">
        <ele>534.623516</ele>
        <time>2021-11-20T09:38:37.881Z</time>
      </trkpt>
      <trkpt lat="47.498832" lon="8.160548">
        <ele>534.411846</ele>
        <time>2021-11-20T09:38:38.951Z</time>
      </trkpt>
      <trkpt lat="47.498881" lon="8.160699">
        <ele>534.180760</ele>
        <time>2021-11-20T09:38:40.212Z</time>
      </trkpt>
      <trkpt lat="47.498981" lon="8.161060">
        <ele>533.642527</ele>
        <time>2021-11-20T09:38:43.022Z</time>
      </trkpt>
      <trkpt lat="47.499088" lon="8.161438">
        <ele>533.077158</ele>
        <time>2021-11-20T09:38:47.455Z</time>
      </trkpt>
      <trkpt lat="47.499203" lon="8.161843">
        <ele>532.471125</ele>
        <time>2021-11-20T09:38:52.074Z</time>
      </trkpt>
      <trkpt lat="47.499263" lon="8.162040">
        <ele>532.173028</ele>
        <time>2021-11-20T09:38:54.217Z</time>
      </trkpt>
      <trkpt lat="47.499391" lon="8.162488">
        <ele>531.238064</ele>
        <time>2021-11-20T09:38:59.387Z</time>
      </trkpt>
      <trkpt lat="47.499404" lon="8.162533">
        <ele>531.140354</ele>
        <time>2021-11-20T09:38:59.838Z</time>
      </trkpt>
      <trkpt lat="47.499421" lon="8.162591">
        <ele>531.014130</ele>
        <time>2021-11-20T09:39:00.537Z</time>
      </trkpt>
      <trkpt lat="47.499529" lon="8.163016">
        <ele>530.107592</ele>
        <time>2021-11-20T09:39:05.044Z</time>
      </trkpt>
      <trkpt lat="47.499561" lon="8.163178">
        <ele>529.770622</ele>
        <time>2021-11-20T09:39:06.828Z</time>
      </trkpt>
      <trkpt lat="47.499570" lon="8.163256">
        <ele>529.612643</ele>
        <time>2021-11-20T09:39:07.670Z</time>
      </trkpt>
      <trkpt lat="47.499593" lon="8.163439">
        <ele>529.241021</ele>
        <time>2021-11-20T09:39:09.476Z</time>
      </trkpt>
      <trkpt lat="47.499606" lon="8.163585">
        <ele>528.947016</ele>
        <time>2021-11-20T09:39:10.864Z</time>
      </trkpt>
      <trkpt lat="47.499674" lon="8.164221">
        <ele>527.661460</ele>
        <time>2021-11-20T09:39:17.316Z</time>
      </trkpt>
      <trkpt lat="47.499702" lon="8.164369">
        <ele>527.354617</ele>
        <time>2021-11-20T09:39:18.923Z</time>
      </trkpt>
      <trkpt lat="47.499759" lon="8.164579">
        <ele>526.902788</ele>
        <time>2021-11-20T09:39:21.036Z</time>
      </trkpt>
      <trkpt lat="47.499842" lon="8.164848">
        <ele>526.044080</ele>
        <time>2021-11-20T09:39:24.062Z</time>
      </trkpt>
      <trkpt lat="47.499926" lon="8.165012">
        <ele>525.395923</ele>
        <time>2021-11-20T09:39:25.971Z</time>
      </trkpt>
      <trkpt lat="47.500134" lon="8.165378">
        <ele>523.889657</ele>
        <time>2021-11-20T09:39:30.564Z</time>
      </trkpt>
      <trkpt lat="47.502034" lon="8.167757">
        <ele>511.177364</ele>
        <time>2021-11-20T09:40:03.896Z</time>
      </trkpt>
      <trkpt lat="47.502350" lon="8.168167">
        <ele>508.861841</ele>
        <time>2021-11-20T09:40:09.416Z</time>
      </trkpt>
      <trkpt lat="47.502442" lon="8.168297">
        <ele>508.116300</ele>
        <time>2021-11-20T09:40:11.061Z</time>
      </trkpt>
      <trkpt lat="47.502592" lon="8.168598">
        <ele>506.529508</ele>
        <time>2021-11-20T09:40:14.470Z</time>
      </trkpt>
      <trkpt lat="47.502673" lon="8.169021">
        <ele>504.664293</ele>
        <time>2021-11-20T09:40:18.284Z</time>
      </trkpt>
      <trkpt lat="47.502683" lon="8.169092">
        <ele>504.356610</ele>
        <time>2021-11-20T09:40:18.890Z</time>
      </trkpt>
      <trkpt lat="47.502671" lon="8.169362">
        <ele>503.208699</ele>
        <time>2021-11-20T09:40:21.199Z</time>
      </trkpt>
      <trkpt lat="47.502484" lon="8.170679">
        <ele>497.499436</ele>
        <time>2021-11-20T09:40:33.027Z</time>
      </trkpt>
      <trkpt lat="47.502485" lon="8.170923">
        <ele>496.849780</ele>
        <time>2021-11-20T09:40:35.174Z</time>
      </trkpt>
      <trkpt lat="47.502508" lon="8.171201">
        <ele>496.296360</ele>
        <time>2021-11-20T09:40:37.724Z</time>
      </trkpt>
      <trkpt lat="47.502619" lon="8.171809">
        <ele>495.051882</ele>
        <time>2021-11-20T09:40:43.581Z</time>
      </trkpt>
      <trkpt lat="47.502811" lon="8.172326">
        <ele>493.886131</ele>
        <time>2021-11-20T09:40:49.455Z</time>
      </trkpt>
      <trkpt lat="47.503046" lon="8.172726">
        <ele>492.838678</ele>
        <time>2021-11-20T09:40:55.057Z</time>
      </trkpt>
      <trkpt lat="47.503241" lon="8.173095">
        <ele>491.935615</ele>
        <time>2021-11-20T09:41:00.662Z</time>
      </trkpt>
      <trkpt lat="47.503578" lon="8.174407">
        <ele>494.393772</ele>
        <time>2021-11-20T09:41:28.576Z</time>
      </trkpt>
      <trkpt lat="47.504359" lon="8.176727">
        <ele>496.823468</ele>
        <time>2021-11-20T09:42:31.227Z</time>
      </trkpt>
      <trkpt lat="47.504903" lon="8.177799">
        <ele>496.955648</ele>
        <time>2021-11-20T09:42:45.349Z</time>
      </trkpt>
      <trkpt lat="47.505251" lon="8.178301">
        <ele>492.823403</ele>
        <time>2021-11-20T09:42:51.623Z</time>
      </trkpt>
      <trkpt lat="47.505832" lon="8.179262">
        <ele>485.414506</ele>
        <time>2021-11-20T09:43:02.384Z</time>
      </trkpt>
      <trkpt lat="47.506131" lon="8.179709">
        <ele>481.800673</ele>
        <time>2021-11-20T09:43:07.534Z</time>
      </trkpt>
      <trkpt lat="47.506365" lon="8.179981">
        <ele>478.334114</ele>
        <time>2021-11-20T09:43:11.032Z</time>
      </trkpt>
      <trkpt lat="47.507430" lon="8.180615">
        <ele>464.900672</ele>
        <time>2021-11-20T09:43:24.736Z</time>
      </trkpt>
      <trkpt lat="47.507553" lon="8.180721">
        <ele>463.235094</ele>
        <time>2021-11-20T09:43:26.478Z</time>
      </trkpt>
      <trkpt lat="47.507652" lon="8.180805">
        <ele>461.899715</ele>
        <time>2021-11-20T09:43:27.829Z</time>
      </trkpt>
      <trkpt lat="47.508201" lon="8.181335">
        <ele>454.820775</ele>
        <time>2021-11-20T09:43:35.794Z</time>
      </trkpt>
      <trkpt lat="47.508585" lon="8.181852">
        <ele>449.300549</ele>
        <time>2021-11-20T09:43:42.019Z</time>
      </trkpt>
      <trkpt lat="47.509183" lon="8.183139">
        <ele>438.745021</ele>
        <time>2021-11-20T09:43:54.878Z</time>
      </trkpt>
      <trkpt lat="47.509381" lon="8.183901">
        <ele>433.995371</ele>
        <time>2021-11-20T09:44:01.713Z</time>
      </trkpt>
      <trkpt lat="47.509617" lon="8.184928">
        <ele>427.684507</ele>
        <time>2021-11-20T09:44:10.884Z</time>
      </trkpt>
      <trkpt lat="47.509786" lon="8.185474">
        <ele>424.583511</ele>
        <time>2021-11-20T09:44:16.036Z</time>
      </trkpt>
      <trkpt lat="47.509919" lon="8.185768">
        <ele>422.950628</ele>
        <time>2021-11-20T09:44:19.136Z</time>
      </trkpt>
      <trkpt lat="47.510052" lon="8.186096">
        <ele>421.185224</ele>
        <time>2021-11-20T09:44:22.544Z</time>
      </trkpt>
      <trkpt lat="47.510128" lon="8.186327">
        <ele>419.999508</ele>
        <time>2021-11-20T09:44:24.787Z</time>
      </trkpt>
      <trkpt lat="47.510377" lon="8.187197">
        <ele>415.639227</ele>
        <time>2021-11-20T09:44:33.011Z</time>
      </trkpt>
      <trkpt lat="47.510603" lon="8.188275">
        <ele>410.694068</ele>
        <time>2021-11-20T09:44:42.842Z</time>
      </trkpt>
      <trkpt lat="47.510767" lon="8.188976">
        <ele>407.538173</ele>
        <time>2021-11-20T09:44:49.309Z</time>
      </trkpt>
      <trkpt lat="47.510882" lon="8.189435">
        <ele>405.455573</ele>
        <time>2021-11-20T09:44:53.650Z</time>
      </trkpt>
      <trkpt lat="47.511047" lon="8.190214">
        <ele>402.145114</ele>
        <time>2021-11-20T09:45:00.913Z</time>
      </trkpt>
      <trkpt lat="47.511107" lon="8.190519">
        <ele>401.239708</ele>
        <time>2021-11-20T09:45:03.734Z</time>
      </trkpt>
      <trkpt lat="47.511107" lon="8.190519">
        <ele>401.239708</ele>
        <time>2021-11-20T09:45:03.741Z</time>
      </trkpt>
      <trkpt lat="47.511195" lon="8.190842">
        <ele>400.247052</ele>
        <time>2021-11-20T09:45:06.911Z</time>
      </trkpt>
      <trkpt lat="47.511480" lon="8.191489">
        <ele>398.045546</ele>
        <time>2021-11-20T09:45:14.125Z</time>
      </trkpt>
      <trkpt lat="47.511503" lon="8.191538">
        <ele>397.875480</ele>
        <time>2021-11-20T09:45:14.673Z</time>
      </trkpt>
      <trkpt lat="47.511548" lon="8.191673">
        <ele>397.446413</ele>
        <time>2021-11-20T09:45:16.231Z</time>
      </trkpt>
      <trkpt lat="47.511548" lon="8.191673">
        <ele>397.446413</ele>
        <time>2021-11-20T09:45:16.237Z</time>
      </trkpt>
      <trkpt lat="47.511473" lon="8.191711">
        <ele>397.111923</ele>
        <time>2021-11-20T09:45:17.036Z</time>
      </trkpt>
      <trkpt lat="47.511365" lon="8.191770">
        <ele>396.626171</ele>
        <time>2021-11-20T09:45:18.173Z</time>
      </trkpt>
      <trkpt lat="47.510861" lon="8.191928">
        <ele>394.692456</ele>
        <time>2021-11-20T09:45:23.420Z</time>
      </trkpt>
      <trkpt lat="47.510696" lon="8.191960">
        <ele>394.379498</ele>
        <time>2021-11-20T09:45:25.230Z</time>
      </trkpt>
      <trkpt lat="47.510685" lon="8.192072">
        <ele>394.235730</ele>
        <time>2021-11-20T09:45:26.401Z</time>
      </trkpt>
      <trkpt lat="47.510331" lon="8.194861">
        <ele>391.084946</ele>
        <time>2021-11-20T09:45:57.632Z</time>
      </trkpt>
      <trkpt lat="47.510011" lon="8.197478">
        <ele>389.428332</ele>
        <time>2021-11-20T09:46:30.327Z</time>
      </trkpt>
      <trkpt lat="47.509922" lon="8.198171">
        <ele>388.960273</ele>
        <time>2021-11-20T09:46:39.005Z</time>
      </trkpt>
      <trkpt lat="47.509914" lon="8.198214">
        <ele>388.930679</ele>
        <time>2021-11-20T09:46:39.509Z</time>
      </trkpt>
      <trkpt lat="47.509681" lon="8.200064">
        <ele>387.350615</ele>
        <time>2021-11-20T09:47:00.720Z</time>
      </trkpt>
      <trkpt lat="47.509592" lon="8.200917">
        <ele>386.339384</ele>
        <time>2021-11-20T09:47:10.157Z</time>
      </trkpt>
      <trkpt lat="47.509353" lon="8.202637">
        <ele>383.730509</ele>
        <time>2021-11-20T09:47:28.910Z</time>
      </trkpt>
      <trkpt lat="47.509269" lon="8.202990">
        <ele>382.952834</ele>
        <time>2021-11-20T09:47:32.752Z</time>
      </trkpt>
      <trkpt lat="47.509150" lon="8.203272">
        <ele>382.261923</ele>
        <time>2021-11-20T09:47:36.042Z</time>
      </trkpt>
      <trkpt lat="47.508866" lon="8.203850">
        <ele>380.776765</ele>
        <time>2021-11-20T09:47:43.115Z</time>
      </trkpt>
      <trkpt lat="47.508829" lon="8.203955">
        <ele>380.530682</ele>
        <time>2021-11-20T09:47:44.285Z</time>
      </trkpt>
      <trkpt lat="47.508821" lon="8.204282">
        <ele>379.850764</ele>
        <time>2021-11-20T09:47:47.282Z</time>
      </trkpt>
      <trkpt lat="47.508917" lon="8.204543">
        <ele>379.113873</ele>
        <time>2021-11-20T09:47:50.219Z</time>
      </trkpt>
      <trkpt lat="47.508985" lon="8.204741">
        <ele>378.411524</ele>
        <time>2021-11-20T09:47:52.183Z</time>
      </trkpt>
      <trkpt lat="47.509021" lon="8.204884">
        <ele>377.928977</ele>
        <time>2021-11-20T09:47:53.703Z</time>
      </trkpt>
      <trkpt lat="47.509032" lon="8.205060">
        <ele>377.370090</ele>
        <time>2021-11-20T09:47:55.330Z</time>
      </trkpt>
      <trkpt lat="47.509149" lon="8.205132">
        <ele>376.776965</ele>
        <time>2021-11-20T09:47:56.480Z</time>
      </trkpt>
      <trkpt lat="47.509289" lon="8.205248">
        <ele>376.025946</ele>
        <time>2021-11-20T09:47:58.104Z</time>
      </trkpt>
      <trkpt lat="47.509425" lon="8.205362">
        <ele>375.294346</ele>
        <time>2021-11-20T09:47:59.555Z</time>
      </trkpt>
      <trkpt lat="47.509425" lon="8.205362">
        <ele>375.294346</ele>
        <time>2021-11-20T09:47:59.561Z</time>
      </trkpt>
      <trkpt lat="47.509576" lon="8.205502">
        <ele>374.460320</ele>
        <time>2021-11-20T09:48:01.274Z</time>
      </trkpt>
      <trkpt lat="47.509781" lon="8.205702">
        <ele>373.311055</ele>
        <time>2021-11-20T09:48:03.531Z</time>
      </trkpt>
      <trkpt lat="47.509957" lon="8.205884">
        <ele>372.306094</ele>
        <time>2021-11-20T09:48:05.610Z</time>
      </trkpt>
      <trkpt lat="47.510110" lon="8.206036">
        <ele>371.443568</ele>
        <time>2021-11-20T09:48:07.330Z</time>
      </trkpt>
      <trkpt lat="47.510310" lon="8.206228">
        <ele>370.634844</ele>
        <time>2021-11-20T09:48:09.601Z</time>
      </trkpt>
      <trkpt lat="47.510696" lon="8.206660">
        <ele>369.343174</ele>
        <time>2021-11-20T09:48:14.363Z</time>
      </trkpt>
      <trkpt lat="47.510746" lon="8.206745">
        <ele>369.139943</ele>
        <time>2021-11-20T09:48:15.129Z</time>
      </trkpt>
      <trkpt lat="47.510799" lon="8.206834">
        <ele>368.926011</ele>
        <time>2021-11-20T09:48:15.988Z</time>
      </trkpt>
      <trkpt lat="47.510868" lon="8.206975">
        <ele>368.612072</ele>
        <time>2021-11-20T09:48:17.162Z</time>
      </trkpt>
      <trkpt lat="47.511087" lon="8.207326">
        <ele>367.750518</ele>
        <time>2021-11-20T09:48:20.671Z</time>
      </trkpt>
      <trkpt lat="47.511287" lon="8.207539">
        <ele>367.092857</ele>
        <time>2021-11-20T09:48:23.419Z</time>
      </trkpt>
      <trkpt lat="47.511545" lon="8.207730">
        <ele>366.322851</ele>
        <time>2021-11-20T09:48:26.958Z</time>
      </trkpt>
      <trkpt lat="47.511830" lon="8.207951">
        <ele>366.088367</ele>
        <time>2021-11-20T09:48:31.251Z</time>
      </trkpt>
      <trkpt lat="47.512289" lon="8.208244">
        <ele>365.826170</ele>
        <time>2021-11-20T09:48:38.273Z</time>
      </trkpt>
      <trkpt lat="47.512464" lon="8.208323">
        <ele>365.730201</ele>
        <time>2021-11-20T09:48:40.785Z</time>
      </trkpt>
      <trkpt lat="47.513508" lon="8.208805">
        <ele>365.102201</ele>
        <time>2021-11-20T09:48:55.314Z</time>
      </trkpt>
      <trkpt lat="47.513709" lon="8.208886">
        <ele>364.950809</ele>
        <time>2021-11-20T09:48:58.065Z</time>
      </trkpt>
      <trkpt lat="47.513775" lon="8.209324">
        <ele>364.730527</ele>
        <time>2021-11-20T09:49:01.899Z</time>
      </trkpt>
      <trkpt lat="47.513828" lon="8.209683">
        <ele>364.550148</ele>
        <time>2021-11-20T09:49:05.068Z</time>
      </trkpt>
      <trkpt lat="47.513875" lon="8.210161">
        <ele>364.313045</ele>
        <time>2021-11-20T09:49:09.199Z</time>
      </trkpt>
      <trkpt lat="47.513886" lon="8.210522">
        <ele>364.135664</ele>
        <time>2021-11-20T09:49:12.235Z</time>
      </trkpt>
      <trkpt lat="47.513892" lon="8.210732">
        <ele>364.032492</ele>
        <time>2021-11-20T09:49:13.978Z</time>
      </trkpt>
      <trkpt lat="47.513892" lon="8.211277">
        <ele>363.823384</ele>
        <time>2021-11-20T09:49:18.416Z</time>
      </trkpt>
      <trkpt lat="47.513868" lon="8.212369">
        <ele>363.426045</ele>
        <time>2021-11-20T09:49:28.034Z</time>
      </trkpt>
      <trkpt lat="47.514119" lon="8.212384">
        <ele>363.290786</ele>
        <time>2021-11-20T09:49:32.901Z</time>
      </trkpt>
      <trkpt lat="47.514469" lon="8.212440">
        <ele>363.101234</ele>
        <time>2021-11-20T09:49:39.699Z</time>
      </trkpt>
      <trkpt lat="47.514567" lon="8.212469">
        <ele>363.047422</ele>
        <time>2021-11-20T09:49:41.515Z</time>
      </trkpt>
      <trkpt lat="47.515044" lon="8.212902">
        <ele>362.766035</ele>
        <time>2021-11-20T09:49:52.491Z</time>
      </trkpt>
      <trkpt lat="47.515199" lon="8.213043">
        <ele>362.675144</ele>
        <time>2021-11-20T09:49:55.918Z</time>
      </trkpt>
      <trkpt lat="47.515439" lon="8.213200">
        <ele>362.544050</ele>
        <time>2021-11-20T09:50:00.787Z</time>
      </trkpt>
      <trkpt lat="47.516357" lon="8.213867">
        <ele>361.964269</ele>
        <time>2021-11-20T09:50:19.171Z</time>
      </trkpt>
      <trkpt lat="47.516450" lon="8.213978">
        <ele>361.858982</ele>
        <time>2021-11-20T09:50:21.304Z</time>
      </trkpt>
      <trkpt lat="47.516592" lon="8.214194">
        <ele>361.679544</ele>
        <time>2021-11-20T09:50:25.066Z</time>
      </trkpt>
      <trkpt lat="47.516853" lon="8.214613">
        <ele>361.340231</ele>
        <time>2021-11-20T09:50:31.975Z</time>
      </trkpt>
      <trkpt lat="47.516927" lon="8.214681">
        <ele>361.263466</ele>
        <time>2021-11-20T09:50:33.417Z</time>
      </trkpt>
      <trkpt lat="47.517061" lon="8.214737">
        <ele>361.140743</ele>
        <time>2021-11-20T09:50:35.895Z</time>
      </trkpt>
      <trkpt lat="47.517598" lon="8.214691">
        <ele>360.666636</ele>
        <time>2021-11-20T09:50:45.101Z</time>
      </trkpt>
      <trkpt lat="47.517727" lon="8.214690">
        <ele>360.552933</ele>
        <time>2021-11-20T09:50:47.292Z</time>
      </trkpt>
      <trkpt lat="47.517865" lon="8.214707">
        <ele>360.455666</ele>
        <time>2021-11-20T09:50:49.671Z</time>
      </trkpt>
      <trkpt lat="47.517918" lon="8.214716">
        <ele>360.419532</ele>
        <time>2021-11-20T09:50:50.600Z</time>
      </trkpt>
      <trkpt lat="47.518033" lon="8.214737">
        <ele>360.341049</ele>
        <time>2021-11-20T09:50:52.471Z</time>
      </trkpt>
      <trkpt lat="47.518146" lon="8.214775">
        <ele>360.262562</ele>
        <time>2021-11-20T09:50:54.590Z</time>
      </trkpt>
      <trkpt lat="47.518581" lon="8.214863">
        <ele>359.965187</ele>
        <time>2021-11-20T09:51:02.640Z</time>
      </trkpt>
      <trkpt lat="47.518727" lon="8.214908">
        <ele>359.864177</ele>
        <time>2021-11-20T09:51:05.426Z</time>
      </trkpt>
      <trkpt lat="47.518955" lon="8.215007">
        <ele>359.703244</ele>
        <time>2021-11-20T09:51:09.951Z</time>
      </trkpt>
      <trkpt lat="47.519148" lon="8.215131">
        <ele>359.560744</ele>
        <time>2021-11-20T09:51:13.891Z</time>
      </trkpt>
      <trkpt lat="47.519391" lon="8.215293">
        <ele>359.380241</ele>
        <time>2021-11-20T09:51:18.846Z</time>
      </trkpt>
      <trkpt lat="47.519670" lon="8.215440">
        <ele>359.177388</ele>
        <time>2021-11-20T09:51:24.227Z</time>
      </trkpt>
      <trkpt lat="47.519944" lon="8.215530">
        <ele>358.984206</ele>
        <time>2021-11-20T09:51:29.370Z</time>
      </trkpt>
      <trkpt lat="47.520124" lon="8.215569">
        <ele>358.858990</ele>
        <time>2021-11-20T09:51:32.703Z</time>
      </trkpt>
      <trkpt lat="47.520146" lon="8.215572">
        <ele>358.843783</ele>
        <time>2021-11-20T09:51:33.150Z</time>
      </trkpt>
      <trkpt lat="47.520315" lon="8.215590">
        <ele>358.727157</ele>
        <time>2021-11-20T09:51:36.105Z</time>
      </trkpt>
      <trkpt lat="47.520540" lon="8.215681">
        <ele>358.566613</ele>
        <time>2021-11-20T09:51:40.467Z</time>
      </trkpt>
      <trkpt lat="47.520786" lon="8.215911">
        <ele>358.366359</ele>
        <time>2021-11-20T09:51:45.676Z</time>
      </trkpt>
      <trkpt lat="47.521086" lon="8.216135">
        <ele>358.135099</ele>
        <time>2021-11-20T09:51:51.538Z</time>
      </trkpt>
      <trkpt lat="47.521196" lon="8.216177">
        <ele>358.066128</ele>
        <time>2021-11-20T09:51:53.580Z</time>
      </trkpt>
      <trkpt lat="47.521239" lon="8.216193">
        <ele>358.046992</ele>
        <time>2021-11-20T09:51:54.254Z</time>
      </trkpt>
      <trkpt lat="47.521527" lon="8.216269">
        <ele>357.920733</ele>
        <time>2021-11-20T09:51:59.570Z</time>
      </trkpt>
      <trkpt lat="47.521586" lon="8.216258">
        <ele>357.895068</ele>
        <time>2021-11-20T09:52:00.509Z</time>
      </trkpt>
      <trkpt lat="47.521761" lon="8.216165">
        <ele>357.814821</ele>
        <time>2021-11-20T09:52:03.824Z</time>
      </trkpt>
      <trkpt lat="47.521839" lon="8.216142">
        <ele>357.780496</ele>
        <time>2021-11-20T09:52:05.340Z</time>
      </trkpt>
      <trkpt lat="47.522226" lon="8.216299">
        <ele>357.607312</ele>
        <time>2021-11-20T09:52:12.663Z</time>
      </trkpt>
      <trkpt lat="47.522326" lon="8.216356">
        <ele>357.561065</ele>
        <time>2021-11-20T09:52:14.443Z</time>
      </trkpt>
      <trkpt lat="47.522426" lon="8.216233">
        <ele>357.504958</ele>
        <time>2021-11-20T09:52:16.281Z</time>
      </trkpt>
      <trkpt lat="47.522589" lon="8.216064">
        <ele>357.419078</ele>
        <time>2021-11-20T09:52:18.961Z</time>
      </trkpt>
      <trkpt lat="47.522953" lon="8.215700">
        <ele>357.558394</ele>
        <time>2021-11-20T09:52:26.217Z</time>
      </trkpt>
      <trkpt lat="47.523040" lon="8.215616">
        <ele>357.707991</ele>
        <time>2021-11-20T09:52:28.295Z</time>
      </trkpt>
      <trkpt lat="47.523184" lon="8.215512">
        <ele>357.938759</ele>
        <time>2021-11-20T09:52:31.249Z</time>
      </trkpt>
      <trkpt lat="47.523252" lon="8.215477">
        <ele>358.042453</ele>
        <time>2021-11-20T09:52:32.568Z</time>
      </trkpt>
      <trkpt lat="47.523295" lon="8.215459">
        <ele>358.106817</ele>
        <time>2021-11-20T09:52:33.498Z</time>
      </trkpt>
      <trkpt lat="47.523322" lon="8.215449">
        <ele>358.146905</ele>
        <time>2021-11-20T09:52:34.067Z</time>
      </trkpt>
      <trkpt lat="47.523463" lon="8.215416">
        <ele>358.352520</ele>
        <time>2021-11-20T09:52:37.129Z</time>
      </trkpt>
      <trkpt lat="47.523628" lon="8.215398">
        <ele>358.590827</ele>
        <time>2021-11-20T09:52:40.196Z</time>
      </trkpt>
      <trkpt lat="47.523967" lon="8.215368">
        <ele>359.079988</ele>
        <time>2021-11-20T09:52:47.534Z</time>
      </trkpt>
      <trkpt lat="47.524496" lon="8.215283">
        <ele>359.846422</ele>
        <time>2021-11-20T09:53:00.035Z</time>
      </trkpt>
      <trkpt lat="47.525397" lon="8.215170">
        <ele>361.978425</ele>
        <time>2021-11-20T09:53:22.683Z</time>
      </trkpt>
      <trkpt lat="47.525630" lon="8.215165">
        <ele>362.536328</ele>
        <time>2021-11-20T09:53:28.866Z</time>
      </trkpt>
      <trkpt lat="47.525749" lon="8.215166">
        <ele>362.821240</ele>
        <time>2021-11-20T09:53:31.896Z</time>
      </trkpt>
      <trkpt lat="47.525837" lon="8.215146">
        <ele>363.034395</ele>
        <time>2021-11-20T09:53:33.974Z</time>
      </trkpt>
      <trkpt lat="47.525912" lon="8.215115">
        <ele>363.220821</ele>
        <time>2021-11-20T09:53:35.830Z</time>
      </trkpt>
      <trkpt lat="47.525955" lon="8.215079">
        <ele>363.339084</ele>
        <time>2021-11-20T09:53:37.218Z</time>
      </trkpt>
      <trkpt lat="47.526002" lon="8.215031">
        <ele>363.475774</ele>
        <time>2021-11-20T09:53:38.579Z</time>
      </trkpt>
      <trkpt lat="47.526053" lon="8.214977">
        <ele>363.625876</ele>
        <time>2021-11-20T09:53:40.103Z</time>
      </trkpt>
      <trkpt lat="47.526124" lon="8.214905">
        <ele>363.831897</ele>
        <time>2021-11-20T09:53:42.011Z</time>
      </trkpt>
      <trkpt lat="47.526245" lon="8.214785">
        <ele>364.180552</ele>
        <time>2021-11-20T09:53:45.305Z</time>
      </trkpt>
      <trkpt lat="47.526284" lon="8.214762">
        <ele>364.224779</ele>
        <time>2021-11-20T09:53:46.415Z</time>
      </trkpt>
      <trkpt lat="47.526502" lon="8.214733">
        <ele>364.374121</ele>
        <time>2021-11-20T09:53:51.052Z</time>
      </trkpt>
      <trkpt lat="47.526641" lon="8.214751">
        <ele>364.469323</ele>
        <time>2021-11-20T09:53:54.366Z</time>
      </trkpt>
      <trkpt lat="47.526739" lon="8.214765">
        <ele>364.536499</ele>
        <time>2021-11-20T09:53:56.580Z</time>
      </trkpt>
      <trkpt lat="47.526916" lon="8.214741">
        <ele>364.657773</ele>
        <time>2021-11-20T09:53:59.774Z</time>
      </trkpt>
      <trkpt lat="47.527002" lon="8.214709">
        <ele>364.718275</ele>
        <time>2021-11-20T09:54:01.889Z</time>
      </trkpt>
      <trkpt lat="47.527076" lon="8.214681">
        <ele>364.770387</ele>
        <time>2021-11-20T09:54:03.558Z</time>
      </trkpt>
      <trkpt lat="47.527165" lon="8.214656">
        <ele>364.832195</ele>
        <time>2021-11-20T09:54:04.960Z</time>
      </trkpt>
      <trkpt lat="47.527726" lon="8.214669">
        <ele>365.215016</ele>
        <time>2021-11-20T09:54:13.790Z</time>
      </trkpt>
      <trkpt lat="47.527783" lon="8.214687">
        <ele>365.254781</ele>
        <time>2021-11-20T09:54:14.818Z</time>
      </trkpt>
      <trkpt lat="47.527842" lon="8.214703">
        <ele>365.295707</ele>
        <time>2021-11-20T09:54:15.526Z</time>
      </trkpt>
      <trkpt lat="47.528167" lon="8.214795">
        <ele>365.168485</ele>
        <time>2021-11-20T09:54:19.674Z</time>
      </trkpt>
      <trkpt lat="47.528300" lon="8.214825">
        <ele>364.907693</ele>
        <time>2021-11-20T09:54:21.191Z</time>
      </trkpt>
      <trkpt lat="47.528576" lon="8.214879">
        <ele>364.368022</ele>
        <time>2021-11-20T09:54:24.447Z</time>
      </trkpt>
      <trkpt lat="47.528709" lon="8.214919">
        <ele>364.104941</ele>
        <time>2021-11-20T09:54:25.966Z</time>
      </trkpt>
      <trkpt lat="47.528765" lon="8.214954">
        <ele>363.987115</ele>
        <time>2021-11-20T09:54:26.611Z</time>
      </trkpt>
      <trkpt lat="47.528804" lon="8.214984">
        <ele>363.901924</ele>
        <time>2021-11-20T09:54:27.135Z</time>
      </trkpt>
      <trkpt lat="47.528920" lon="8.215103">
        <ele>363.628382</ele>
        <time>2021-11-20T09:54:28.690Z</time>
      </trkpt>
      <trkpt lat="47.529070" lon="8.215245">
        <ele>363.283282</ele>
        <time>2021-11-20T09:54:30.599Z</time>
      </trkpt>
      <trkpt lat="47.529574" lon="8.215766">
        <ele>362.091830</ele>
        <time>2021-11-20T09:54:37.115Z</time>
      </trkpt>
      <trkpt lat="47.529546" lon="8.215816">
        <ele>362.006807</ele>
        <time>2021-11-20T09:54:37.781Z</time>
      </trkpt>
      <trkpt lat="47.529647" lon="8.215927">
        <ele>361.665687</ele>
        <time>2021-11-20T09:54:39.066Z</time>
      </trkpt>
      <trkpt lat="47.529917" lon="8.216206">
        <ele>360.682312</ele>
        <time>2021-11-20T09:54:42.438Z</time>
      </trkpt>
      <trkpt lat="47.530335" lon="8.216643">
        <ele>359.154035</ele>
        <time>2021-11-20T09:54:47.601Z</time>
      </trkpt>
      <trkpt lat="47.531079" lon="8.217387">
        <ele>356.481559</ele>
        <time>2021-11-20T09:54:56.863Z</time>
      </trkpt>
      <trkpt lat="47.531191" lon="8.217513">
        <ele>356.099873</ele>
        <time>2021-11-20T09:54:58.254Z</time>
      </trkpt>
      <trkpt lat="47.531434" lon="8.217769">
        <ele>355.290611</ele>
        <time>2021-11-20T09:55:01.338Z</time>
      </trkpt>
      <trkpt lat="47.531589" lon="8.217911">
        <ele>354.796007</ele>
        <time>2021-11-20T09:55:03.241Z</time>
      </trkpt>
      <trkpt lat="47.531757" lon="8.218076">
        <ele>354.248957</ele>
        <time>2021-11-20T09:55:05.281Z</time>
      </trkpt>
      <trkpt lat="47.532276" lon="8.218479">
        <ele>352.658673</ele>
        <time>2021-11-20T09:55:11.406Z</time>
      </trkpt>
      <trkpt lat="47.533201" lon="8.219133">
        <ele>350.384758</ele>
        <time>2021-11-20T09:55:22.431Z</time>
      </trkpt>
      <trkpt lat="47.533898" lon="8.219625">
        <ele>348.876411</ele>
        <time>2021-11-20T09:55:30.973Z</time>
      </trkpt>
      <trkpt lat="47.534704" lon="8.220188">
        <ele>347.679661</ele>
        <time>2021-11-20T09:55:41.143Z</time>
      </trkpt>
      <trkpt lat="47.535135" lon="8.220489">
        <ele>347.235786</ele>
        <time>2021-11-20T09:55:46.924Z</time>
      </trkpt>
      <trkpt lat="47.535590" lon="8.220736">
        <ele>346.784375</ele>
        <time>2021-11-20T09:55:53.332Z</time>
      </trkpt>
      <trkpt lat="47.536145" lon="8.220920">
        <ele>346.424098</ele>
        <time>2021-11-20T09:56:01.315Z</time>
      </trkpt>
      <trkpt lat="47.537169" lon="8.221092">
        <ele>346.126854</ele>
        <time>2021-11-20T09:56:16.353Z</time>
      </trkpt>
      <trkpt lat="47.537894" lon="8.221353">
        <ele>345.750612</ele>
        <time>2021-11-20T09:56:26.224Z</time>
      </trkpt>
      <trkpt lat="47.538091" lon="8.221429">
        <ele>345.556204</ele>
        <time>2021-11-20T09:56:28.881Z</time>
      </trkpt>
      <trkpt lat="47.538335" lon="8.221582">
        <ele>345.303170</ele>
        <time>2021-11-20T09:56:32.086Z</time>
      </trkpt>
      <trkpt lat="47.538836" lon="8.221915">
        <ele>344.778765</ele>
        <time>2021-11-20T09:56:38.741Z</time>
      </trkpt>
      <trkpt lat="47.539553" lon="8.222532">
        <ele>343.988106</ele>
        <time>2021-11-20T09:56:48.414Z</time>
      </trkpt>
      <trkpt lat="47.540369" lon="8.223287">
        <ele>343.073370</ele>
        <time>2021-11-20T09:57:00.392Z</time>
      </trkpt>
      <trkpt lat="47.540702" lon="8.223598">
        <ele>342.699090</ele>
        <time>2021-11-20T09:57:05.333Z</time>
      </trkpt>
      <trkpt lat="47.540939" lon="8.223830">
        <ele>342.480006</ele>
        <time>2021-11-20T09:57:08.903Z</time>
      </trkpt>
      <trkpt lat="47.541106" lon="8.224007">
        <ele>342.364711</ele>
        <time>2021-11-20T09:57:11.559Z</time>
      </trkpt>
      <trkpt lat="47.541314" lon="8.224262">
        <ele>342.213117</ele>
        <time>2021-11-20T09:57:15.007Z</time>
      </trkpt>
      <trkpt lat="47.541615" lon="8.224683">
        <ele>341.980685</ele>
        <time>2021-11-20T09:57:20.435Z</time>
      </trkpt>
      <trkpt lat="47.541905" lon="8.225076">
        <ele>341.760002</ele>
        <time>2021-11-20T09:57:25.686Z</time>
      </trkpt>
      <trkpt lat="47.542339" lon="8.225556">
        <ele>341.541891</ele>
        <time>2021-11-20T09:57:32.904Z</time>
      </trkpt>
      <trkpt lat="47.542675" lon="8.225835">
        <ele>341.537488</ele>
        <time>2021-11-20T09:57:38.217Z</time>
      </trkpt>
      <trkpt lat="47.543224" lon="8.226123">
        <ele>341.530831</ele>
        <time>2021-11-20T09:57:47.207Z</time>
      </trkpt>
      <trkpt lat="47.543628" lon="8.226150">
        <ele>341.526209</ele>
        <time>2021-11-20T09:57:53.103Z</time>
      </trkpt>
      <trkpt lat="47.544359" lon="8.225854">
        <ele>342.477519</ele>
        <time>2021-11-20T09:58:05.090Z</time>
      </trkpt>
      <trkpt lat="47.544597" lon="8.225751">
        <ele>342.962929</ele>
        <time>2021-11-20T09:58:10.165Z</time>
      </trkpt>
      <trkpt lat="47.544717" lon="8.225708">
        <ele>343.204629</ele>
        <time>2021-11-20T09:58:11.574Z</time>
      </trkpt>
      <trkpt lat="47.544857" lon="8.225678">
        <ele>343.481561</ele>
        <time>2021-11-20T09:58:14.781Z</time>
      </trkpt>
      <trkpt lat="47.546165" lon="8.225392">
        <ele>348.646761</ele>
        <time>2021-11-20T09:58:53.547Z</time>
      </trkpt>
      <trkpt lat="47.546613" lon="8.225127">
        <ele>351.963750</ele>
        <time>2021-11-20T09:59:14.708Z</time>
      </trkpt>
      <trkpt lat="47.546772" lon="8.224974">
        <ele>353.267438</ele>
        <time>2021-11-20T09:59:23.071Z</time>
      </trkpt>
      <trkpt lat="47.546859" lon="8.224856">
        <ele>354.078502</ele>
        <time>2021-11-20T09:59:29.488Z</time>
      </trkpt>
      <trkpt lat="47.547338" lon="8.224029">
        <ele>359.404231</ele>
        <time>2021-11-20T10:00:07.465Z</time>
      </trkpt>
      <trkpt lat="47.547411" lon="8.223924">
        <ele>360.212560</ele>
        <time>2021-11-20T10:00:13.158Z</time>
      </trkpt>
      <trkpt lat="47.547732" lon="8.223468">
        <ele>363.745721</ele>
        <time>2021-11-20T10:00:37.628Z</time>
      </trkpt>
      <trkpt lat="47.548334" lon="8.222834">
        <ele>369.613670</ele>
        <time>2021-11-20T10:01:12.176Z</time>
      </trkpt>
      <trkpt lat="47.548684" lon="8.222552">
        <ele>371.883626</ele>
        <time>2021-11-20T10:01:26.352Z</time>
      </trkpt>
      <trkpt lat="47.548970" lon="8.222338">
        <ele>372.313388</ele>
        <time>2021-11-20T10:01:35.556Z</time>
      </trkpt>
      <trkpt lat="47.549193" lon="8.222263">
        <ele>372.620110</ele>
        <time>2021-11-20T10:01:40.995Z</time>
      </trkpt>
      <trkpt lat="47.549562" lon="8.222437">
        <ele>373.139516</ele>
        <time>2021-11-20T10:01:48.636Z</time>
      </trkpt>
      <trkpt lat="47.549713" lon="8.222604">
        <ele>373.392259</ele>
        <time>2021-11-20T10:01:51.299Z</time>
      </trkpt>
      <trkpt lat="47.549968" lon="8.222820">
        <ele>373.786247</ele>
        <time>2021-11-20T10:01:55.425Z</time>
      </trkpt>
      <trkpt lat="47.550016" lon="8.222861">
        <ele>373.860563</ele>
        <time>2021-11-20T10:01:57.051Z</time>
      </trkpt>
      <trkpt lat="47.550289" lon="8.222964">
        <ele>373.782755</ele>
        <time>2021-11-20T10:02:06.229Z</time>
      </trkpt>
      <trkpt lat="47.550503" lon="8.222940">
        <ele>373.013796</ele>
        <time>2021-11-20T10:02:12.516Z</time>
      </trkpt>
      <trkpt lat="47.550582" lon="8.222873">
        <ele>372.687644</ele>
        <time>2021-11-20T10:02:15.168Z</time>
      </trkpt>
      <trkpt lat="47.550663" lon="8.222846">
        <ele>372.390165</ele>
        <time>2021-11-20T10:02:16.072Z</time>
      </trkpt>
      <trkpt lat="47.551205" lon="8.222672">
        <ele>370.403106</ele>
        <time>2021-11-20T10:02:21.445Z</time>
      </trkpt>
      <trkpt lat="47.551523" lon="8.222612">
        <ele>369.254505</ele>
        <time>2021-11-20T10:02:24.534Z</time>
      </trkpt>
      <trkpt lat="47.551809" lon="8.222569">
        <ele>368.224499</ele>
        <time>2021-11-20T10:02:27.367Z</time>
      </trkpt>
      <trkpt lat="47.551881" lon="8.222551">
        <ele>367.962876</ele>
        <time>2021-11-20T10:02:28.048Z</time>
      </trkpt>
      <trkpt lat="47.552233" lon="8.222369">
        <ele>366.403038</ele>
        <time>2021-11-20T10:02:31.639Z</time>
      </trkpt>
      <trkpt lat="47.552683" lon="8.221984">
        <ele>364.141151</ele>
        <time>2021-11-20T10:02:36.710Z</time>
      </trkpt>
      <trkpt lat="47.553010" lon="8.221790">
        <ele>362.607903</ele>
        <time>2021-11-20T10:02:40.089Z</time>
      </trkpt>
      <trkpt lat="47.553130" lon="8.221748">
        <ele>362.071185</ele>
        <time>2021-11-20T10:02:41.216Z</time>
      </trkpt>
      <trkpt lat="47.553268" lon="8.221727">
        <ele>361.467330</ele>
        <time>2021-11-20T10:02:42.520Z</time>
      </trkpt>
      <trkpt lat="47.553377" lon="8.221719">
        <ele>360.992287</ele>
        <time>2021-11-20T10:02:43.596Z</time>
      </trkpt>
      <trkpt lat="47.553475" lon="8.221719">
        <ele>360.565707</ele>
        <time>2021-11-20T10:02:44.504Z</time>
      </trkpt>
      <trkpt lat="47.553815" lon="8.221828">
        <ele>359.417705</ele>
        <time>2021-11-20T10:02:47.900Z</time>
      </trkpt>
      <trkpt lat="47.553938" lon="8.221892">
        <ele>359.113634</ele>
        <time>2021-11-20T10:02:49.165Z</time>
      </trkpt>
      <trkpt lat="47.554094" lon="8.222019">
        <ele>358.698461</ele>
        <time>2021-11-20T10:02:50.916Z</time>
      </trkpt>
      <trkpt lat="47.554387" lon="8.222356">
        <ele>357.833307</ele>
        <time>2021-11-20T10:02:54.744Z</time>
      </trkpt>
      <trkpt lat="47.554538" lon="8.222570">
        <ele>357.345935</ele>
        <time>2021-11-20T10:02:56.864Z</time>
      </trkpt>
      <trkpt lat="47.554840" lon="8.222959">
        <ele>356.412571</ele>
        <time>2021-11-20T10:03:01.886Z</time>
      </trkpt>
      <trkpt lat="47.554956" lon="8.223063">
        <ele>356.096328</ele>
        <time>2021-11-20T10:03:03.944Z</time>
      </trkpt>
      <trkpt lat="47.555172" lon="8.223232">
        <ele>355.712281</ele>
        <time>2021-11-20T10:03:07.223Z</time>
      </trkpt>
      <trkpt lat="47.555201" lon="8.223251">
        <ele>355.754126</ele>
        <time>2021-11-20T10:03:07.544Z</time>
      </trkpt>
      <trkpt lat="47.555323" lon="8.223308">
        <ele>355.922943</ele>
        <time>2021-11-20T10:03:10.043Z</time>
      </trkpt>
      <trkpt lat="47.555417" lon="8.223335">
        <ele>356.049304</ele>
        <time>2021-11-20T10:03:11.161Z</time>
      </trkpt>
      <trkpt lat="47.555471" lon="8.223330">
        <ele>356.120707</ele>
        <time>2021-11-20T10:03:11.818Z</time>
      </trkpt>
      <trkpt lat="47.555524" lon="8.223302">
        <ele>356.194963</ele>
        <time>2021-11-20T10:03:13.197Z</time>
      </trkpt>
      <trkpt lat="47.555875" lon="8.222876">
        <ele>356.793726</ele>
        <time>2021-11-20T10:03:20.381Z</time>
      </trkpt>
      <trkpt lat="47.555913" lon="8.222849">
        <ele>356.849342</ele>
        <time>2021-11-20T10:03:21.965Z</time>
      </trkpt>
      <trkpt lat="47.555963" lon="8.222823">
        <ele>356.919272</ele>
        <time>2021-11-20T10:03:22.981Z</time>
      </trkpt>
      <trkpt lat="47.556243" lon="8.222800">
        <ele>357.289355</ele>
        <time>2021-11-20T10:03:28.659Z</time>
      </trkpt>
      <trkpt lat="47.556390" lon="8.222682">
        <ele>357.509987</ele>
        <time>2021-11-20T10:03:32.167Z</time>
      </trkpt>
      <trkpt lat="47.556644" lon="8.222472">
        <ele>357.893837</ele>
        <time>2021-11-20T10:03:39.982Z</time>
      </trkpt>
      <trkpt lat="47.556836" lon="8.222326">
        <ele>358.530714</ele>
        <time>2021-11-20T10:03:45.583Z</time>
      </trkpt>
      <trkpt lat="47.556961" lon="8.222247">
        <ele>359.105208</ele>
        <time>2021-11-20T10:03:51.113Z</time>
      </trkpt>
      <trkpt lat="47.557017" lon="8.222237">
        <ele>359.343660</ele>
        <time>2021-11-20T10:03:52.104Z</time>
      </trkpt>
      <trkpt lat="47.557036" lon="8.222089">
        <ele>359.773469</ele>
        <time>2021-11-20T10:03:55.464Z</time>
      </trkpt>
      <trkpt lat="47.557149" lon="8.221660">
        <ele>361.087307</ele>
        <time>2021-11-20T10:04:06.751Z</time>
      </trkpt>
      <trkpt lat="47.557131" lon="8.221181">
        <ele>362.455984</ele>
        <time>2021-11-20T10:04:18.964Z</time>
      </trkpt>
      <trkpt lat="47.557201" lon="8.221053">
        <ele>362.926012</ele>
        <time>2021-11-20T10:04:23.499Z</time>
      </trkpt>
      <trkpt lat="47.557217" lon="8.220436">
        <ele>364.687575</ele>
        <time>2021-11-20T10:04:36.572Z</time>
      </trkpt>
      <trkpt lat="47.557232" lon="8.220234">
        <ele>365.267347</ele>
        <time>2021-11-20T10:04:41.919Z</time>
      </trkpt>
      <trkpt lat="47.557311" lon="8.219803">
        <ele>367.134213</ele>
        <time>2021-11-20T10:04:51.738Z</time>
      </trkpt>
      <trkpt lat="47.557402" lon="8.219301">
        <ele>369.573658</ele>
        <time>2021-11-20T10:05:05.495Z</time>
      </trkpt>
      <trkpt lat="47.557493" lon="8.219039">
        <ele>370.956542</ele>
        <time>2021-11-20T10:05:14.791Z</time>
      </trkpt>
      <trkpt lat="47.557622" lon="8.218765">
        <ele>372.524448</ele>
        <time>2021-11-20T10:05:24.691Z</time>
      </trkpt>
      <trkpt lat="47.557899" lon="8.218312">
        <ele>375.393318</ele>
        <time>2021-11-20T10:05:43.529Z</time>
      </trkpt>
      <trkpt lat="47.558059" lon="8.218080">
        <ele>376.950080</ele>
        <time>2021-11-20T10:05:52.864Z</time>
      </trkpt>
      <trkpt lat="47.558148" lon="8.217930">
        <ele>377.887429</ele>
        <time>2021-11-20T10:05:59.049Z</time>
      </trkpt>
      <trkpt lat="47.558314" lon="8.217673">
        <ele>380.211692</ele>
        <time>2021-11-20T10:06:09.653Z</time>
      </trkpt>
      <trkpt lat="47.559388" lon="8.215986">
        <ele>396.092563</ele>
        <time>2021-11-20T10:07:36.410Z</time>
      </trkpt>
      <trkpt lat="47.560092" lon="8.214533">
        <ele>412.028714</ele>
        <time>2021-11-20T10:09:03.206Z</time>
      </trkpt>
      <trkpt lat="47.560209" lon="8.214234">
        <ele>415.125214</ele>
        <time>2021-11-20T10:09:19.946Z</time>
      </trkpt>
      <trkpt lat="47.560326" lon="8.213975">
        <ele>417.917493</ele>
        <time>2021-11-20T10:09:34.429Z</time>
      </trkpt>
      <trkpt lat="47.560391" lon="8.213639">
        <ele>420.814346</ele>
        <time>2021-11-20T10:09:49.416Z</time>
      </trkpt>
      <trkpt lat="47.560313" lon="8.212539">
        <ele>427.775236</ele>
        <time>2021-11-20T10:10:35.559Z</time>
      </trkpt>
      <trkpt lat="47.560950" lon="8.209678">
        <ele>444.581272</ele>
        <time>2021-11-20T10:12:02.527Z</time>
      </trkpt>
      <trkpt lat="47.560993" lon="8.209183">
        <ele>447.024705</ele>
        <time>2021-11-20T10:12:17.422Z</time>
      </trkpt>
      <trkpt lat="47.561068" lon="8.208768">
        <ele>449.128074</ele>
        <time>2021-11-20T10:12:30.237Z</time>
      </trkpt>
      <trkpt lat="47.561220" lon="8.208326">
        <ele>451.692150</ele>
        <time>2021-11-20T10:12:45.234Z</time>
      </trkpt>
      <trkpt lat="47.561283" lon="8.208113">
        <ele>452.935375</ele>
        <time>2021-11-20T10:12:53.403Z</time>
      </trkpt>
      <trkpt lat="47.561455" lon="8.207688">
        <ele>455.584597</ele>
        <time>2021-11-20T10:13:10.299Z</time>
      </trkpt>
      <trkpt lat="47.562001" lon="8.206316">
        <ele>464.099383</ele>
        <time>2021-11-20T10:14:01.065Z</time>
      </trkpt>
      <trkpt lat="47.562023" lon="8.206210">
        <ele>464.474585</ele>
        <time>2021-11-20T10:14:06.046Z</time>
      </trkpt>
      <trkpt lat="47.562021" lon="8.206096">
        <ele>464.714615</ele>
        <time>2021-11-20T10:14:09.431Z</time>
      </trkpt>
      <trkpt lat="47.561941" lon="8.205497">
        <ele>465.999859</ele>
        <time>2021-11-20T10:14:24.795Z</time>
      </trkpt>
      <trkpt lat="47.561629" lon="8.204259">
        <ele>468.781436</ele>
        <time>2021-11-20T10:14:45.799Z</time>
      </trkpt>
      <trkpt lat="47.561618" lon="8.203867">
        <ele>469.607244</ele>
        <time>2021-11-20T10:14:50.815Z</time>
      </trkpt>
      <trkpt lat="47.561705" lon="8.203286">
        <ele>470.016879</ele>
        <time>2021-11-20T10:14:55.473Z</time>
      </trkpt>
      <trkpt lat="47.561710" lon="8.203127">
        <ele>470.043678</ele>
        <time>2021-11-20T10:14:56.661Z</time>
      </trkpt>
      <trkpt lat="47.561706" lon="8.203091">
        <ele>470.049821</ele>
        <time>2021-11-20T10:14:56.989Z</time>
      </trkpt>
      <trkpt lat="47.561687" lon="8.203046">
        <ele>470.058758</ele>
        <time>2021-11-20T10:14:57.481Z</time>
      </trkpt>
      <trkpt lat="47.561615" lon="8.202944">
        <ele>470.083610</ele>
        <time>2021-11-20T10:14:58.615Z</time>
      </trkpt>
      <trkpt lat="47.560811" lon="8.202521">
        <ele>470.296479</ele>
        <time>2021-11-20T10:15:11.174Z</time>
      </trkpt>
      <trkpt lat="47.560406" lon="8.202304">
        <ele>470.579397</ele>
        <time>2021-11-20T10:15:18.673Z</time>
      </trkpt>
      <trkpt lat="47.560146" lon="8.202186">
        <ele>471.675466</ele>
        <time>2021-11-20T10:15:24.639Z</time>
      </trkpt>
      <trkpt lat="47.558977" lon="8.201682">
        <ele>476.582908</ele>
        <time>2021-11-20T10:16:06.018Z</time>
      </trkpt>
      <trkpt lat="47.558421" lon="8.201339">
        <ele>478.777908</ele>
        <time>2021-11-20T10:16:28.808Z</time>
      </trkpt>
      <trkpt lat="47.558035" lon="8.201053">
        <ele>480.221711</ele>
        <time>2021-11-20T10:16:42.215Z</time>
      </trkpt>
      <trkpt lat="47.557784" lon="8.200856">
        <ele>481.171953</ele>
        <time>2021-11-20T10:16:50.446Z</time>
      </trkpt>
      <trkpt lat="47.557691" lon="8.200774">
        <ele>481.534000</ele>
        <time>2021-11-20T10:16:53.080Z</time>
      </trkpt>
      <trkpt lat="47.557552" lon="8.200669">
        <ele>482.055965</ele>
        <time>2021-11-20T10:16:57.239Z</time>
      </trkpt>
      <trkpt lat="47.557430" lon="8.200540">
        <ele>482.557377</ele>
        <time>2021-11-20T10:17:00.926Z</time>
      </trkpt>
      <trkpt lat="47.557334" lon="8.200428">
        <ele>482.966145</ele>
        <time>2021-11-20T10:17:03.687Z</time>
      </trkpt>
      <trkpt lat="47.557205" lon="8.200225">
        <ele>483.595678</ele>
        <time>2021-11-20T10:17:07.915Z</time>
      </trkpt>
      <trkpt lat="47.557137" lon="8.200104">
        <ele>483.660148</ele>
        <time>2021-11-20T10:17:09.336Z</time>
      </trkpt>
      <trkpt lat="47.556996" lon="8.199834">
        <ele>483.661047</ele>
        <time>2021-11-20T10:17:14.384Z</time>
      </trkpt>
      <trkpt lat="47.556900" lon="8.199446">
        <ele>483.662136</ele>
        <time>2021-11-20T10:17:18.063Z</time>
      </trkpt>
      <trkpt lat="47.556796" lon="8.198264">
        <ele>483.665278</ele>
        <time>2021-11-20T10:17:27.992Z</time>
      </trkpt>
      <trkpt lat="47.556772" lon="8.198055">
        <ele>483.665837</ele>
        <time>2021-11-20T10:17:29.499Z</time>
      </trkpt>
      <trkpt lat="47.556748" lon="8.197841">
        <ele>483.666408</ele>
        <time>2021-11-20T10:17:31.826Z</time>
      </trkpt>
      <trkpt lat="47.556638" lon="8.197165">
        <ele>484.834784</ele>
        <time>2021-11-20T10:17:39.727Z</time>
      </trkpt>
      <trkpt lat="47.556591" lon="8.196968">
        <ele>485.291099</ele>
        <time>2021-11-20T10:17:42.356Z</time>
      </trkpt>
      <trkpt lat="47.556528" lon="8.196622">
        <ele>486.073738</ele>
        <time>2021-11-20T10:17:49.696Z</time>
      </trkpt>
      <trkpt lat="47.556399" lon="8.195781">
        <ele>487.957222</ele>
        <time>2021-11-20T10:18:07.119Z</time>
      </trkpt>
      <trkpt lat="47.556344" lon="8.195472">
        <ele>488.655117</ele>
        <time>2021-11-20T10:18:14.704Z</time>
      </trkpt>
      <trkpt lat="47.556288" lon="8.195240">
        <ele>489.193211</ele>
        <time>2021-11-20T10:18:21.110Z</time>
      </trkpt>
      <trkpt lat="47.556195" lon="8.194867">
        <ele>490.576293</ele>
        <time>2021-11-20T10:18:30.647Z</time>
      </trkpt>
      <trkpt lat="47.556186" lon="8.194810">
        <ele>490.818702</ele>
        <time>2021-11-20T10:18:32.077Z</time>
      </trkpt>
      <trkpt lat="47.556174" lon="8.194671">
        <ele>491.398986</ele>
        <time>2021-11-20T10:18:36.991Z</time>
      </trkpt>
      <trkpt lat="47.556236" lon="8.193764">
        <ele>495.174056</ele>
        <time>2021-11-20T10:19:00.136Z</time>
      </trkpt>
      <trkpt lat="47.556160" lon="8.193308">
        <ele>497.119065</ele>
        <time>2021-11-20T10:19:13.294Z</time>
      </trkpt>
      <trkpt lat="47.556060" lon="8.193142">
        <ele>498.040489</ele>
        <time>2021-11-20T10:19:20.564Z</time>
      </trkpt>
      <trkpt lat="47.555387" lon="8.192835">
        <ele>502.136153</ele>
        <time>2021-11-20T10:19:49.099Z</time>
      </trkpt>
      <trkpt lat="47.555253" lon="8.192500">
        <ele>503.551213</ele>
        <time>2021-11-20T10:19:57.995Z</time>
      </trkpt>
      <trkpt lat="47.555272" lon="8.192046">
        <ele>505.204107</ele>
        <time>2021-11-20T10:20:09.299Z</time>
      </trkpt>
      <trkpt lat="47.555400" lon="8.191684">
        <ele>506.689136</ele>
        <time>2021-11-20T10:20:19.534Z</time>
      </trkpt>
      <trkpt lat="47.555460" lon="8.191506">
        <ele>507.412134</ele>
        <time>2021-11-20T10:20:24.471Z</time>
      </trkpt>
      <trkpt lat="47.555518" lon="8.191375">
        <ele>507.981449</ele>
        <time>2021-11-20T10:20:28.818Z</time>
      </trkpt>
      <trkpt lat="47.555541" lon="8.191025">
        <ele>509.259272</ele>
        <time>2021-11-20T10:20:36.441Z</time>
      </trkpt>
      <trkpt lat="47.555427" lon="8.190288">
        <ele>510.948150</ele>
        <time>2021-11-20T10:20:53.083Z</time>
      </trkpt>
      <trkpt lat="47.555306" lon="8.189411">
        <ele>512.286380</ele>
        <time>2021-11-20T10:21:10.318Z</time>
      </trkpt>
      <trkpt lat="47.555232" lon="8.189014">
        <ele>512.902116</ele>
        <time>2021-11-20T10:21:17.301Z</time>
      </trkpt>
      <trkpt lat="47.554918" lon="8.187967">
        <ele>513.507265</ele>
        <time>2021-11-20T10:21:28.447Z</time>
      </trkpt>
      <trkpt lat="47.554649" lon="8.187306">
        <ele>511.635332</ele>
        <time>2021-11-20T10:21:34.108Z</time>
      </trkpt>
      <trkpt lat="47.554406" lon="8.186763">
        <ele>510.055250</ele>
        <time>2021-11-20T10:21:38.408Z</time>
      </trkpt>
      <trkpt lat="47.554345" lon="8.186620">
        <ele>509.644980</ele>
        <time>2021-11-20T10:21:39.440Z</time>
      </trkpt>
      <trkpt lat="47.553554" lon="8.185834">
        <ele>505.075623</ele>
        <time>2021-11-20T10:21:48.219Z</time>
      </trkpt>
      <trkpt lat="47.553148" lon="8.185744">
        <ele>502.477462</ele>
        <time>2021-11-20T10:21:51.866Z</time>
      </trkpt>
      <trkpt lat="47.551744" lon="8.186087">
        <ele>494.835284</ele>
        <time>2021-11-20T10:22:04.843Z</time>
      </trkpt>
      <trkpt lat="47.550963" lon="8.186450">
        <ele>492.112899</ele>
        <time>2021-11-20T10:22:13.111Z</time>
      </trkpt>
      <trkpt lat="47.550753" lon="8.186536">
        <ele>491.388258</ele>
        <time>2021-11-20T10:22:15.484Z</time>
      </trkpt>
      <trkpt lat="47.550561" lon="8.186596">
        <ele>490.735625</ele>
        <time>2021-11-20T10:22:17.939Z</time>
      </trkpt>
      <trkpt lat="47.549645" lon="8.187060">
        <ele>490.510139</ele>
        <time>2021-11-20T10:22:32.672Z</time>
      </trkpt>
      <trkpt lat="47.549348" lon="8.187149">
        <ele>490.562074</ele>
        <time>2021-11-20T10:22:37.794Z</time>
      </trkpt>
      <trkpt lat="47.549060" lon="8.187116">
        <ele>490.611583</ele>
        <time>2021-11-20T10:22:43.160Z</time>
      </trkpt>
      <trkpt lat="47.548698" lon="8.187040">
        <ele>490.685638</ele>
        <time>2021-11-20T10:22:49.204Z</time>
      </trkpt>
      <trkpt lat="47.548449" lon="8.187002">
        <ele>490.918751</ele>
        <time>2021-11-20T10:22:52.970Z</time>
      </trkpt>
      <trkpt lat="47.548229" lon="8.186929">
        <ele>491.128707</ele>
        <time>2021-11-20T10:22:56.901Z</time>
      </trkpt>
      <trkpt lat="47.548192" lon="8.186871">
        <ele>491.178871</ele>
        <time>2021-11-20T10:22:57.619Z</time>
      </trkpt>
      <trkpt lat="47.548052" lon="8.186907">
        <ele>491.311198</ele>
        <time>2021-11-20T10:23:00.597Z</time>
      </trkpt>
      <trkpt lat="47.547919" lon="8.186917">
        <ele>491.435216</ele>
        <time>2021-11-20T10:23:03.053Z</time>
      </trkpt>
      <trkpt lat="47.547833" lon="8.186908">
        <ele>491.515505</ele>
        <time>2021-11-20T10:23:04.469Z</time>
      </trkpt>
      <trkpt lat="47.547688" lon="8.186873">
        <ele>491.652320</ele>
        <time>2021-11-20T10:23:07.727Z</time>
      </trkpt>
      <trkpt lat="47.547662" lon="8.186864">
        <ele>491.677185</ele>
        <time>2021-11-20T10:23:08.294Z</time>
      </trkpt>
      <trkpt lat="47.547530" lon="8.186777">
        <ele>491.811729</ele>
        <time>2021-11-20T10:23:10.790Z</time>
      </trkpt>
      <trkpt lat="47.547458" lon="8.186711">
        <ele>491.890577</ele>
        <time>2021-11-20T10:23:12.281Z</time>
      </trkpt>
      <trkpt lat="47.547308" lon="8.186546">
        <ele>492.064562</ele>
        <time>2021-11-20T10:23:16.116Z</time>
      </trkpt>
      <trkpt lat="47.547190" lon="8.186389">
        <ele>492.212262</ele>
        <time>2021-11-20T10:23:18.513Z</time>
      </trkpt>
      <trkpt lat="47.547154" lon="8.186335">
        <ele>492.259971</ele>
        <time>2021-11-20T10:23:19.683Z</time>
      </trkpt>
      <trkpt lat="47.547016" lon="8.186095">
        <ele>492.779704</ele>
        <time>2021-11-20T10:23:23.574Z</time>
      </trkpt>
      <trkpt lat="47.546993" lon="8.186066">
        <ele>492.888980</ele>
        <time>2021-11-20T10:23:24.195Z</time>
      </trkpt>
      <trkpt lat="47.546914" lon="8.186002">
        <ele>493.214759</ele>
        <time>2021-11-20T10:23:25.933Z</time>
      </trkpt>
      <trkpt lat="47.546791" lon="8.185915">
        <ele>493.707912</ele>
        <time>2021-11-20T10:23:29.250Z</time>
      </trkpt>
      <trkpt lat="47.546751" lon="8.185869">
        <ele>493.891124</ele>
        <time>2021-11-20T10:23:30.276Z</time>
      </trkpt>
      <trkpt lat="47.546713" lon="8.185804">
        <ele>494.101132</ele>
        <time>2021-11-20T10:23:31.361Z</time>
      </trkpt>
      <trkpt lat="47.546702" lon="8.185736">
        <ele>494.271906</ele>
        <time>2021-11-20T10:23:32.871Z</time>
      </trkpt>
      <trkpt lat="47.546710" lon="8.185525">
        <ele>494.788027</ele>
        <time>2021-11-20T10:23:36.653Z</time>
      </trkpt>
      <trkpt lat="47.546754" lon="8.184671">
        <ele>496.879751</ele>
        <time>2021-11-20T10:23:53.387Z</time>
      </trkpt>
      <trkpt lat="47.546713" lon="8.184384">
        <ele>497.596194</ele>
        <time>2021-11-20T10:24:00.801Z</time>
      </trkpt>
      <trkpt lat="47.546597" lon="8.184061">
        <ele>498.489738</ele>
        <time>2021-11-20T10:24:09.696Z</time>
      </trkpt>
      <trkpt lat="47.546552" lon="8.183986">
        <ele>498.734809</ele>
        <time>2021-11-20T10:24:13.386Z</time>
      </trkpt>
      <trkpt lat="47.546484" lon="8.183925">
        <ele>499.168753</ele>
        <time>2021-11-20T10:24:16.100Z</time>
      </trkpt>
      <trkpt lat="47.546418" lon="8.183901">
        <ele>499.628874</ele>
        <time>2021-11-20T10:24:18.136Z</time>
      </trkpt>
      <trkpt lat="47.546327" lon="8.183903">
        <ele>500.245064</ele>
        <time>2021-11-20T10:24:21.681Z</time>
      </trkpt>
      <trkpt lat="47.546078" lon="8.183925">
        <ele>501.933931</ele>
        <time>2021-11-20T10:24:32.600Z</time>
      </trkpt>
      <trkpt lat="47.545985" lon="8.183902">
        <ele>502.572307</ele>
        <time>2021-11-20T10:24:36.044Z</time>
      </trkpt>
      <trkpt lat="47.545828" lon="8.183838">
        <ele>503.674792</ele>
        <time>2021-11-20T10:24:43.556Z</time>
      </trkpt>
      <trkpt lat="47.545667" lon="8.183774">
        <ele>504.803412</ele>
        <time>2021-11-20T10:24:49.760Z</time>
      </trkpt>
      <trkpt lat="47.545614" lon="8.183745">
        <ele>505.185945</ele>
        <time>2021-11-20T10:24:51.755Z</time>
      </trkpt>
      <trkpt lat="47.545545" lon="8.183735">
        <ele>505.655345</ele>
        <time>2021-11-20T10:24:55.313Z</time>
      </trkpt>
      <trkpt lat="47.545370" lon="8.183783">
        <ele>506.860330</ele>
        <time>2021-11-20T10:25:02.657Z</time>
      </trkpt>
      <trkpt lat="47.545233" lon="8.183913">
        <ele>507.961859</ele>
        <time>2021-11-20T10:25:09.043Z</time>
      </trkpt>
      <trkpt lat="47.545189" lon="8.183981">
        <ele>508.392355</ele>
        <time>2021-11-20T10:25:12.645Z</time>
      </trkpt>
      <trkpt lat="47.545131" lon="8.184113">
        <ele>509.112172</ele>
        <time>2021-11-20T10:25:17.394Z</time>
      </trkpt>
      <trkpt lat="47.545071" lon="8.184309">
        <ele>510.095743</ele>
        <time>2021-11-20T10:25:23.554Z</time>
      </trkpt>
      <trkpt lat="47.545020" lon="8.184519">
        <ele>511.115320</ele>
        <time>2021-11-20T10:25:31.562Z</time>
      </trkpt>
      <trkpt lat="47.545007" lon="8.184603">
        <ele>511.507324</ele>
        <time>2021-11-20T10:25:34.452Z</time>
      </trkpt>
      <trkpt lat="47.544872" lon="8.185362">
        <ele>515.077640</ele>
        <time>2021-11-20T10:25:57.045Z</time>
      </trkpt>
      <trkpt lat="47.544810" lon="8.186087">
        <ele>518.401820</ele>
        <time>2021-11-20T10:26:18.531Z</time>
      </trkpt>
      <trkpt lat="47.544725" lon="8.186193">
        <ele>519.150533</ele>
        <time>2021-11-20T10:26:23.240Z</time>
      </trkpt>
      <trkpt lat="47.544619" lon="8.186213">
        <ele>519.870606</ele>
        <time>2021-11-20T10:26:26.799Z</time>
      </trkpt>
      <trkpt lat="47.544507" lon="8.186163">
        <ele>520.658866</ele>
        <time>2021-11-20T10:26:31.707Z</time>
      </trkpt>
      <trkpt lat="47.544424" lon="8.186024">
        <ele>521.503025</ele>
        <time>2021-11-20T10:26:36.576Z</time>
      </trkpt>
      <trkpt lat="47.544353" lon="8.185471">
        <ele>524.008477</ele>
        <time>2021-11-20T10:26:49.598Z</time>
      </trkpt>
      <trkpt lat="47.544212" lon="8.184972">
        <ele>526.320263</ele>
        <time>2021-11-20T10:27:04.250Z</time>
      </trkpt>
      <trkpt lat="47.544138" lon="8.184789">
        <ele>527.231908</ele>
        <time>2021-11-20T10:27:10.855Z</time>
      </trkpt>
      <trkpt lat="47.544044" lon="8.184606">
        <ele>528.214644</ele>
        <time>2021-11-20T10:27:17.450Z</time>
      </trkpt>
      <trkpt lat="47.543634" lon="8.183625">
        <ele>533.145517</ele>
        <time>2021-11-20T10:27:49.054Z</time>
      </trkpt>
      <trkpt lat="47.543590" lon="8.183476">
        <ele>533.840545</ele>
        <time>2021-11-20T10:27:54.535Z</time>
      </trkpt>
      <trkpt lat="47.543565" lon="8.183342">
        <ele>534.434674</ele>
        <time>2021-11-20T10:27:58.296Z</time>
      </trkpt>
      <trkpt lat="47.543480" lon="8.182935">
        <ele>535.705619</ele>
        <time>2021-11-20T10:28:09.350Z</time>
      </trkpt>
      <trkpt lat="47.543406" lon="8.182573">
        <ele>536.804004</ele>
        <time>2021-11-20T10:28:18.091Z</time>
      </trkpt>
      <trkpt lat="47.543392" lon="8.182519">
        <ele>536.971987</ele>
        <time>2021-11-20T10:28:20.573Z</time>
      </trkpt>
      <trkpt lat="47.543096" lon="8.180990">
        <ele>541.591171</ele>
        <time>2021-11-20T10:28:55.639Z</time>
      </trkpt>
      <trkpt lat="47.543154" lon="8.180425">
        <ele>541.802485</ele>
        <time>2021-11-20T10:29:03.082Z</time>
      </trkpt>
      <trkpt lat="47.543305" lon="8.179775">
        <ele>540.827485</ele>
        <time>2021-11-20T10:29:08.577Z</time>
      </trkpt>
      <trkpt lat="47.543357" lon="8.179586">
        <ele>540.538004</ele>
        <time>2021-11-20T10:29:10.549Z</time>
      </trkpt>
      <trkpt lat="47.543396" lon="8.179405">
        <ele>540.268521</ele>
        <time>2021-11-20T10:29:11.826Z</time>
      </trkpt>
      <trkpt lat="47.543458" lon="8.179101">
        <ele>539.818091</ele>
        <time>2021-11-20T10:29:14.050Z</time>
      </trkpt>
      <trkpt lat="47.543472" lon="8.179027">
        <ele>539.709089</ele>
        <time>2021-11-20T10:29:17.683Z</time>
      </trkpt>
      <trkpt lat="47.543492" lon="8.178872">
        <ele>539.485264</ele>
        <time>2021-11-20T10:29:18.609Z</time>
      </trkpt>
      <trkpt lat="47.543620" lon="8.176594">
        <ele>531.924879</ele>
        <time>2021-11-20T10:29:33.000Z</time>
      </trkpt>
      <trkpt lat="47.543596" lon="8.176496">
        <ele>531.493916</ele>
        <time>2021-11-20T10:29:33.667Z</time>
      </trkpt>
      <trkpt lat="47.543542" lon="8.176433">
        <ele>531.072976</ele>
        <time>2021-11-20T10:29:34.234Z</time>
      </trkpt>
      <trkpt lat="47.543498" lon="8.176425">
        <ele>530.801495</ele>
        <time>2021-11-20T10:29:34.644Z</time>
      </trkpt>
      <trkpt lat="47.543322" lon="8.176586">
        <ele>529.534723</ele>
        <time>2021-11-20T10:29:36.653Z</time>
      </trkpt>
      <trkpt lat="47.543074" lon="8.177090">
        <ele>526.737771</ele>
        <time>2021-11-20T10:29:40.367Z</time>
      </trkpt>
      <trkpt lat="47.542588" lon="8.177199">
        <ele>522.478824</ele>
        <time>2021-11-20T10:29:44.707Z</time>
      </trkpt>
      <trkpt lat="47.542522" lon="8.177193">
        <ele>521.905890</ele>
        <time>2021-11-20T10:29:45.326Z</time>
      </trkpt>
      <trkpt lat="47.542435" lon="8.177076">
        <ele>520.887786</ele>
        <time>2021-11-20T10:29:46.335Z</time>
      </trkpt>
      <trkpt lat="47.542415" lon="8.176968">
        <ele>520.232762</ele>
        <time>2021-11-20T10:29:46.975Z</time>
      </trkpt>
      <trkpt lat="47.542461" lon="8.176828">
        <ele>519.322062</ele>
        <time>2021-11-20T10:29:47.904Z</time>
      </trkpt>
      <trkpt lat="47.542728" lon="8.176498">
        <ele>516.309189</ele>
        <time>2021-11-20T10:29:50.939Z</time>
      </trkpt>
      <trkpt lat="47.542789" lon="8.176356">
        <ele>515.324733</ele>
        <time>2021-11-20T10:29:51.954Z</time>
      </trkpt>
      <trkpt lat="47.542818" lon="8.176268">
        <ele>514.751971</ele>
        <time>2021-11-20T10:29:52.507Z</time>
      </trkpt>
      <trkpt lat="47.542897" lon="8.175386">
        <ele>509.840980</ele>
        <time>2021-11-20T10:29:57.733Z</time>
      </trkpt>
      <trkpt lat="47.542928" lon="8.174898">
        <ele>507.331332</ele>
        <time>2021-11-20T10:30:00.581Z</time>
      </trkpt>
      <trkpt lat="47.542958" lon="8.174430">
        <ele>504.924347</ele>
        <time>2021-11-20T10:30:03.318Z</time>
      </trkpt>
      <trkpt lat="47.543005" lon="8.173666">
        <ele>500.996386</ele>
        <time>2021-11-20T10:30:07.982Z</time>
      </trkpt>
      <trkpt lat="47.542942" lon="8.173427">
        <ele>499.682693</ele>
        <time>2021-11-20T10:30:09.563Z</time>
      </trkpt>
      <trkpt lat="47.542804" lon="8.173437">
        <ele>498.634725</ele>
        <time>2021-11-20T10:30:10.929Z</time>
      </trkpt>
      <trkpt lat="47.542515" lon="8.174031">
        <ele>496.025415</ele>
        <time>2021-11-20T10:30:16.020Z</time>
      </trkpt>
      <trkpt lat="47.542421" lon="8.174181">
        <ele>495.331780</ele>
        <time>2021-11-20T10:30:17.276Z</time>
      </trkpt>
      <trkpt lat="47.542299" lon="8.174319">
        <ele>494.561148</ele>
        <time>2021-11-20T10:30:19.168Z</time>
      </trkpt>
      <trkpt lat="47.541677" lon="8.174964">
        <ele>490.749381</ele>
        <time>2021-11-20T10:30:26.359Z</time>
      </trkpt>
      <trkpt lat="47.541506" lon="8.174915">
        <ele>489.874975</ele>
        <time>2021-11-20T10:30:27.865Z</time>
      </trkpt>
      <trkpt lat="47.541486" lon="8.174716">
        <ele>489.163326</ele>
        <time>2021-11-20T10:30:29.174Z</time>
      </trkpt>
      <trkpt lat="47.541498" lon="8.174644">
        <ele>488.688159</ele>
        <time>2021-11-20T10:30:30.046Z</time>
      </trkpt>
      <trkpt lat="47.541583" lon="8.174150">
        <ele>485.421829</ele>
        <time>2021-11-20T10:30:33.073Z</time>
      </trkpt>
      <trkpt lat="47.541630" lon="8.173624">
        <ele>482.022278</ele>
        <time>2021-11-20T10:30:36.217Z</time>
      </trkpt>
      <trkpt lat="47.541680" lon="8.173272">
        <ele>479.717579</ele>
        <time>2021-11-20T10:30:38.269Z</time>
      </trkpt>
      <trkpt lat="47.541911" lon="8.172517">
        <ele>474.406536</ele>
        <time>2021-11-20T10:30:43.082Z</time>
      </trkpt>
      <trkpt lat="47.542048" lon="8.172212">
        <ele>472.071846</ele>
        <time>2021-11-20T10:30:45.148Z</time>
      </trkpt>
      <trkpt lat="47.542269" lon="8.171821">
        <ele>469.232471</ele>
        <time>2021-11-20T10:30:48.082Z</time>
      </trkpt>
      <trkpt lat="47.542400" lon="8.171599">
        <ele>467.590738</ele>
        <time>2021-11-20T10:30:49.851Z</time>
      </trkpt>
      <trkpt lat="47.542454" lon="8.171478">
        <ele>466.783118</ele>
        <time>2021-11-20T10:30:50.672Z</time>
      </trkpt>
      <trkpt lat="47.542881" lon="8.169924">
        <ele>457.441484</ele>
        <time>2021-11-20T10:31:00.849Z</time>
      </trkpt>
      <trkpt lat="47.543071" lon="8.169745">
        <ele>456.024790</ele>
        <time>2021-11-20T10:31:02.954Z</time>
      </trkpt>
      <trkpt lat="47.544202" lon="8.169104">
        <ele>448.571858</ele>
        <time>2021-11-20T10:31:14.140Z</time>
      </trkpt>
      <trkpt lat="47.544678" lon="8.168690">
        <ele>445.105269</ele>
        <time>2021-11-20T10:31:19.101Z</time>
      </trkpt>
      <trkpt lat="47.544873" lon="8.168362">
        <ele>443.172234</ele>
        <time>2021-11-20T10:31:21.753Z</time>
      </trkpt>
      <trkpt lat="47.545042" lon="8.167672">
        <ele>439.925953</ele>
        <time>2021-11-20T10:31:26.297Z</time>
      </trkpt>
      <trkpt lat="47.545100" lon="8.167448">
        <ele>438.864906</ele>
        <time>2021-11-20T10:31:27.734Z</time>
      </trkpt>
      <trkpt lat="47.545201" lon="8.167129">
        <ele>437.306610</ele>
        <time>2021-11-20T10:31:29.917Z</time>
      </trkpt>
      <trkpt lat="47.545260" lon="8.166987">
        <ele>436.569166</ele>
        <time>2021-11-20T10:31:30.906Z</time>
      </trkpt>
      <trkpt lat="47.545348" lon="8.166786">
        <ele>435.509617</ele>
        <time>2021-11-20T10:31:32.424Z</time>
      </trkpt>
      <trkpt lat="47.545453" lon="8.166595">
        <ele>434.428527</ele>
        <time>2021-11-20T10:31:33.900Z</time>
      </trkpt>
      <trkpt lat="47.545577" lon="8.166399">
        <ele>433.459732</ele>
        <time>2021-11-20T10:31:35.564Z</time>
      </trkpt>
      <trkpt lat="47.545768" lon="8.166102">
        <ele>431.980330</ele>
        <time>2021-11-20T10:31:38.051Z</time>
      </trkpt>
      <trkpt lat="47.546032" lon="8.165642">
        <ele>429.802810</ele>
        <time>2021-11-20T10:31:41.805Z</time>
      </trkpt>
      <trkpt lat="47.546204" lon="8.165321">
        <ele>428.324758</ele>
        <time>2021-11-20T10:31:44.459Z</time>
      </trkpt>
      <trkpt lat="47.546387" lon="8.165022">
        <ele>426.869183</ele>
        <time>2021-11-20T10:31:47.127Z</time>
      </trkpt>
      <trkpt lat="47.546441" lon="8.164907">
        <ele>426.363970</ele>
        <time>2021-11-20T10:31:48.013Z</time>
      </trkpt>
      <trkpt lat="47.546613" lon="8.164573">
        <ele>424.850358</ele>
        <time>2021-11-20T10:31:50.760Z</time>
      </trkpt>
      <trkpt lat="47.546850" lon="8.164022">
        <ele>423.007699</ele>
        <time>2021-11-20T10:31:54.972Z</time>
      </trkpt>
      <trkpt lat="47.546862" lon="8.163567">
        <ele>421.723503</ele>
        <time>2021-11-20T10:31:57.930Z</time>
      </trkpt>
      <trkpt lat="47.546835" lon="8.163363">
        <ele>421.137214</ele>
        <time>2021-11-20T10:31:59.257Z</time>
      </trkpt>
      <trkpt lat="47.546797" lon="8.163081">
        <ele>420.326207</ele>
        <time>2021-11-20T10:32:01.190Z</time>
      </trkpt>
      <trkpt lat="47.546790" lon="8.163024">
        <ele>420.162813</ele>
        <time>2021-11-20T10:32:01.562Z</time>
      </trkpt>
      <trkpt lat="47.546769" lon="8.162896">
        <ele>419.791309</ele>
        <time>2021-11-20T10:32:02.395Z</time>
      </trkpt>
      <trkpt lat="47.546748" lon="8.162622">
        <ele>419.013592</ele>
        <time>2021-11-20T10:32:04.249Z</time>
      </trkpt>
      <trkpt lat="47.546819" lon="8.162125">
        <ele>417.580873</ele>
        <time>2021-11-20T10:32:07.619Z</time>
      </trkpt>
      <trkpt lat="47.546981" lon="8.161773">
        <ele>416.781087</ele>
        <time>2021-11-20T10:32:10.440Z</time>
      </trkpt>
      <trkpt lat="47.547108" lon="8.161617">
        <ele>416.379949</ele>
        <time>2021-11-20T10:32:12.081Z</time>
      </trkpt>
      <trkpt lat="47.547207" lon="8.161521">
        <ele>416.092250</ele>
        <time>2021-11-20T10:32:13.212Z</time>
      </trkpt>
      <trkpt lat="47.547349" lon="8.161424">
        <ele>415.712041</ele>
        <time>2021-11-20T10:32:14.916Z</time>
      </trkpt>
      <trkpt lat="47.547470" lon="8.161331">
        <ele>415.380591</ele>
        <time>2021-11-20T10:32:16.276Z</time>
      </trkpt>
      <trkpt lat="47.547496" lon="8.161301">
        <ele>415.300461</ele>
        <time>2021-11-20T10:32:16.617Z</time>
      </trkpt>
      <trkpt lat="47.547517" lon="8.161278">
        <ele>415.236961</ele>
        <time>2021-11-20T10:32:16.877Z</time>
      </trkpt>
      <trkpt lat="47.547553" lon="8.161213">
        <ele>415.098965</ele>
        <time>2021-11-20T10:32:17.576Z</time>
      </trkpt>
      <trkpt lat="47.547597" lon="8.161255">
        <ele>414.971695</ele>
        <time>2021-11-20T10:32:18.157Z</time>
      </trkpt>
      <trkpt lat="47.547713" lon="8.161271">
        <ele>414.688420</ele>
        <time>2021-11-20T10:32:19.399Z</time>
      </trkpt>
      <trkpt lat="47.547763" lon="8.161258">
        <ele>414.564986</ele>
        <time>2021-11-20T10:32:19.920Z</time>
      </trkpt>
      <trkpt lat="47.547978" lon="8.161155">
        <ele>414.015558</ele>
        <time>2021-11-20T10:32:22.569Z</time>
      </trkpt>
      <trkpt lat="47.548340" lon="8.161015">
        <ele>413.105855</ele>
        <time>2021-11-20T10:32:27.069Z</time>
      </trkpt>
      <trkpt lat="47.548497" lon="8.160960">
        <ele>412.858171</ele>
        <time>2021-11-20T10:32:28.997Z</time>
      </trkpt>
      <trkpt lat="47.548672" lon="8.160912">
        <ele>412.672427</ele>
        <time>2021-11-20T10:32:31.065Z</time>
      </trkpt>
      <trkpt lat="47.549490" lon="8.160957">
        <ele>411.818125</ele>
        <time>2021-11-20T10:32:41.555Z</time>
      </trkpt>
      <trkpt lat="47.549617" lon="8.160942">
        <ele>411.685159</ele>
        <time>2021-11-20T10:32:44.001Z</time>
      </trkpt>
      <trkpt lat="47.549732" lon="8.160920">
        <ele>411.564142</ele>
        <time>2021-11-20T10:32:45.327Z</time>
      </trkpt>
      <trkpt lat="47.549905" lon="8.160854">
        <ele>411.377699</ele>
        <time>2021-11-20T10:32:47.723Z</time>
      </trkpt>
      <trkpt lat="47.549984" lon="8.160805">
        <ele>411.288316</ele>
        <time>2021-11-20T10:32:49.246Z</time>
      </trkpt>
      <trkpt lat="47.550099" lon="8.160724">
        <ele>411.155423</ele>
        <time>2021-11-20T10:32:50.569Z</time>
      </trkpt>
      <trkpt lat="47.550666" lon="8.160174">
        <ele>409.141320</ele>
        <time>2021-11-20T10:32:57.754Z</time>
      </trkpt>
      <trkpt lat="47.551164" lon="8.159529">
        <ele>407.044944</ele>
        <time>2021-11-20T10:33:04.284Z</time>
      </trkpt>
      <trkpt lat="47.551332" lon="8.159279">
        <ele>406.290301</ele>
        <time>2021-11-20T10:33:06.561Z</time>
      </trkpt>
      <trkpt lat="47.551447" lon="8.159096">
        <ele>405.755438</ele>
        <time>2021-11-20T10:33:08.250Z</time>
      </trkpt>
      <trkpt lat="47.551526" lon="8.158964">
        <ele>405.378396</ele>
        <time>2021-11-20T10:33:09.434Z</time>
      </trkpt>
      <trkpt lat="47.551653" lon="8.158711">
        <ele>404.724426</ele>
        <time>2021-11-20T10:33:11.562Z</time>
      </trkpt>
      <trkpt lat="47.551779" lon="8.158427">
        <ele>404.019516</ele>
        <time>2021-11-20T10:33:13.808Z</time>
      </trkpt>
      <trkpt lat="47.552174" lon="8.157599">
        <ele>401.916493</ele>
        <time>2021-11-20T10:33:20.646Z</time>
      </trkpt>
      <trkpt lat="47.552319" lon="8.157405">
        <ele>401.316113</ele>
        <time>2021-11-20T10:33:22.657Z</time>
      </trkpt>
      <trkpt lat="47.552683" lon="8.157162">
        <ele>400.089218</ele>
        <time>2021-11-20T10:33:26.981Z</time>
      </trkpt>
      <trkpt lat="47.552741" lon="8.157139">
        <ele>399.904707</ele>
        <time>2021-11-20T10:33:27.614Z</time>
      </trkpt>
      <trkpt lat="47.552966" lon="8.157085">
        <ele>399.465896</ele>
        <time>2021-11-20T10:33:30.181Z</time>
      </trkpt>
      <trkpt lat="47.553415" lon="8.156908">
        <ele>398.606184</ele>
        <time>2021-11-20T10:33:35.548Z</time>
      </trkpt>
      <trkpt lat="47.554024" lon="8.156353">
        <ele>397.283235</ele>
        <time>2021-11-20T10:33:43.760Z</time>
      </trkpt>
      <trkpt lat="47.555146" lon="8.156028">
        <ele>394.205744</ele>
        <time>2021-11-20T10:33:55.899Z</time>
      </trkpt>
      <trkpt lat="47.555483" lon="8.155879">
        <ele>393.096639</ele>
        <time>2021-11-20T10:33:59.532Z</time>
      </trkpt>
      <trkpt lat="47.555852" lon="8.155715">
        <ele>391.881701</ele>
        <time>2021-11-20T10:34:03.308Z</time>
      </trkpt>
      <trkpt lat="47.556361" lon="8.155432">
        <ele>389.967240</ele>
        <time>2021-11-20T10:34:08.624Z</time>
      </trkpt>
      <trkpt lat="47.556702" lon="8.155008">
        <ele>388.158993</ele>
        <time>2021-11-20T10:34:12.817Z</time>
      </trkpt>
      <trkpt lat="47.556982" lon="8.154756">
        <ele>386.828244</ele>
        <time>2021-11-20T10:34:15.990Z</time>
      </trkpt>
      <trkpt lat="47.557020" lon="8.154736">
        <ele>386.664436</ele>
        <time>2021-11-20T10:34:16.339Z</time>
      </trkpt>
      <trkpt lat="47.557234" lon="8.154662">
        <ele>385.771787</ele>
        <time>2021-11-20T10:34:18.553Z</time>
      </trkpt>
      <trkpt lat="47.557607" lon="8.154562">
        <ele>384.232020</ele>
        <time>2021-11-20T10:34:22.321Z</time>
      </trkpt>
      <trkpt lat="47.557909" lon="8.154469">
        <ele>383.188764</ele>
        <time>2021-11-20T10:34:25.437Z</time>
      </trkpt>
      <trkpt lat="47.557974" lon="8.154446">
        <ele>383.016143</ele>
        <time>2021-11-20T10:34:26.132Z</time>
      </trkpt>
      <trkpt lat="47.558498" lon="8.154242">
        <ele>381.616672</ele>
        <time>2021-11-20T10:34:31.651Z</time>
      </trkpt>
      <trkpt lat="47.558848" lon="8.154194">
        <ele>380.708729</ele>
        <time>2021-11-20T10:34:35.411Z</time>
      </trkpt>
      <trkpt lat="47.558924" lon="8.154185">
        <ele>380.511788</ele>
        <time>2021-11-20T10:34:36.193Z</time>
      </trkpt>
      <trkpt lat="47.558979" lon="8.154180">
        <ele>380.369452</ele>
        <time>2021-11-20T10:34:36.750Z</time>
      </trkpt>
      <trkpt lat="47.559032" lon="8.154178">
        <ele>380.232504</ele>
        <time>2021-11-20T10:34:37.309Z</time>
      </trkpt>
      <trkpt lat="47.559156" lon="8.154177">
        <ele>379.912196</ele>
        <time>2021-11-20T10:34:38.724Z</time>
      </trkpt>
      <trkpt lat="47.559284" lon="8.154179">
        <ele>379.581543</ele>
        <time>2021-11-20T10:34:40.050Z</time>
      </trkpt>
      <trkpt lat="47.559455" lon="8.154165">
        <ele>379.139162</ele>
        <time>2021-11-20T10:34:41.971Z</time>
      </trkpt>
      <trkpt lat="47.559591" lon="8.154124">
        <ele>378.820585</ele>
        <time>2021-11-20T10:34:43.574Z</time>
      </trkpt>
      <trkpt lat="47.559651" lon="8.154104">
        <ele>378.711152</ele>
        <time>2021-11-20T10:34:44.210Z</time>
      </trkpt>
      <trkpt lat="47.559698" lon="8.154088">
        <ele>378.625341</ele>
        <time>2021-11-20T10:34:44.747Z</time>
      </trkpt>
      <trkpt lat="47.559841" lon="8.154003">
        <ele>378.351176</ele>
        <time>2021-11-20T10:34:46.792Z</time>
      </trkpt>
      <trkpt lat="47.559905" lon="8.153956">
        <ele>378.224075</ele>
        <time>2021-11-20T10:34:47.662Z</time>
      </trkpt>
      <trkpt lat="47.559938" lon="8.153925">
        <ele>378.154550</ele>
        <time>2021-11-20T10:34:48.077Z</time>
      </trkpt>
      <trkpt lat="47.559990" lon="8.153866">
        <ele>378.038012</ele>
        <time>2021-11-20T10:34:48.762Z</time>
      </trkpt>
      <trkpt lat="47.560053" lon="8.153772">
        <ele>377.878928</ele>
        <time>2021-11-20T10:34:49.844Z</time>
      </trkpt>
      <trkpt lat="47.560153" lon="8.153582">
        <ele>377.589591</ele>
        <time>2021-11-20T10:34:51.866Z</time>
      </trkpt>
      <trkpt lat="47.560212" lon="8.153476">
        <ele>377.424597</ele>
        <time>2021-11-20T10:34:52.833Z</time>
      </trkpt>
      <trkpt lat="47.560330" lon="8.153256">
        <ele>377.087144</ele>
        <time>2021-11-20T10:34:59.055Z</time>
      </trkpt>
      <trkpt lat="47.560379" lon="8.153152">
        <ele>376.934836</ele>
        <time>2021-11-20T10:35:01.834Z</time>
      </trkpt>
      <trkpt lat="47.560422" lon="8.153030">
        <ele>376.769562</ele>
        <time>2021-11-20T10:35:04.625Z</time>
      </trkpt>
      <trkpt lat="47.560456" lon="8.152909">
        <ele>376.612175</ele>
        <time>2021-11-20T10:35:07.416Z</time>
      </trkpt>
      <trkpt lat="47.560547" lon="8.152508">
        <ele>376.104166</ele>
        <time>2021-11-20T10:35:16.362Z</time>
      </trkpt>
      <trkpt lat="47.560622" lon="8.152294">
        <ele>375.814611</ele>
        <time>2021-11-20T10:35:21.621Z</time>
      </trkpt>
      <trkpt lat="47.560668" lon="8.152171">
        <ele>375.652063</ele>
        <time>2021-11-20T10:35:24.658Z</time>
      </trkpt>
      <trkpt lat="47.560710" lon="8.152072">
        <ele>375.525787</ele>
        <time>2021-11-20T10:35:26.981Z</time>
      </trkpt>
      <trkpt lat="47.560747" lon="8.151985">
        <ele>375.414739</ele>
        <time>2021-11-20T10:35:29.104Z</time>
      </trkpt>
      <trkpt lat="47.560859" lon="8.151728">
        <ele>375.084379</ele>
        <time>2021-11-20T10:35:35.925Z</time>
      </trkpt>
      <trkpt lat="47.560916" lon="8.151600">
        <ele>374.918776</ele>
        <time>2021-11-20T10:35:39.024Z</time>
      </trkpt>
      <trkpt lat="47.561003" lon="8.151403">
        <ele>374.664542</ele>
        <time>2021-11-20T10:35:44.292Z</time>
      </trkpt>
      <trkpt lat="47.561109" lon="8.151163">
        <ele>374.354806</ele>
        <time>2021-11-20T10:35:50.467Z</time>
      </trkpt>
      <trkpt lat="47.561257" lon="8.150909">
        <ele>373.992429</ele>
        <time>2021-11-20T10:35:58.019Z</time>
      </trkpt>
      <trkpt lat="47.561352" lon="8.150768">
        <ele>373.777272</ele>
        <time>2021-11-20T10:36:02.281Z</time>
      </trkpt>
      <trkpt lat="47.561471" lon="8.150574">
        <ele>373.494171</ele>
        <time>2021-11-20T10:36:08.000Z</time>
      </trkpt>
      <trkpt lat="47.561512" lon="8.150470">
        <ele>373.364108</ele>
        <time>2021-11-20T10:36:10.708Z</time>
      </trkpt>
      <trkpt lat="47.561555" lon="8.150316">
        <ele>373.184141</ele>
        <time>2021-11-20T10:36:14.213Z</time>
      </trkpt>
      <trkpt lat="47.561767" lon="8.149503">
        <ele>372.547719</ele>
        <time>2021-11-20T10:36:33.724Z</time>
      </trkpt>
      <trkpt lat="47.561915" lon="8.148980">
        <ele>372.253129</ele>
        <time>2021-11-20T10:36:46.844Z</time>
      </trkpt>
      <trkpt lat="47.561943" lon="8.148889">
        <ele>372.201178</ele>
        <time>2021-11-20T10:36:49.069Z</time>
      </trkpt>
      <trkpt lat="47.561980" lon="8.148763">
        <ele>372.129799</ele>
        <time>2021-11-20T10:36:52.341Z</time>
      </trkpt>
      <trkpt lat="47.561998" lon="8.148673">
        <ele>372.081039</ele>
        <time>2021-11-20T10:36:54.629Z</time>
      </trkpt>
      <trkpt lat="47.562009" lon="8.148597">
        <ele>372.040664</ele>
        <time>2021-11-20T10:36:55.443Z</time>
      </trkpt>
      <trkpt lat="47.562009" lon="8.148365">
        <ele>371.920153</ele>
        <time>2021-11-20T10:36:57.416Z</time>
      </trkpt>
      <trkpt lat="47.561978" lon="8.148254">
        <ele>371.857752</ele>
        <time>2021-11-20T10:36:58.494Z</time>
      </trkpt>
      <trkpt lat="47.561913" lon="8.148081">
        <ele>371.754898</ele>
        <time>2021-11-20T10:37:00.428Z</time>
      </trkpt>
      <trkpt lat="47.561833" lon="8.147845">
        <ele>371.617711</ele>
        <time>2021-11-20T10:37:02.835Z</time>
      </trkpt>
      <trkpt lat="47.561822" lon="8.147813">
        <ele>371.599056</ele>
        <time>2021-11-20T10:37:03.239Z</time>
      </trkpt>
      <trkpt lat="47.561781" lon="8.147568">
        <ele>371.467937</ele>
        <time>2021-11-20T10:37:05.665Z</time>
      </trkpt>
      <trkpt lat="47.561778" lon="8.147534">
        <ele>371.450126</ele>
        <time>2021-11-20T10:37:05.964Z</time>
      </trkpt>
      <trkpt lat="47.561759" lon="8.147209">
        <ele>371.194388</ele>
        <time>2021-11-20T10:37:08.822Z</time>
      </trkpt>
      <trkpt lat="47.561783" lon="8.146574">
        <ele>370.691226</ele>
        <time>2021-11-20T10:37:14.303Z</time>
      </trkpt>
      <trkpt lat="47.561789" lon="8.146405">
        <ele>370.557338</ele>
        <time>2021-11-20T10:37:15.678Z</time>
      </trkpt>
      <trkpt lat="47.561811" lon="8.145912">
        <ele>370.166454</ele>
        <time>2021-11-20T10:37:19.774Z</time>
      </trkpt>
      <trkpt lat="47.561827" lon="8.145709">
        <ele>370.004760</ele>
        <time>2021-11-20T10:37:21.439Z</time>
      </trkpt>
      <trkpt lat="47.561842" lon="8.145448">
        <ele>369.797525</ele>
        <time>2021-11-20T10:37:23.467Z</time>
      </trkpt>
      <trkpt lat="47.561847" lon="8.145230">
        <ele>369.624957</ele>
        <time>2021-11-20T10:37:25.086Z</time>
      </trkpt>
      <trkpt lat="47.561843" lon="8.145077">
        <ele>369.503822</ele>
        <time>2021-11-20T10:37:26.229Z</time>
      </trkpt>
      <trkpt lat="47.561830" lon="8.144934">
        <ele>369.389667</ele>
        <time>2021-11-20T10:37:27.285Z</time>
      </trkpt>
      <trkpt lat="47.561764" lon="8.144413">
        <ele>368.777465</ele>
        <time>2021-11-20T10:37:31.147Z</time>
      </trkpt>
      <trkpt lat="47.561737" lon="8.144240">
        <ele>368.563097</ele>
        <time>2021-11-20T10:37:32.408Z</time>
      </trkpt>
      <trkpt lat="47.561693" lon="8.143892">
        <ele>368.135662</ele>
        <time>2021-11-20T10:37:35.036Z</time>
      </trkpt>
      <trkpt lat="47.561629" lon="8.143405">
        <ele>367.536683</ele>
        <time>2021-11-20T10:37:38.713Z</time>
      </trkpt>
      <trkpt lat="47.561569" lon="8.142863">
        <ele>366.873604</ele>
        <time>2021-11-20T10:37:42.785Z</time>
      </trkpt>
      <trkpt lat="47.561548" lon="8.142491">
        <ele>366.422936</ele>
        <time>2021-11-20T10:37:45.665Z</time>
      </trkpt>
      <trkpt lat="47.561542" lon="8.142165">
        <ele>366.125678</ele>
        <time>2021-11-20T10:37:48.159Z</time>
      </trkpt>
      <trkpt lat="47.561548" lon="8.141908">
        <ele>366.148801</ele>
        <time>2021-11-20T10:37:50.403Z</time>
      </trkpt>
      <trkpt lat="47.561563" lon="8.141574">
        <ele>366.178900</ele>
        <time>2021-11-20T10:37:53.204Z</time>
      </trkpt>
      <trkpt lat="47.561574" lon="8.141379">
        <ele>366.196495</ele>
        <time>2021-11-20T10:37:55.064Z</time>
      </trkpt>
      <trkpt lat="47.561660" lon="8.140164">
        <ele>366.306343</ele>
        <time>2021-11-20T10:38:07.537Z</time>
      </trkpt>
      <trkpt lat="47.561507" lon="8.138771">
        <ele>366.920885</ele>
        <time>2021-11-20T10:38:28.682Z</time>
      </trkpt>
      <trkpt lat="47.561504" lon="8.138613">
        <ele>367.028021</ele>
        <time>2021-11-20T10:38:30.867Z</time>
      </trkpt>
      <trkpt lat="47.561520" lon="8.138020">
        <ele>367.430284</ele>
        <time>2021-11-20T10:38:39.577Z</time>
      </trkpt>
      <trkpt lat="47.561531" lon="8.137825">
        <ele>367.562918</ele>
        <time>2021-11-20T10:38:42.411Z</time>
      </trkpt>
      <trkpt lat="47.561548" lon="8.137622">
        <ele>367.701569</ele>
        <time>2021-11-20T10:38:44.531Z</time>
      </trkpt>
      <trkpt lat="47.561574" lon="8.137322">
        <ele>367.906582</ele>
        <time>2021-11-20T10:38:47.648Z</time>
      </trkpt>
      <trkpt lat="47.561604" lon="8.136996">
        <ele>368.129593</ele>
        <time>2021-11-20T10:38:50.905Z</time>
      </trkpt>
      <trkpt lat="47.561651" lon="8.136422">
        <ele>367.014988</ele>
        <time>2021-11-20T10:38:56.287Z</time>
      </trkpt>
      <trkpt lat="47.561673" lon="8.136111">
        <ele>366.330440</ele>
        <time>2021-11-20T10:38:59.113Z</time>
      </trkpt>
      <trkpt lat="47.561695" lon="8.135815">
        <ele>365.678540</ele>
        <time>2021-11-20T10:39:01.218Z</time>
      </trkpt>
      <trkpt lat="47.561699" lon="8.135702">
        <ele>365.430829</ele>
        <time>2021-11-20T10:39:02.020Z</time>
      </trkpt>
      <trkpt lat="47.561711" lon="8.135438">
        <ele>364.851591</ele>
        <time>2021-11-20T10:39:03.737Z</time>
      </trkpt>
      <trkpt lat="47.561720" lon="8.135210">
        <ele>364.351618</ele>
        <time>2021-11-20T10:39:05.215Z</time>
      </trkpt>
      <trkpt lat="47.561725" lon="8.133913">
        <ele>361.050326</ele>
        <time>2021-11-20T10:39:13.283Z</time>
      </trkpt>
      <trkpt lat="47.561698" lon="8.133720">
        <ele>360.375174</ele>
        <time>2021-11-20T10:39:14.543Z</time>
      </trkpt>
      <trkpt lat="47.561664" lon="8.133579">
        <ele>359.862288</ele>
        <time>2021-11-20T10:39:15.484Z</time>
      </trkpt>
      <trkpt lat="47.561623" lon="8.133432">
        <ele>359.317443</ele>
        <time>2021-11-20T10:39:16.419Z</time>
      </trkpt>
      <trkpt lat="47.561195" lon="8.132668">
        <ele>355.916153</ele>
        <time>2021-11-20T10:39:22.803Z</time>
      </trkpt>
      <trkpt lat="47.561161" lon="8.132610">
        <ele>355.652985</ele>
        <time>2021-11-20T10:39:23.238Z</time>
      </trkpt>
      <trkpt lat="47.561056" lon="8.132422">
        <ele>354.817050</ele>
        <time>2021-11-20T10:39:24.925Z</time>
      </trkpt>
      <trkpt lat="47.561185" lon="8.132211">
        <ele>353.841769</ele>
        <time>2021-11-20T10:39:26.667Z</time>
      </trkpt>
      <trkpt lat="47.561796" lon="8.130897">
        <ele>350.853426</ele>
        <time>2021-11-20T10:39:37.657Z</time>
      </trkpt>
      <trkpt lat="47.562119" lon="8.130197">
        <ele>349.440504</ele>
        <time>2021-11-20T10:39:44.337Z</time>
      </trkpt>
      <trkpt lat="47.562169" lon="8.130101">
        <ele>349.238449</ele>
        <time>2021-11-20T10:39:45.338Z</time>
      </trkpt>
      <trkpt lat="47.562200" lon="8.130042">
        <ele>349.113860</ele>
        <time>2021-11-20T10:39:45.966Z</time>
      </trkpt>
      <trkpt lat="47.562419" lon="8.129559">
        <ele>348.419960</ele>
        <time>2021-11-20T10:39:50.578Z</time>
      </trkpt>
      <trkpt lat="47.562839" lon="8.128684">
        <ele>347.433132</ele>
        <time>2021-11-20T10:39:58.860Z</time>
      </trkpt>
      <trkpt lat="47.562984" lon="8.128403">
        <ele>347.108037</ele>
        <time>2021-11-20T10:40:01.662Z</time>
      </trkpt>
      <trkpt lat="47.563096" lon="8.128178">
        <ele>346.851086</ele>
        <time>2021-11-20T10:40:04.114Z</time>
      </trkpt>
      <trkpt lat="47.563232" lon="8.127932">
        <ele>346.558824</ele>
        <time>2021-11-20T10:40:06.577Z</time>
      </trkpt>
      <trkpt lat="47.563398" lon="8.127697">
        <ele>346.224832</ele>
        <time>2021-11-20T10:40:09.191Z</time>
      </trkpt>
      <trkpt lat="47.563589" lon="8.127466">
        <ele>345.775759</ele>
        <time>2021-11-20T10:40:13.169Z</time>
      </trkpt>
      <trkpt lat="47.563627" lon="8.127420">
        <ele>345.686382</ele>
        <time>2021-11-20T10:40:13.607Z</time>
      </trkpt>
      <trkpt lat="47.563751" lon="8.127247">
        <ele>345.376163</ele>
        <time>2021-11-20T10:40:15.429Z</time>
      </trkpt>
      <trkpt lat="47.563829" lon="8.127101">
        <ele>345.147271</ele>
        <time>2021-11-20T10:40:18.070Z</time>
      </trkpt>
      <trkpt lat="47.563898" lon="8.126936">
        <ele>344.908674</ele>
        <time>2021-11-20T10:40:21.714Z</time>
      </trkpt>
      <trkpt lat="47.563932" lon="8.126822">
        <ele>344.755475</ele>
        <time>2021-11-20T10:40:24.272Z</time>
      </trkpt>
      <trkpt lat="47.563935" lon="8.126813">
        <ele>344.743137</ele>
        <time>2021-11-20T10:40:24.459Z</time>
      </trkpt>
      <trkpt lat="47.563988" lon="8.126616">
        <ele>344.482460</ele>
        <time>2021-11-20T10:40:30.673Z</time>
      </trkpt>
      <trkpt lat="47.564016" lon="8.126515">
        <ele>344.348248</ele>
        <time>2021-11-20T10:40:32.579Z</time>
      </trkpt>
      <trkpt lat="47.564050" lon="8.126343">
        <ele>344.127952</ele>
        <time>2021-11-20T10:40:36.333Z</time>
      </trkpt>
      <trkpt lat="47.564078" lon="8.126253">
        <ele>344.006138</ele>
        <time>2021-11-20T10:40:38.821Z</time>
      </trkpt>
      <trkpt lat="47.564142" lon="8.126069">
        <ele>343.751698</ele>
        <time>2021-11-20T10:40:43.336Z</time>
      </trkpt>
      <trkpt lat="47.564204" lon="8.125933">
        <ele>343.549961</ele>
        <time>2021-11-20T10:40:44.439Z</time>
      </trkpt>
      <trkpt lat="47.564281" lon="8.125780">
        <ele>343.315358</ele>
        <time>2021-11-20T10:40:46.021Z</time>
      </trkpt>
      <trkpt lat="47.564404" lon="8.125557">
        <ele>342.933630</ele>
        <time>2021-11-20T10:40:48.068Z</time>
      </trkpt>
      <trkpt lat="47.564445" lon="8.125480">
        <ele>342.766469</ele>
        <time>2021-11-20T10:40:48.712Z</time>
      </trkpt>
      <trkpt lat="47.564862" lon="8.124663">
        <ele>341.020666</ele>
        <time>2021-11-20T10:40:56.078Z</time>
      </trkpt>
      <trkpt lat="47.565033" lon="8.124341">
        <ele>340.322344</ele>
        <time>2021-11-20T10:40:59.016Z</time>
      </trkpt>
      <trkpt lat="47.565098" lon="8.124202">
        <ele>340.034135</ele>
        <time>2021-11-20T10:41:00.138Z</time>
      </trkpt>
      <trkpt lat="47.565268" lon="8.123888">
        <ele>339.348060</ele>
        <time>2021-11-20T10:41:02.917Z</time>
      </trkpt>
      <trkpt lat="47.565326" lon="8.123776">
        <ele>339.107457</ele>
        <time>2021-11-20T10:41:03.836Z</time>
      </trkpt>
      <trkpt lat="47.565434" lon="8.123568">
        <ele>338.660185</ele>
        <time>2021-11-20T10:41:05.738Z</time>
      </trkpt>
      <trkpt lat="47.565629" lon="8.123189">
        <ele>338.144533</ele>
        <time>2021-11-20T10:41:09.242Z</time>
      </trkpt>
      <trkpt lat="47.565954" lon="8.122541">
        <ele>337.403895</ele>
        <time>2021-11-20T10:41:15.583Z</time>
      </trkpt>
      <trkpt lat="47.566102" lon="8.122133">
        <ele>336.978980</ele>
        <time>2021-11-20T10:41:19.451Z</time>
      </trkpt>
      <trkpt lat="47.566119" lon="8.122027">
        <ele>336.879037</ele>
        <time>2021-11-20T10:41:20.295Z</time>
      </trkpt>
      <trkpt lat="47.566151" lon="8.121930">
        <ele>336.779994</ele>
        <time>2021-11-20T10:41:21.390Z</time>
      </trkpt>
      <trkpt lat="47.566318" lon="8.120964">
        <ele>335.903137</ele>
        <time>2021-11-20T10:41:29.594Z</time>
      </trkpt>
      <trkpt lat="47.566366" lon="8.120637">
        <ele>335.660835</ele>
        <time>2021-11-20T10:41:32.417Z</time>
      </trkpt>
      <trkpt lat="47.566398" lon="8.120421">
        <ele>335.500715</ele>
        <time>2021-11-20T10:41:34.526Z</time>
      </trkpt>
      <trkpt lat="47.566431" lon="8.120180">
        <ele>335.322662</ele>
        <time>2021-11-20T10:41:36.526Z</time>
      </trkpt>
      <trkpt lat="47.566474" lon="8.119870">
        <ele>335.093513</ele>
        <time>2021-11-20T10:41:39.387Z</time>
      </trkpt>
      <trkpt lat="47.566566" lon="8.119245">
        <ele>334.630340</ele>
        <time>2021-11-20T10:41:44.709Z</time>
      </trkpt>
      <trkpt lat="47.566580" lon="8.119152">
        <ele>334.561348</ele>
        <time>2021-11-20T10:41:45.379Z</time>
      </trkpt>
      <trkpt lat="47.566644" lon="8.118715">
        <ele>334.237573</ele>
        <time>2021-11-20T10:41:48.992Z</time>
      </trkpt>
      <trkpt lat="47.566733" lon="8.118099">
        <ele>333.799066</ele>
        <time>2021-11-20T10:41:53.656Z</time>
      </trkpt>
      <trkpt lat="47.566811" lon="8.117556">
        <ele>333.418332</ele>
        <time>2021-11-20T10:41:57.828Z</time>
      </trkpt>
      <trkpt lat="47.566944" lon="8.116530">
        <ele>332.701835</ele>
        <time>2021-11-20T10:42:06.871Z</time>
      </trkpt>
      <trkpt lat="47.566983" lon="8.116203">
        <ele>332.474103</ele>
        <time>2021-11-20T10:42:09.813Z</time>
      </trkpt>
      <trkpt lat="47.567009" lon="8.116010">
        <ele>332.339132</ele>
        <time>2021-11-20T10:42:12.488Z</time>
      </trkpt>
      <trkpt lat="47.567157" lon="8.115310">
        <ele>331.987450</ele>
        <time>2021-11-20T10:42:18.747Z</time>
      </trkpt>
      <trkpt lat="47.567411" lon="8.114753">
        <ele>331.681257</ele>
        <time>2021-11-20T10:42:24.408Z</time>
      </trkpt>
      <trkpt lat="47.567654" lon="8.114290">
        <ele>331.414098</ele>
        <time>2021-11-20T10:42:29.727Z</time>
      </trkpt>
      <trkpt lat="47.567881" lon="8.113862">
        <ele>331.166150</ele>
        <time>2021-11-20T10:42:34.728Z</time>
      </trkpt>
      <trkpt lat="47.568167" lon="8.113323">
        <ele>330.273916</ele>
        <time>2021-11-20T10:42:40.676Z</time>
      </trkpt>
      <trkpt lat="47.568835" lon="8.112063">
        <ele>327.609973</ele>
        <time>2021-11-20T10:42:52.012Z</time>
      </trkpt>
      <trkpt lat="47.569083" lon="8.111567">
        <ele>326.570164</ele>
        <time>2021-11-20T10:42:56.200Z</time>
      </trkpt>
      <trkpt lat="47.569107" lon="8.111522">
        <ele>326.452306</ele>
        <time>2021-11-20T10:42:56.528Z</time>
      </trkpt>
      <trkpt lat="47.569423" lon="8.110628">
        <ele>324.378640</ele>
        <time>2021-11-20T10:43:03.343Z</time>
      </trkpt>
      <trkpt lat="47.569495" lon="8.110499">
        <ele>324.034654</ele>
        <time>2021-11-20T10:43:04.340Z</time>
      </trkpt>
      <trkpt lat="47.569574" lon="8.110385">
        <ele>323.698885</ele>
        <time>2021-11-20T10:43:05.405Z</time>
      </trkpt>
      <trkpt lat="47.569664" lon="8.110262">
        <ele>323.326077</ele>
        <time>2021-11-20T10:43:07.754Z</time>
      </trkpt>
      <trkpt lat="47.569787" lon="8.110094">
        <ele>322.816714</ele>
        <time>2021-11-20T10:43:09.310Z</time>
      </trkpt>
      <trkpt lat="47.569974" lon="8.109825">
        <ele>322.023136</ele>
        <time>2021-11-20T10:43:12.201Z</time>
      </trkpt>
      <trkpt lat="47.570263" lon="8.109376">
        <ele>321.415556</ele>
        <time>2021-11-20T10:43:16.781Z</time>
      </trkpt>
      <trkpt lat="47.570283" lon="8.109343">
        <ele>321.470840</ele>
        <time>2021-11-20T10:43:17.081Z</time>
      </trkpt>
      <trkpt lat="47.570582" lon="8.108889">
        <ele>322.261521</ele>
        <time>2021-11-20T10:43:22.666Z</time>
      </trkpt>
      <trkpt lat="47.570830" lon="8.108502">
        <ele>322.926706</ele>
        <time>2021-11-20T10:43:32.991Z</time>
      </trkpt>
      <trkpt lat="47.571253" lon="8.107823">
        <ele>324.078478</ele>
        <time>2021-11-20T10:43:52.353Z</time>
      </trkpt>
      <trkpt lat="47.571440" lon="8.107260">
        <ele>324.523772</ele>
        <time>2021-11-20T10:44:05.191Z</time>
      </trkpt>
      <trkpt lat="47.571458" lon="8.107087">
        <ele>324.545777</ele>
        <time>2021-11-20T10:44:09.316Z</time>
      </trkpt>
      <trkpt lat="47.571460" lon="8.106995">
        <ele>324.557348</ele>
        <time>2021-11-20T10:44:10.948Z</time>
      </trkpt>
      <trkpt lat="47.571461" lon="8.106820">
        <ele>324.579348</ele>
        <time>2021-11-20T10:44:12.534Z</time>
      </trkpt>
      <trkpt lat="47.571440" lon="8.106588">
        <ele>324.608774</ele>
        <time>2021-11-20T10:44:15.361Z</time>
      </trkpt>
      <trkpt lat="47.571298" lon="8.105561">
        <ele>324.740562</ele>
        <time>2021-11-20T10:44:23.674Z</time>
      </trkpt>
      <trkpt lat="47.571251" lon="8.105188">
        <ele>324.788263</ele>
        <time>2021-11-20T10:44:26.581Z</time>
      </trkpt>
      <trkpt lat="47.571234" lon="8.105037">
        <ele>324.807508</ele>
        <time>2021-11-20T10:44:28.219Z</time>
      </trkpt>
      <trkpt lat="47.571214" lon="8.104836">
        <ele>324.753197</ele>
        <time>2021-11-20T10:44:29.865Z</time>
      </trkpt>
      <trkpt lat="47.571252" lon="8.104668">
        <ele>324.626244</ele>
        <time>2021-11-20T10:44:31.368Z</time>
      </trkpt>
      <trkpt lat="47.571285" lon="8.104547">
        <ele>324.532735</ele>
        <time>2021-11-20T10:44:32.289Z</time>
      </trkpt>
      <trkpt lat="47.571319" lon="8.104520">
        <ele>324.491773</ele>
        <time>2021-11-20T10:44:32.706Z</time>
      </trkpt>
      <trkpt lat="47.571345" lon="8.104476">
        <ele>324.449866</ele>
        <time>2021-11-20T10:44:33.095Z</time>
      </trkpt>
      <trkpt lat="47.571359" lon="8.104422">
        <ele>324.408418</ele>
        <time>2021-11-20T10:44:33.468Z</time>
      </trkpt>
      <trkpt lat="47.571359" lon="8.104365">
        <ele>324.367579</ele>
        <time>2021-11-20T10:44:33.904Z</time>
      </trkpt>
      <trkpt lat="47.571346" lon="8.104311">
        <ele>324.326500</ele>
        <time>2021-11-20T10:44:34.288Z</time>
      </trkpt>
      <trkpt lat="47.571354" lon="8.104222">
        <ele>324.262171</ele>
        <time>2021-11-20T10:44:35.318Z</time>
      </trkpt>
      <trkpt lat="47.571310" lon="8.104135">
        <ele>324.184268</ele>
        <time>2021-11-20T10:44:36.058Z</time>
      </trkpt>
      <trkpt lat="47.571041" lon="8.104109">
        <ele>323.897994</ele>
        <time>2021-11-20T10:44:38.931Z</time>
      </trkpt>
      <trkpt lat="47.570788" lon="8.103933">
        <ele>323.601198</ele>
        <time>2021-11-20T10:44:41.908Z</time>
      </trkpt>
      <trkpt lat="47.570667" lon="8.103884">
        <ele>323.467991</ele>
        <time>2021-11-20T10:44:43.612Z</time>
      </trkpt>
      <trkpt lat="47.570391" lon="8.103841">
        <ele>323.173275</ele>
        <time>2021-11-20T10:44:52.464Z</time>
      </trkpt>
      <trkpt lat="47.570159" lon="8.103813">
        <ele>322.926085</ele>
        <time>2021-11-20T10:44:56.553Z</time>
      </trkpt>
      <trkpt lat="47.569557" lon="8.103677">
        <ele>324.309970</ele>
        <time>2021-11-20T10:45:12.893Z</time>
      </trkpt>
      <trkpt lat="47.567683" lon="8.103272">
        <ele>328.974284</ele>
        <time>2021-11-20T10:46:01.158Z</time>
      </trkpt>
      <trkpt lat="47.566684" lon="8.102974">
        <ele>331.681332</ele>
        <time>2021-11-20T10:46:27.307Z</time>
      </trkpt>
      <trkpt lat="47.565727" lon="8.102512">
        <ele>333.832043</ele>
        <time>2021-11-20T10:46:52.579Z</time>
      </trkpt>
      <trkpt lat="47.564165" lon="8.101615">
        <ele>337.442223</ele>
        <time>2021-11-20T10:47:27.769Z</time>
      </trkpt>
      <trkpt lat="47.563202" lon="8.101042">
        <ele>339.790120</ele>
        <time>2021-11-20T10:47:53.582Z</time>
      </trkpt>
      <trkpt lat="47.563031" lon="8.100935">
        <ele>340.386360</ele>
        <time>2021-11-20T10:48:00.466Z</time>
      </trkpt>
      <trkpt lat="47.562207" lon="8.100413">
        <ele>343.264896</ele>
        <time>2021-11-20T10:48:30.907Z</time>
      </trkpt>
      <trkpt lat="47.561466" lon="8.099697">
        <ele>345.380587</ele>
        <time>2021-11-20T10:49:01.806Z</time>
      </trkpt>
      <trkpt lat="47.560787" lon="8.098864">
        <ele>345.015444</ele>
        <time>2021-11-20T10:49:21.476Z</time>
      </trkpt>
      <trkpt lat="47.560171" lon="8.097877">
        <ele>343.748032</ele>
        <time>2021-11-20T10:49:35.057Z</time>
      </trkpt>
      <trkpt lat="47.559606" lon="8.096837">
        <ele>339.151554</ele>
        <time>2021-11-20T10:49:47.068Z</time>
      </trkpt>
      <trkpt lat="47.558983" lon="8.095482">
        <ele>333.748640</ele>
        <time>2021-11-20T10:50:01.596Z</time>
      </trkpt>
      <trkpt lat="47.558857" lon="8.095293">
        <ele>332.942645</ele>
        <time>2021-11-20T10:50:04.088Z</time>
      </trkpt>
      <trkpt lat="47.558776" lon="8.095210">
        <ele>332.499920</ele>
        <time>2021-11-20T10:50:05.337Z</time>
      </trkpt>
      <trkpt lat="47.558531" lon="8.094661">
        <ele>330.503127</ele>
        <time>2021-11-20T10:50:09.618Z</time>
      </trkpt>
      <trkpt lat="47.557677" lon="8.092776">
        <ele>324.006909</ele>
        <time>2021-11-20T10:50:25.044Z</time>
      </trkpt>
      <trkpt lat="47.556850" lon="8.091457">
        <ele>318.911508</ele>
        <time>2021-11-20T10:50:36.668Z</time>
      </trkpt>
      <trkpt lat="47.556692" lon="8.091113">
        <ele>317.580567</ele>
        <time>2021-11-20T10:50:39.271Z</time>
      </trkpt>
      <trkpt lat="47.556527" lon="8.090721">
        <ele>316.102858</ele>
        <time>2021-11-20T10:50:42.152Z</time>
      </trkpt>
      <trkpt lat="47.556259" lon="8.090058">
        <ele>313.630924</ele>
        <time>2021-11-20T10:50:47.064Z</time>
      </trkpt>
      <trkpt lat="47.556193" lon="8.089926">
        <ele>313.105463</ele>
        <time>2021-11-20T10:50:48.195Z</time>
      </trkpt>
      <trkpt lat="47.556110" lon="8.089809">
        <ele>312.562511</ele>
        <time>2021-11-20T10:50:49.274Z</time>
      </trkpt>
      <trkpt lat="47.556137" lon="8.089730">
        <ele>312.279270</ele>
        <time>2021-11-20T10:50:49.826Z</time>
      </trkpt>
      <trkpt lat="47.556151" lon="8.089459">
        <ele>311.645358</ele>
        <time>2021-11-20T10:50:51.670Z</time>
      </trkpt>
      <trkpt lat="47.556111" lon="8.089266">
        <ele>311.583410</ele>
        <time>2021-11-20T10:50:52.958Z</time>
      </trkpt>
      <trkpt lat="47.556065" lon="8.089084">
        <ele>311.523780</ele>
        <time>2021-11-20T10:50:54.268Z</time>
      </trkpt>
      <trkpt lat="47.555997" lon="8.088801">
        <ele>311.431607</ele>
        <time>2021-11-20T10:50:56.577Z</time>
      </trkpt>
      <trkpt lat="47.555991" lon="8.088778">
        <ele>311.424041</ele>
        <time>2021-11-20T10:50:56.816Z</time>
      </trkpt>
      <trkpt lat="47.555939" lon="8.088552">
        <ele>311.350778</ele>
        <time>2021-11-20T10:50:58.646Z</time>
      </trkpt>
      <trkpt lat="47.555887" lon="8.088299">
        <ele>311.269630</ele>
        <time>2021-11-20T10:51:01.156Z</time>
      </trkpt>
      <trkpt lat="47.555829" lon="8.087941">
        <ele>311.156663</ele>
        <time>2021-11-20T10:51:04.973Z</time>
      </trkpt>
      <trkpt lat="47.555809" lon="8.087783">
        <ele>311.107339</ele>
        <time>2021-11-20T10:51:06.584Z</time>
      </trkpt>
      <trkpt lat="47.555780" lon="8.087557">
        <ele>311.036752</ele>
        <time>2021-11-20T10:51:08.761Z</time>
      </trkpt>
      <trkpt lat="47.555737" lon="8.087083">
        <ele>310.890006</ele>
        <time>2021-11-20T10:51:16.388Z</time>
      </trkpt>
      <trkpt lat="47.555733" lon="8.086819">
        <ele>311.243272</ele>
        <time>2021-11-20T10:51:21.410Z</time>
      </trkpt>
      <trkpt lat="47.555764" lon="8.085769">
        <ele>314.132857</ele>
        <time>2021-11-20T10:51:43.245Z</time>
      </trkpt>
      <trkpt lat="47.555899" lon="8.084472">
        <ele>317.740928</ele>
        <time>2021-11-20T10:52:12.657Z</time>
      </trkpt>
      <trkpt lat="47.555956" lon="8.084115">
        <ele>318.897096</ele>
        <time>2021-11-20T10:52:21.411Z</time>
      </trkpt>
      <trkpt lat="47.556083" lon="8.083354">
        <ele>321.610809</ele>
        <time>2021-11-20T10:52:39.609Z</time>
      </trkpt>
      <trkpt lat="47.556470" lon="8.081563">
        <ele>327.892397</ele>
        <time>2021-11-20T10:53:26.338Z</time>
      </trkpt>
      <trkpt lat="47.556853" lon="8.080477">
        <ele>330.778755</ele>
        <time>2021-11-20T10:53:52.411Z</time>
      </trkpt>
      <trkpt lat="47.557099" lon="8.079786">
        <ele>332.619018</ele>
        <time>2021-11-20T10:54:06.736Z</time>
      </trkpt>
      <trkpt lat="47.557256" lon="8.079416">
        <ele>333.648523</ele>
        <time>2021-11-20T10:54:13.455Z</time>
      </trkpt>
      <trkpt lat="47.557793" lon="8.078299">
        <ele>333.429820</ele>
        <time>2021-11-20T10:54:29.757Z</time>
      </trkpt>
      <trkpt lat="47.558613" lon="8.076826">
        <ele>332.519705</ele>
        <time>2021-11-20T10:54:44.321Z</time>
      </trkpt>
      <trkpt lat="47.559046" lon="8.076086">
        <ele>331.435683</ele>
        <time>2021-11-20T10:54:51.701Z</time>
      </trkpt>
      <trkpt lat="47.559426" lon="8.075372">
        <ele>330.429263</ele>
        <time>2021-11-20T10:54:58.698Z</time>
      </trkpt>
      <trkpt lat="47.559811" lon="8.074398">
        <ele>329.271048</ele>
        <time>2021-11-20T10:55:07.592Z</time>
      </trkpt>
      <trkpt lat="47.560318" lon="8.072316">
        <ele>326.809585</ele>
        <time>2021-11-20T10:55:24.864Z</time>
      </trkpt>
      <trkpt lat="47.560524" lon="8.071179">
        <ele>325.094198</ele>
        <time>2021-11-20T10:55:33.430Z</time>
      </trkpt>
      <trkpt lat="47.560553" lon="8.071099">
        <ele>324.961877</ele>
        <time>2021-11-20T10:55:34.041Z</time>
      </trkpt>
      <trkpt lat="47.560584" lon="8.070919">
        <ele>324.691194</ele>
        <time>2021-11-20T10:55:35.351Z</time>
      </trkpt>
      <trkpt lat="47.560739" lon="8.070551">
        <ele>324.059109</ele>
        <time>2021-11-20T10:55:38.438Z</time>
      </trkpt>
      <trkpt lat="47.560864" lon="8.070015">
        <ele>323.325917</ele>
        <time>2021-11-20T10:55:42.460Z</time>
      </trkpt>
      <trkpt lat="47.560904" lon="8.069780">
        <ele>323.050549</ele>
        <time>2021-11-20T10:55:44.204Z</time>
      </trkpt>
      <trkpt lat="47.560998" lon="8.069237">
        <ele>322.413621</ele>
        <time>2021-11-20T10:55:48.285Z</time>
      </trkpt>
      <trkpt lat="47.561130" lon="8.068650">
        <ele>321.710621</ele>
        <time>2021-11-20T10:55:52.955Z</time>
      </trkpt>
      <trkpt lat="47.561187" lon="8.068256">
        <ele>321.252792</ele>
        <time>2021-11-20T10:55:56.230Z</time>
      </trkpt>
      <trkpt lat="47.561229" lon="8.067903">
        <ele>320.845533</ele>
        <time>2021-11-20T10:55:59.268Z</time>
      </trkpt>
      <trkpt lat="47.561265" lon="8.067435">
        <ele>320.605178</ele>
        <time>2021-11-20T10:56:03.249Z</time>
      </trkpt>
      <trkpt lat="47.561276" lon="8.067022">
        <ele>320.572491</ele>
        <time>2021-11-20T10:56:07.167Z</time>
      </trkpt>
      <trkpt lat="47.561253" lon="8.066385">
        <ele>320.522043</ele>
        <time>2021-11-20T10:56:13.682Z</time>
      </trkpt>
      <trkpt lat="47.561108" lon="8.065242">
        <ele>320.430067</ele>
        <time>2021-11-20T10:56:26.048Z</time>
      </trkpt>
      <trkpt lat="47.561017" lon="8.064820">
        <ele>320.307150</ele>
        <time>2021-11-20T10:56:30.688Z</time>
      </trkpt>
      <trkpt lat="47.560887" lon="8.064271">
        <ele>320.072280</ele>
        <time>2021-11-20T10:56:35.885Z</time>
      </trkpt>
      <trkpt lat="47.560806" lon="8.064037">
        <ele>319.966115</ele>
        <time>2021-11-20T10:56:38.154Z</time>
      </trkpt>
      <trkpt lat="47.560719" lon="8.063873">
        <ele>319.881903</ele>
        <time>2021-11-20T10:56:39.937Z</time>
      </trkpt>
      <trkpt lat="47.560392" lon="8.063300">
        <ele>319.578965</ele>
        <time>2021-11-20T10:56:46.235Z</time>
      </trkpt>
      <trkpt lat="47.560335" lon="8.063169">
        <ele>319.516042</ele>
        <time>2021-11-20T10:56:47.582Z</time>
      </trkpt>
      <trkpt lat="47.560443" lon="8.063042">
        <ele>319.433565</ele>
        <time>2021-11-20T10:56:49.251Z</time>
      </trkpt>
      <trkpt lat="47.560545" lon="8.062928">
        <ele>319.357138</ele>
        <time>2021-11-20T10:56:50.817Z</time>
      </trkpt>
      <trkpt lat="47.560580" lon="8.062890">
        <ele>319.328424</ele>
        <time>2021-11-20T10:56:51.353Z</time>
      </trkpt>
      <trkpt lat="47.560673" lon="8.062786">
        <ele>319.238005</ele>
        <time>2021-11-20T10:56:53.424Z</time>
      </trkpt>
      <trkpt lat="47.560765" lon="8.062729">
        <ele>319.160617</ele>
        <time>2021-11-20T10:56:55.175Z</time>
      </trkpt>
      <trkpt lat="47.560570" lon="8.061926">
        <ele>318.713685</ele>
        <time>2021-11-20T10:57:02.531Z</time>
      </trkpt>
      <trkpt lat="47.560335" lon="8.060984">
        <ele>318.187726</ele>
        <time>2021-11-20T10:57:10.861Z</time>
      </trkpt>
      <trkpt lat="47.560293" lon="8.060828">
        <ele>318.099766</ele>
        <time>2021-11-20T10:57:12.291Z</time>
      </trkpt>
      <trkpt lat="47.560262" lon="8.060729">
        <ele>318.042609</ele>
        <time>2021-11-20T10:57:13.246Z</time>
      </trkpt>
      <trkpt lat="47.560130" lon="8.060196">
        <ele>317.859294</ele>
        <time>2021-11-20T10:57:18.446Z</time>
      </trkpt>
      <trkpt lat="47.560069" lon="8.059943">
        <ele>317.799086</ele>
        <time>2021-11-20T10:57:20.857Z</time>
      </trkpt>
      <trkpt lat="47.560040" lon="8.059827">
        <ele>317.771364</ele>
        <time>2021-11-20T10:57:22.074Z</time>
      </trkpt>
      <trkpt lat="47.560019" lon="8.059741">
        <ele>317.750868</ele>
        <time>2021-11-20T10:57:22.965Z</time>
      </trkpt>
      <trkpt lat="47.559979" lon="8.059591">
        <ele>317.714724</ele>
        <time>2021-11-20T10:57:24.426Z</time>
      </trkpt>
      <trkpt lat="47.559859" lon="8.059093">
        <ele>317.596219</ele>
        <time>2021-11-20T10:57:29.448Z</time>
      </trkpt>
      <trkpt lat="47.559725" lon="8.058554">
        <ele>317.467491</ele>
        <time>2021-11-20T10:57:34.858Z</time>
      </trkpt>
      <trkpt lat="47.559654" lon="8.058257">
        <ele>317.396880</ele>
        <time>2021-11-20T10:57:37.810Z</time>
      </trkpt>
      <trkpt lat="47.559579" lon="8.057955">
        <ele>317.333692</ele>
        <time>2021-11-20T10:57:40.715Z</time>
      </trkpt>
      <trkpt lat="47.559548" lon="8.057827">
        <ele>317.315308</ele>
        <time>2021-11-20T10:57:42.010Z</time>
      </trkpt>
      <trkpt lat="47.559447" lon="8.057490">
        <ele>317.265459</ele>
        <time>2021-11-20T10:57:45.438Z</time>
      </trkpt>
      <trkpt lat="47.559294" lon="8.057130">
        <ele>317.207944</ele>
        <time>2021-11-20T10:57:49.577Z</time>
      </trkpt>
      <trkpt lat="47.559116" lon="8.056760">
        <ele>317.146516</ele>
        <time>2021-11-20T10:57:54.015Z</time>
      </trkpt>
      <trkpt lat="47.558662" lon="8.056061">
        <ele>317.015362</ele>
        <time>2021-11-20T10:58:03.352Z</time>
      </trkpt>
      <trkpt lat="47.558447" lon="8.055831">
        <ele>316.991302</ele>
        <time>2021-11-20T10:58:06.883Z</time>
      </trkpt>
      <trkpt lat="47.558239" lon="8.055639">
        <ele>316.999951</ele>
        <time>2021-11-20T10:58:10.565Z</time>
      </trkpt>
      <trkpt lat="47.558012" lon="8.055477">
        <ele>317.008843</ele>
        <time>2021-11-20T10:58:14.210Z</time>
      </trkpt>
      <trkpt lat="47.557918" lon="8.055409">
        <ele>317.012535</ele>
        <time>2021-11-20T10:58:16.007Z</time>
      </trkpt>
      <trkpt lat="47.557710" lon="8.055283">
        <ele>317.020465</ele>
        <time>2021-11-20T10:58:19.373Z</time>
      </trkpt>
      <trkpt lat="47.557500" lon="8.055133">
        <ele>317.028693</ele>
        <time>2021-11-20T10:58:23.198Z</time>
      </trkpt>
      <trkpt lat="47.557273" lon="8.054941">
        <ele>317.037918</ele>
        <time>2021-11-20T10:58:27.438Z</time>
      </trkpt>
      <trkpt lat="47.557097" lon="8.054768">
        <ele>317.045372</ele>
        <time>2021-11-20T10:58:30.402Z</time>
      </trkpt>
      <trkpt lat="47.557019" lon="8.054678">
        <ele>317.048861</ele>
        <time>2021-11-20T10:58:32.207Z</time>
      </trkpt>
      <trkpt lat="47.556494" lon="8.054073">
        <ele>317.037890</ele>
        <time>2021-11-20T10:58:41.058Z</time>
      </trkpt>
      <trkpt lat="47.556239" lon="8.053780">
        <ele>317.031371</ele>
        <time>2021-11-20T10:58:45.465Z</time>
      </trkpt>
      <trkpt lat="47.556032" lon="8.053510">
        <ele>317.025800</ele>
        <time>2021-11-20T10:58:49.689Z</time>
      </trkpt>
      <trkpt lat="47.555890" lon="8.053286">
        <ele>317.021610</ele>
        <time>2021-11-20T10:58:53.325Z</time>
      </trkpt>
      <trkpt lat="47.555773" lon="8.053070">
        <ele>317.017833</ele>
        <time>2021-11-20T10:58:56.267Z</time>
      </trkpt>
      <trkpt lat="47.555603" lon="8.052757">
        <ele>317.091342</ele>
        <time>2021-11-20T10:59:00.489Z</time>
      </trkpt>
      <trkpt lat="47.555259" lon="8.052135">
        <ele>317.579210</ele>
        <time>2021-11-20T10:59:09.186Z</time>
      </trkpt>
      <trkpt lat="47.554988" lon="8.051475">
        <ele>318.047897</ele>
        <time>2021-11-20T10:59:18.176Z</time>
      </trkpt>
      <trkpt lat="47.554715" lon="8.050527">
        <ele>318.721393</ele>
        <time>2021-11-20T10:59:32.966Z</time>
      </trkpt>
      <trkpt lat="47.554412" lon="8.049127">
        <ele>320.630955</ele>
        <time>2021-11-20T10:59:55.527Z</time>
      </trkpt>
      <trkpt lat="47.554309" lon="8.048719">
        <ele>321.196736</ele>
        <time>2021-11-20T11:00:02.544Z</time>
      </trkpt>
      <trkpt lat="47.553996" lon="8.047557">
        <ele>322.351938</ele>
        <time>2021-11-20T11:00:21.775Z</time>
      </trkpt>
      <trkpt lat="47.553619" lon="8.046372">
        <ele>322.957389</ele>
        <time>2021-11-20T11:00:38.211Z</time>
      </trkpt>
      <trkpt lat="47.552844" lon="8.044355">
        <ele>321.899796</ele>
        <time>2021-11-20T11:00:58.141Z</time>
      </trkpt>
      <trkpt lat="47.551627" lon="8.041127">
        <ele>317.021470</ele>
        <time>2021-11-20T11:01:24.894Z</time>
      </trkpt>
      <trkpt lat="47.551167" lon="8.039905">
        <ele>315.851637</ele>
        <time>2021-11-20T11:01:35.524Z</time>
      </trkpt>
      <trkpt lat="47.551001" lon="8.039426">
        <ele>315.430078</ele>
        <time>2021-11-20T11:01:39.880Z</time>
      </trkpt>
      <trkpt lat="47.550515" lon="8.038174">
        <ele>315.053259</ele>
        <time>2021-11-20T11:01:53.583Z</time>
      </trkpt>
      <trkpt lat="47.550424" lon="8.037956">
        <ele>315.168335</ele>
        <time>2021-11-20T11:01:56.553Z</time>
      </trkpt>
      <trkpt lat="47.550111" lon="8.037123">
        <ele>315.596355</ele>
        <time>2021-11-20T11:02:08.921Z</time>
      </trkpt>
      <trkpt lat="47.549832" lon="8.036349">
        <ele>315.986954</ele>
        <time>2021-11-20T11:02:20.204Z</time>
      </trkpt>
      <trkpt lat="47.549753" lon="8.036077">
        <ele>316.091100</ele>
        <time>2021-11-20T11:02:23.976Z</time>
      </trkpt>
      <trkpt lat="47.549699" lon="8.035900">
        <ele>316.159417</ele>
        <time>2021-11-20T11:02:26.308Z</time>
      </trkpt>
      <trkpt lat="47.549632" lon="8.035633">
        <ele>316.259603</ele>
        <time>2021-11-20T11:02:29.626Z</time>
      </trkpt>
      <trkpt lat="47.549554" lon="8.035288">
        <ele>316.387569</ele>
        <time>2021-11-20T11:02:33.917Z</time>
      </trkpt>
      <trkpt lat="47.549494" lon="8.034935">
        <ele>316.515599</ele>
        <time>2021-11-20T11:02:38.376Z</time>
      </trkpt>
      <trkpt lat="47.549442" lon="8.034584">
        <ele>316.641989</ele>
        <time>2021-11-20T11:02:41.780Z</time>
      </trkpt>
      <trkpt lat="47.549395" lon="8.034029">
        <ele>316.838718</ele>
        <time>2021-11-20T11:02:47.841Z</time>
      </trkpt>
      <trkpt lat="47.549394" lon="8.034003">
        <ele>316.847878</ele>
        <time>2021-11-20T11:02:49.318Z</time>
      </trkpt>
      <trkpt lat="47.549386" lon="8.033799">
        <ele>316.911529</ele>
        <time>2021-11-20T11:02:50.850Z</time>
      </trkpt>
      <trkpt lat="47.549374" lon="8.033423">
        <ele>316.901033</ele>
        <time>2021-11-20T11:02:55.365Z</time>
      </trkpt>
      <trkpt lat="47.549363" lon="8.032869">
        <ele>316.885580</ele>
        <time>2021-11-20T11:03:00.525Z</time>
      </trkpt>
      <trkpt lat="47.549368" lon="8.032544">
        <ele>316.876517</ele>
        <time>2021-11-20T11:03:03.122Z</time>
      </trkpt>
      <trkpt lat="47.549372" lon="8.031883">
        <ele>316.858086</ele>
        <time>2021-11-20T11:03:10.141Z</time>
      </trkpt>
      <trkpt lat="47.549378" lon="8.030790">
        <ele>316.937228</ele>
        <time>2021-11-20T11:03:20.801Z</time>
      </trkpt>
      <trkpt lat="47.549380" lon="8.030702">
        <ele>316.961099</ele>
        <time>2021-11-20T11:03:21.641Z</time>
      </trkpt>
      <trkpt lat="47.549418" lon="8.028906">
        <ele>317.448252</ele>
        <time>2021-11-20T11:03:42.349Z</time>
      </trkpt>
      <trkpt lat="47.549431" lon="8.028306">
        <ele>317.636764</ele>
        <time>2021-11-20T11:03:49.093Z</time>
      </trkpt>
      <trkpt lat="47.549445" lon="8.027599">
        <ele>317.925947</ele>
        <time>2021-11-20T11:03:57.270Z</time>
      </trkpt>
      <trkpt lat="47.549454" lon="8.027138">
        <ele>318.114507</ele>
        <time>2021-11-20T11:04:02.796Z</time>
      </trkpt>
      <trkpt lat="47.549436" lon="8.026046">
        <ele>318.561108</ele>
        <time>2021-11-20T11:04:16.080Z</time>
      </trkpt>
      <trkpt lat="47.549322" lon="8.024323">
        <ele>318.782638</ele>
        <time>2021-11-20T11:04:34.685Z</time>
      </trkpt>
      <trkpt lat="47.549268" lon="8.023385">
        <ele>318.865208</ele>
        <time>2021-11-20T11:04:44.132Z</time>
      </trkpt>
      <trkpt lat="47.549201" lon="8.022146">
        <ele>318.359602</ele>
        <time>2021-11-20T11:04:55.348Z</time>
      </trkpt>
      <trkpt lat="47.549191" lon="8.021436">
        <ele>317.999685</ele>
        <time>2021-11-20T11:05:01.316Z</time>
      </trkpt>
      <trkpt lat="47.549186" lon="8.021006">
        <ele>317.781722</ele>
        <time>2021-11-20T11:05:04.900Z</time>
      </trkpt>
      <trkpt lat="47.549208" lon="8.019997">
        <ele>317.007950</ele>
        <time>2021-11-20T11:05:13.134Z</time>
      </trkpt>
      <trkpt lat="47.549261" lon="8.017878">
        <ele>314.861748</ele>
        <time>2021-11-20T11:05:29.255Z</time>
      </trkpt>
      <trkpt lat="47.549256" lon="8.017769">
        <ele>314.765068</ele>
        <time>2021-11-20T11:05:30.120Z</time>
      </trkpt>
      <trkpt lat="47.549291" lon="8.017761">
        <ele>314.720684</ele>
        <time>2021-11-20T11:05:30.516Z</time>
      </trkpt>
      <trkpt lat="47.549324" lon="8.017738">
        <ele>314.674978</ele>
        <time>2021-11-20T11:05:30.906Z</time>
      </trkpt>
      <trkpt lat="47.549351" lon="8.017702">
        <ele>314.629454</ele>
        <time>2021-11-20T11:05:31.308Z</time>
      </trkpt>
      <trkpt lat="47.549370" lon="8.017656">
        <ele>314.583834</ele>
        <time>2021-11-20T11:05:31.767Z</time>
      </trkpt>
      <trkpt lat="47.549379" lon="8.017603">
        <ele>314.537604</ele>
        <time>2021-11-20T11:05:32.173Z</time>
      </trkpt>
      <trkpt lat="47.549377" lon="8.017547">
        <ele>314.490167</ele>
        <time>2021-11-20T11:05:32.731Z</time>
      </trkpt>
      <trkpt lat="47.549310" lon="8.017418">
        <ele>314.352476</ele>
        <time>2021-11-20T11:05:34.078Z</time>
      </trkpt>
      <trkpt lat="47.549274" lon="8.017401">
        <ele>314.305122</ele>
        <time>2021-11-20T11:05:34.559Z</time>
      </trkpt>
      <trkpt lat="47.549281" lon="8.017304">
        <ele>314.222601</ele>
        <time>2021-11-20T11:05:35.275Z</time>
      </trkpt>
      <trkpt lat="47.549431" lon="8.015998">
        <ele>313.101961</ele>
        <time>2021-11-20T11:05:46.019Z</time>
      </trkpt>
      <trkpt lat="47.549589" lon="8.015316">
        <ele>312.480690</ele>
        <time>2021-11-20T11:05:51.863Z</time>
      </trkpt>
      <trkpt lat="47.549795" lon="8.014667">
        <ele>311.797320</ele>
        <time>2021-11-20T11:05:57.679Z</time>
      </trkpt>
      <trkpt lat="47.549871" lon="8.014427">
        <ele>311.544718</ele>
        <time>2021-11-20T11:05:59.814Z</time>
      </trkpt>
      <trkpt lat="47.550001" lon="8.014034">
        <ele>311.127694</ele>
        <time>2021-11-20T11:06:03.202Z</time>
      </trkpt>
      <trkpt lat="47.550565" lon="8.012461">
        <ele>309.739052</ele>
        <time>2021-11-20T11:06:16.810Z</time>
      </trkpt>
      <trkpt lat="47.550764" lon="8.011985">
        <ele>309.474575</ele>
        <time>2021-11-20T11:06:21.309Z</time>
      </trkpt>
      <trkpt lat="47.551187" lon="8.011080">
        <ele>308.954603</ele>
        <time>2021-11-20T11:06:31.427Z</time>
      </trkpt>
      <trkpt lat="47.551275" lon="8.010934">
        <ele>308.862144</ele>
        <time>2021-11-20T11:06:33.237Z</time>
      </trkpt>
      <trkpt lat="47.551902" lon="8.009884">
        <ele>309.616724</ele>
        <time>2021-11-20T11:06:50.191Z</time>
      </trkpt>
      <trkpt lat="47.552604" lon="8.008677">
        <ele>310.565727</ele>
        <time>2021-11-20T11:07:12.671Z</time>
      </trkpt>
      <trkpt lat="47.552640" lon="8.008615">
        <ele>310.558436</ele>
        <time>2021-11-20T11:07:14.257Z</time>
      </trkpt>
      <trkpt lat="47.552935" lon="8.007851">
        <ele>310.479974</ele>
        <time>2021-11-20T11:07:23.856Z</time>
      </trkpt>
      <trkpt lat="47.553173" lon="8.006642">
        <ele>310.367710</ele>
        <time>2021-11-20T11:07:34.658Z</time>
      </trkpt>
      <trkpt lat="47.553211" lon="8.006270">
        <ele>310.305286</ele>
        <time>2021-11-20T11:07:37.872Z</time>
      </trkpt>
      <trkpt lat="47.553220" lon="8.006182">
        <ele>310.270749</ele>
        <time>2021-11-20T11:07:38.463Z</time>
      </trkpt>
      <trkpt lat="47.553251" lon="8.005657">
        <ele>310.066255</ele>
        <time>2021-11-20T11:07:42.711Z</time>
      </trkpt>
      <trkpt lat="47.553256" lon="8.004837">
        <ele>309.748056</ele>
        <time>2021-11-20T11:07:49.635Z</time>
      </trkpt>
      <trkpt lat="47.553266" lon="8.003502">
        <ele>309.415879</ele>
        <time>2021-11-20T11:08:02.223Z</time>
      </trkpt>
      <trkpt lat="47.553270" lon="8.002465">
        <ele>309.964258</ele>
        <time>2021-11-20T11:08:14.894Z</time>
      </trkpt>
      <trkpt lat="47.553271" lon="8.002109">
        <ele>310.152514</ele>
        <time>2021-11-20T11:08:19.872Z</time>
      </trkpt>
      <trkpt lat="47.553273" lon="8.001687">
        <ele>310.375675</ele>
        <time>2021-11-20T11:08:25.552Z</time>
      </trkpt>
      <trkpt lat="47.553275" lon="7.999860">
        <ele>310.711697</ele>
        <time>2021-11-20T11:08:47.739Z</time>
      </trkpt>
      <trkpt lat="47.553278" lon="7.999508">
        <ele>310.709831</ele>
        <time>2021-11-20T11:08:51.285Z</time>
      </trkpt>
      <trkpt lat="47.553287" lon="7.998380">
        <ele>310.703849</ele>
        <time>2021-11-20T11:09:01.052Z</time>
      </trkpt>
      <trkpt lat="47.553287" lon="7.997190">
        <ele>309.254986</ele>
        <time>2021-11-20T11:09:10.351Z</time>
      </trkpt>
      <trkpt lat="47.553279" lon="7.996528">
        <ele>308.445333</ele>
        <time>2021-11-20T11:09:15.367Z</time>
      </trkpt>
      <trkpt lat="47.553268" lon="7.996252">
        <ele>308.107240</ele>
        <time>2021-11-20T11:09:17.439Z</time>
      </trkpt>
      <trkpt lat="47.553246" lon="7.995617">
        <ele>307.348619</ele>
        <time>2021-11-20T11:09:21.621Z</time>
      </trkpt>
      <trkpt lat="47.553164" lon="7.993925">
        <ele>305.614752</ele>
        <time>2021-11-20T11:09:35.140Z</time>
      </trkpt>
      <trkpt lat="47.553156" lon="7.993696">
        <ele>305.380374</ele>
        <time>2021-11-20T11:09:36.542Z</time>
      </trkpt>
      <trkpt lat="47.553137" lon="7.993190">
        <ele>304.862385</ele>
        <time>2021-11-20T11:09:41.154Z</time>
      </trkpt>
      <trkpt lat="47.553130" lon="7.993014">
        <ele>304.711229</ele>
        <time>2021-11-20T11:09:45.340Z</time>
      </trkpt>
      <trkpt lat="47.553107" lon="7.992226">
        <ele>304.509292</ele>
        <time>2021-11-20T11:09:52.054Z</time>
      </trkpt>
      <trkpt lat="47.553091" lon="7.991915">
        <ele>304.429436</ele>
        <time>2021-11-20T11:09:56.286Z</time>
      </trkpt>
      <trkpt lat="47.553050" lon="7.990744">
        <ele>304.129226</ele>
        <time>2021-11-20T11:10:09.109Z</time>
      </trkpt>
      <trkpt lat="47.553126" lon="7.990240">
        <ele>303.685683</ele>
        <time>2021-11-20T11:10:13.021Z</time>
      </trkpt>
      <trkpt lat="47.553146" lon="7.990113">
        <ele>303.402498</ele>
        <time>2021-11-20T11:10:13.950Z</time>
      </trkpt>
      <trkpt lat="47.553163" lon="7.990004">
        <ele>303.159570</ele>
        <time>2021-11-20T11:10:14.735Z</time>
      </trkpt>
      <trkpt lat="47.553214" lon="7.989758">
        <ele>302.600754</ele>
        <time>2021-11-20T11:10:16.514Z</time>
      </trkpt>
      <trkpt lat="47.553253" lon="7.989578">
        <ele>302.190242</ele>
        <time>2021-11-20T11:10:17.803Z</time>
      </trkpt>
      <trkpt lat="47.553352" lon="7.989142">
        <ele>301.191338</ele>
        <time>2021-11-20T11:10:20.899Z</time>
      </trkpt>
      <trkpt lat="47.553424" lon="7.988762">
        <ele>300.334281</ele>
        <time>2021-11-20T11:10:23.545Z</time>
      </trkpt>
      <trkpt lat="47.553410" lon="7.988607">
        <ele>299.994704</ele>
        <time>2021-11-20T11:10:24.577Z</time>
      </trkpt>
      <trkpt lat="47.553343" lon="7.988401">
        <ele>299.498150</ele>
        <time>2021-11-20T11:10:26.098Z</time>
      </trkpt>
      <trkpt lat="47.553232" lon="7.988247">
        <ele>299.008893</ele>
        <time>2021-11-20T11:10:27.570Z</time>
      </trkpt>
      <trkpt lat="47.552867" lon="7.987810">
        <ele>297.586793</ele>
        <time>2021-11-20T11:10:32.138Z</time>
      </trkpt>
      <trkpt lat="47.552713" lon="7.987638">
        <ele>297.038649</ele>
        <time>2021-11-20T11:10:33.976Z</time>
      </trkpt>
      <trkpt lat="47.552504" lon="7.987369">
        <ele>296.251773</ele>
        <time>2021-11-20T11:10:36.686Z</time>
      </trkpt>
      <trkpt lat="47.552436" lon="7.987273">
        <ele>295.984808</ele>
        <time>2021-11-20T11:10:37.630Z</time>
      </trkpt>
      <trkpt lat="47.552224" lon="7.986975">
        <ele>295.154213</ele>
        <time>2021-11-20T11:10:40.615Z</time>
      </trkpt>
      <trkpt lat="47.552152" lon="7.986883">
        <ele>294.883976</ele>
        <time>2021-11-20T11:10:41.596Z</time>
      </trkpt>
      <trkpt lat="47.551971" lon="7.986555">
        <ele>294.071216</ele>
        <time>2021-11-20T11:10:44.594Z</time>
      </trkpt>
      <trkpt lat="47.551917" lon="7.986288">
        <ele>293.536517</ele>
        <time>2021-11-20T11:10:46.674Z</time>
      </trkpt>
      <trkpt lat="47.551915" lon="7.986209">
        <ele>293.384861</ele>
        <time>2021-11-20T11:10:47.234Z</time>
      </trkpt>
      <trkpt lat="47.551898" lon="7.985654">
        <ele>293.532677</ele>
        <time>2021-11-20T11:10:52.742Z</time>
      </trkpt>
      <trkpt lat="47.551939" lon="7.985151">
        <ele>293.998860</ele>
        <time>2021-11-20T11:10:58.898Z</time>
      </trkpt>
      <trkpt lat="47.551934" lon="7.984260">
        <ele>294.818716</ele>
        <time>2021-11-20T11:11:12.480Z</time>
      </trkpt>
      <trkpt lat="47.551993" lon="7.984014">
        <ele>295.058932</ele>
        <time>2021-11-20T11:11:16.084Z</time>
      </trkpt>
      <trkpt lat="47.552007" lon="7.983931">
        <ele>295.137650</ele>
        <time>2021-11-20T11:11:17.658Z</time>
      </trkpt>
      <trkpt lat="47.552005" lon="7.983849">
        <ele>295.213149</ele>
        <time>2021-11-20T11:11:19.740Z</time>
      </trkpt>
      <trkpt lat="47.551911" lon="7.983632">
        <ele>295.450402</ele>
        <time>2021-11-20T11:11:23.933Z</time>
      </trkpt>
      <trkpt lat="47.551892" lon="7.983447">
        <ele>295.651237</ele>
        <time>2021-11-20T11:11:27.277Z</time>
      </trkpt>
      <trkpt lat="47.551861" lon="7.981113">
        <ele>299.770679</ele>
        <time>2021-11-20T11:12:10.567Z</time>
      </trkpt>
      <trkpt lat="47.551865" lon="7.980584">
        <ele>300.298893</ele>
        <time>2021-11-20T11:12:17.208Z</time>
      </trkpt>
      <trkpt lat="47.551873" lon="7.980135">
        <ele>300.308276</ele>
        <time>2021-11-20T11:12:21.964Z</time>
      </trkpt>
      <trkpt lat="47.551933" lon="7.979363">
        <ele>300.324510</ele>
        <time>2021-11-20T11:12:30.323Z</time>
      </trkpt>
      <trkpt lat="47.551923" lon="7.979308">
        <ele>300.325700</ele>
        <time>2021-11-20T11:12:30.691Z</time>
      </trkpt>
      <trkpt lat="47.551901" lon="7.979190">
        <ele>300.328257</ele>
        <time>2021-11-20T11:12:31.662Z</time>
      </trkpt>
      <trkpt lat="47.551829" lon="7.976305">
        <ele>299.953279</ele>
        <time>2021-11-20T11:12:56.710Z</time>
      </trkpt>
      <trkpt lat="47.551793" lon="7.974325">
        <ele>299.871654</ele>
        <time>2021-11-20T11:13:18.823Z</time>
      </trkpt>
      <trkpt lat="47.551755" lon="7.972603">
        <ele>299.901363</ele>
        <time>2021-11-20T11:13:36.122Z</time>
      </trkpt>
      <trkpt lat="47.551725" lon="7.970823">
        <ele>299.260519</ele>
        <time>2021-11-20T11:13:51.351Z</time>
      </trkpt>
      <trkpt lat="47.551734" lon="7.970034">
        <ele>299.017918</ele>
        <time>2021-11-20T11:13:58.310Z</time>
      </trkpt>
      <trkpt lat="47.551750" lon="7.968659">
        <ele>298.934060</ele>
        <time>2021-11-20T11:14:11.500Z</time>
      </trkpt>
      <trkpt lat="47.551825" lon="7.968445">
        <ele>298.919356</ele>
        <time>2021-11-20T11:14:13.753Z</time>
      </trkpt>
      <trkpt lat="47.551847" lon="7.968315">
        <ele>298.911184</ele>
        <time>2021-11-20T11:14:15.223Z</time>
      </trkpt>
      <trkpt lat="47.551839" lon="7.968208">
        <ele>298.904619</ele>
        <time>2021-11-20T11:14:16.425Z</time>
      </trkpt>
      <trkpt lat="47.551767" lon="7.967910">
        <ele>298.885318</ele>
        <time>2021-11-20T11:14:19.658Z</time>
      </trkpt>
      <trkpt lat="47.551902" lon="7.964650">
        <ele>299.534795</ele>
        <time>2021-11-20T11:14:56.059Z</time>
      </trkpt>
      <trkpt lat="47.551918" lon="7.963725">
        <ele>299.457828</ele>
        <time>2021-11-20T11:15:05.457Z</time>
      </trkpt>
      <trkpt lat="47.551906" lon="7.962453">
        <ele>299.352011</ele>
        <time>2021-11-20T11:15:17.387Z</time>
      </trkpt>
      <trkpt lat="47.551859" lon="7.961133">
        <ele>298.978915</ele>
        <time>2021-11-20T11:15:28.971Z</time>
      </trkpt>
      <trkpt lat="47.551894" lon="7.960729">
        <ele>298.847911</ele>
        <time>2021-11-20T11:15:32.722Z</time>
      </trkpt>
      <trkpt lat="47.551882" lon="7.960631">
        <ele>298.815877</ele>
        <time>2021-11-20T11:15:33.492Z</time>
      </trkpt>
      <trkpt lat="47.551865" lon="7.960528">
        <ele>298.781773</ele>
        <time>2021-11-20T11:15:34.438Z</time>
      </trkpt>
      <trkpt lat="47.551677" lon="7.960100">
        <ele>298.617530</ele>
        <time>2021-11-20T11:15:38.962Z</time>
      </trkpt>
      <trkpt lat="47.551300" lon="7.958844">
        <ele>298.420392</ele>
        <time>2021-11-20T11:15:51.873Z</time>
      </trkpt>
      <trkpt lat="47.550869" lon="7.957700">
        <ele>298.341606</ele>
        <time>2021-11-20T11:16:05.237Z</time>
      </trkpt>
      <trkpt lat="47.550745" lon="7.957569">
        <ele>298.328037</ele>
        <time>2021-11-20T11:16:07.475Z</time>
      </trkpt>
      <trkpt lat="47.550735" lon="7.957541">
        <ele>298.326132</ele>
        <time>2021-11-20T11:16:07.917Z</time>
      </trkpt>
      <trkpt lat="47.550613" lon="7.957254">
        <ele>298.332661</ele>
        <time>2021-11-20T11:16:11.256Z</time>
      </trkpt>
      <trkpt lat="47.550549" lon="7.957126">
        <ele>298.347101</ele>
        <time>2021-11-20T11:16:12.803Z</time>
      </trkpt>
      <trkpt lat="47.550445" lon="7.956918">
        <ele>298.370568</ele>
        <time>2021-11-20T11:16:15.476Z</time>
      </trkpt>
      <trkpt lat="47.550380" lon="7.956806">
        <ele>298.383958</ele>
        <time>2021-11-20T11:16:16.961Z</time>
      </trkpt>
      <trkpt lat="47.550205" lon="7.956552">
        <ele>298.416862</ele>
        <time>2021-11-20T11:16:20.671Z</time>
      </trkpt>
      <trkpt lat="47.549444" lon="7.955496">
        <ele>298.556904</ele>
        <time>2021-11-20T11:16:37.037Z</time>
      </trkpt>
      <trkpt lat="47.549157" lon="7.955099">
        <ele>298.625276</ele>
        <time>2021-11-20T11:16:42.838Z</time>
      </trkpt>
      <trkpt lat="47.549042" lon="7.954942">
        <ele>298.652645</ele>
        <time>2021-11-20T11:16:45.190Z</time>
      </trkpt>
      <trkpt lat="47.548833" lon="7.954652">
        <ele>298.702761</ele>
        <time>2021-11-20T11:16:49.546Z</time>
      </trkpt>
      <trkpt lat="47.548542" lon="7.954269">
        <ele>298.770886</ele>
        <time>2021-11-20T11:16:55.564Z</time>
      </trkpt>
      <trkpt lat="47.548342" lon="7.954009">
        <ele>298.817454</ele>
        <time>2021-11-20T11:16:59.746Z</time>
      </trkpt>
      <trkpt lat="47.548251" lon="7.953895">
        <ele>298.838312</ele>
        <time>2021-11-20T11:17:01.674Z</time>
      </trkpt>
      <trkpt lat="47.548115" lon="7.953729">
        <ele>298.869152</ele>
        <time>2021-11-20T11:17:04.543Z</time>
      </trkpt>
      <trkpt lat="47.547994" lon="7.953584">
        <ele>298.926397</ele>
        <time>2021-11-20T11:17:07.105Z</time>
      </trkpt>
      <trkpt lat="47.547871" lon="7.953437">
        <ele>298.989316</ele>
        <time>2021-11-20T11:17:09.696Z</time>
      </trkpt>
      <trkpt lat="47.547797" lon="7.953355">
        <ele>299.026107</ele>
        <time>2021-11-20T11:17:11.199Z</time>
      </trkpt>
      <trkpt lat="47.547624" lon="7.953160">
        <ele>299.112654</ele>
        <time>2021-11-20T11:17:14.692Z</time>
      </trkpt>
      <trkpt lat="47.547550" lon="7.953078">
        <ele>299.149446</ele>
        <time>2021-11-20T11:17:16.217Z</time>
      </trkpt>
      <trkpt lat="47.547458" lon="7.952975">
        <ele>299.195357</ele>
        <time>2021-11-20T11:17:18.230Z</time>
      </trkpt>
      <trkpt lat="47.547400" lon="7.952910">
        <ele>299.224312</ele>
        <time>2021-11-20T11:17:19.511Z</time>
      </trkpt>
      <trkpt lat="47.547090" lon="7.952543">
        <ele>299.382301</ele>
        <time>2021-11-20T11:17:25.960Z</time>
      </trkpt>
      <trkpt lat="47.546935" lon="7.952372">
        <ele>299.459244</ele>
        <time>2021-11-20T11:17:28.852Z</time>
      </trkpt>
      <trkpt lat="47.546776" lon="7.952185">
        <ele>299.540070</ele>
        <time>2021-11-20T11:17:32.176Z</time>
      </trkpt>
      <trkpt lat="47.546695" lon="7.952091">
        <ele>299.581036</ele>
        <time>2021-11-20T11:17:33.984Z</time>
      </trkpt>
      <trkpt lat="47.546634" lon="7.952024">
        <ele>299.589653</ele>
        <time>2021-11-20T11:17:35.426Z</time>
      </trkpt>
      <trkpt lat="47.546421" lon="7.951793">
        <ele>299.592902</ele>
        <time>2021-11-20T11:17:39.838Z</time>
      </trkpt>
      <trkpt lat="47.546231" lon="7.951558">
        <ele>299.595949</ele>
        <time>2021-11-20T11:17:44.391Z</time>
      </trkpt>
      <trkpt lat="47.546212" lon="7.951535">
        <ele>299.596251</ele>
        <time>2021-11-20T11:17:44.636Z</time>
      </trkpt>
      <trkpt lat="47.546135" lon="7.951406">
        <ele>299.597682</ele>
        <time>2021-11-20T11:17:46.445Z</time>
      </trkpt>
      <trkpt lat="47.545886" lon="7.951110">
        <ele>299.601612</ele>
        <time>2021-11-20T11:17:51.265Z</time>
      </trkpt>
      <trkpt lat="47.545824" lon="7.951061">
        <ele>299.602477</ele>
        <time>2021-11-20T11:17:52.407Z</time>
      </trkpt>
      <trkpt lat="47.545759" lon="7.950982">
        <ele>299.603512</ele>
        <time>2021-11-20T11:17:53.813Z</time>
      </trkpt>
      <trkpt lat="47.545727" lon="7.950947">
        <ele>299.604002</ele>
        <time>2021-11-20T11:17:54.614Z</time>
      </trkpt>
      <trkpt lat="47.545625" lon="7.950829">
        <ele>299.605595</ele>
        <time>2021-11-20T11:17:56.169Z</time>
      </trkpt>
      <trkpt lat="47.545567" lon="7.950765">
        <ele>299.606485</ele>
        <time>2021-11-20T11:17:57.202Z</time>
      </trkpt>
      <trkpt lat="47.545494" lon="7.950684">
        <ele>299.607608</ele>
        <time>2021-11-20T11:17:58.570Z</time>
      </trkpt>
      <trkpt lat="47.545434" lon="7.950668">
        <ele>299.608358</ele>
        <time>2021-11-20T11:17:59.656Z</time>
      </trkpt>
      <trkpt lat="47.545166" lon="7.950366">
        <ele>299.572624</ele>
        <time>2021-11-20T11:18:03.996Z</time>
      </trkpt>
      <trkpt lat="47.544901" lon="7.950044">
        <ele>299.456558</ele>
        <time>2021-11-20T11:18:08.129Z</time>
      </trkpt>
      <trkpt lat="47.544521" lon="7.949558">
        <ele>299.286551</ele>
        <time>2021-11-20T11:18:14.319Z</time>
      </trkpt>
      <trkpt lat="47.544239" lon="7.949202">
        <ele>299.161082</ele>
        <time>2021-11-20T11:18:19.226Z</time>
      </trkpt>
      <trkpt lat="47.543864" lon="7.948694">
        <ele>299.075007</ele>
        <time>2021-11-20T11:18:27.190Z</time>
      </trkpt>
      <trkpt lat="47.543760" lon="7.948548">
        <ele>299.347492</ele>
        <time>2021-11-20T11:18:29.432Z</time>
      </trkpt>
      <trkpt lat="47.543579" lon="7.948287">
        <ele>299.827860</ele>
        <time>2021-11-20T11:18:35.149Z</time>
      </trkpt>
      <trkpt lat="47.543532" lon="7.948214">
        <ele>299.957366</ele>
        <time>2021-11-20T11:18:36.276Z</time>
      </trkpt>
      <trkpt lat="47.543435" lon="7.948000">
        <ele>300.288279</ele>
        <time>2021-11-20T11:18:39.338Z</time>
      </trkpt>
      <trkpt lat="47.543407" lon="7.947938">
        <ele>300.384043</ele>
        <time>2021-11-20T11:18:41.195Z</time>
      </trkpt>
      <trkpt lat="47.543280" lon="7.947656">
        <ele>300.819237</ele>
        <time>2021-11-20T11:18:45.682Z</time>
      </trkpt>
      <trkpt lat="47.543142" lon="7.947250">
        <ele>301.402791</ele>
        <time>2021-11-20T11:18:53.146Z</time>
      </trkpt>
      <trkpt lat="47.543086" lon="7.947052">
        <ele>301.678387</ele>
        <time>2021-11-20T11:18:56.575Z</time>
      </trkpt>
      <trkpt lat="47.543056" lon="7.946935">
        <ele>301.839058</ele>
        <time>2021-11-20T11:18:59.417Z</time>
      </trkpt>
      <trkpt lat="47.543045" lon="7.946881">
        <ele>301.911469</ele>
        <time>2021-11-20T11:19:00.573Z</time>
      </trkpt>
      <trkpt lat="47.542982" lon="7.946547">
        <ele>302.356673</ele>
        <time>2021-11-20T11:19:05.973Z</time>
      </trkpt>
      <trkpt lat="47.542974" lon="7.946495">
        <ele>302.425635</ele>
        <time>2021-11-20T11:19:07.614Z</time>
      </trkpt>
      <trkpt lat="47.542960" lon="7.946400">
        <ele>302.574942</ele>
        <time>2021-11-20T11:19:09.679Z</time>
      </trkpt>
      <trkpt lat="47.542916" lon="7.945730">
        <ele>303.608577</ele>
        <time>2021-11-20T11:19:22.345Z</time>
      </trkpt>
      <trkpt lat="47.542913" lon="7.945267">
        <ele>304.319541</ele>
        <time>2021-11-20T11:19:30.840Z</time>
      </trkpt>
      <trkpt lat="47.543007" lon="7.943867">
        <ele>306.479832</ele>
        <time>2021-11-20T11:19:52.007Z</time>
      </trkpt>
      <trkpt lat="47.543161" lon="7.942213">
        <ele>306.456038</ele>
        <time>2021-11-20T11:20:10.413Z</time>
      </trkpt>
      <trkpt lat="47.543435" lon="7.940670">
        <ele>305.799051</ele>
        <time>2021-11-20T11:20:23.361Z</time>
      </trkpt>
      <trkpt lat="47.543826" lon="7.939433">
        <ele>304.332048</ele>
        <time>2021-11-20T11:20:33.762Z</time>
      </trkpt>
      <trkpt lat="47.544472" lon="7.937932">
        <ele>302.283806</ele>
        <time>2021-11-20T11:20:47.086Z</time>
      </trkpt>
      <trkpt lat="47.544705" lon="7.937395">
        <ele>301.516065</ele>
        <time>2021-11-20T11:20:51.926Z</time>
      </trkpt>
      <trkpt lat="47.544903" lon="7.936917">
        <ele>300.841587</ele>
        <time>2021-11-20T11:20:56.187Z</time>
      </trkpt>
      <trkpt lat="47.545074" lon="7.936484">
        <ele>300.274923</ele>
        <time>2021-11-20T11:21:00.017Z</time>
      </trkpt>
      <trkpt lat="47.545457" lon="7.935110">
        <ele>299.053804</ele>
        <time>2021-11-20T11:21:11.386Z</time>
      </trkpt>
      <trkpt lat="47.545674" lon="7.933625">
        <ele>298.400131</ele>
        <time>2021-11-20T11:21:24.466Z</time>
      </trkpt>
      <trkpt lat="47.545702" lon="7.933290">
        <ele>298.581499</ele>
        <time>2021-11-20T11:21:28.046Z</time>
      </trkpt>
      <trkpt lat="47.545724" lon="7.932758">
        <ele>298.867876</ele>
        <time>2021-11-20T11:21:34.313Z</time>
      </trkpt>
      <trkpt lat="47.545721" lon="7.931992">
        <ele>299.279450</ele>
        <time>2021-11-20T11:21:44.352Z</time>
      </trkpt>
      <trkpt lat="47.545696" lon="7.931497">
        <ele>299.546154</ele>
        <time>2021-11-20T11:21:51.558Z</time>
      </trkpt>
      <trkpt lat="47.545661" lon="7.930955">
        <ele>300.139221</ele>
        <time>2021-11-20T11:22:00.253Z</time>
      </trkpt>
      <trkpt lat="47.545563" lon="7.929641">
        <ele>301.731881</ele>
        <time>2021-11-20T11:22:22.593Z</time>
      </trkpt>
      <trkpt lat="47.545475" lon="7.928419">
        <ele>302.455619</ele>
        <time>2021-11-20T11:22:38.895Z</time>
      </trkpt>
      <trkpt lat="47.545421" lon="7.927686">
        <ele>301.685827</ele>
        <time>2021-11-20T11:22:44.999Z</time>
      </trkpt>
      <trkpt lat="47.545406" lon="7.927306">
        <ele>301.288431</ele>
        <time>2021-11-20T11:22:47.903Z</time>
      </trkpt>
      <trkpt lat="47.545407" lon="7.927001">
        <ele>300.970009</ele>
        <time>2021-11-20T11:22:50.189Z</time>
      </trkpt>
      <trkpt lat="47.545409" lon="7.926773">
        <ele>300.731958</ele>
        <time>2021-11-20T11:22:51.818Z</time>
      </trkpt>
      <trkpt lat="47.545417" lon="7.925848">
        <ele>299.396069</ele>
        <time>2021-11-20T11:22:58.153Z</time>
      </trkpt>
      <trkpt lat="47.545446" lon="7.925350">
        <ele>298.128299</ele>
        <time>2021-11-20T11:23:01.445Z</time>
      </trkpt>
      <trkpt lat="47.545466" lon="7.924880">
        <ele>296.933871</ele>
        <time>2021-11-20T11:23:04.499Z</time>
      </trkpt>
      <trkpt lat="47.545481" lon="7.924396">
        <ele>295.705009</ele>
        <time>2021-11-20T11:23:07.582Z</time>
      </trkpt>
      <trkpt lat="47.545521" lon="7.923709">
        <ele>293.956101</ele>
        <time>2021-11-20T11:23:12.107Z</time>
      </trkpt>
      <trkpt lat="47.545536" lon="7.923407">
        <ele>293.231459</ele>
        <time>2021-11-20T11:23:14.497Z</time>
      </trkpt>
      <trkpt lat="47.545553" lon="7.923142">
        <ele>292.928453</ele>
        <time>2021-11-20T11:23:16.218Z</time>
      </trkpt>
      <trkpt lat="47.545587" lon="7.922895">
        <ele>292.641509</ele>
        <time>2021-11-20T11:23:18.619Z</time>
      </trkpt>
      <trkpt lat="47.545641" lon="7.922610">
        <ele>292.304559</ele>
        <time>2021-11-20T11:23:20.618Z</time>
      </trkpt>
      <trkpt lat="47.545690" lon="7.922369">
        <ele>292.018057</ele>
        <time>2021-11-20T11:23:23.309Z</time>
      </trkpt>
      <trkpt lat="47.545699" lon="7.922325">
        <ele>291.965723</ele>
        <time>2021-11-20T11:23:23.570Z</time>
      </trkpt>
      <trkpt lat="47.545714" lon="7.922249">
        <ele>291.875591</ele>
        <time>2021-11-20T11:23:24.160Z</time>
      </trkpt>
      <trkpt lat="47.545778" lon="7.921947">
        <ele>291.515285</ele>
        <time>2021-11-20T11:23:27.316Z</time>
      </trkpt>
      <trkpt lat="47.545810" lon="7.921755">
        <ele>291.290171</ele>
        <time>2021-11-20T11:23:28.673Z</time>
      </trkpt>
      <trkpt lat="47.545881" lon="7.921096">
        <ele>290.530548</ele>
        <time>2021-11-20T11:23:34.022Z</time>
      </trkpt>
      <trkpt lat="47.545913" lon="7.920765">
        <ele>290.214006</ele>
        <time>2021-11-20T11:23:36.888Z</time>
      </trkpt>
      <trkpt lat="47.545973" lon="7.920313">
        <ele>290.090941</ele>
        <time>2021-11-20T11:23:42.036Z</time>
      </trkpt>
      <trkpt lat="47.546128" lon="7.919617">
        <ele>289.895147</ele>
        <time>2021-11-20T11:23:48.499Z</time>
      </trkpt>
      <trkpt lat="47.546262" lon="7.919081">
        <ele>289.742449</ele>
        <time>2021-11-20T11:23:54.498Z</time>
      </trkpt>
      <trkpt lat="47.546821" lon="7.916867">
        <ele>289.000476</ele>
        <time>2021-11-20T11:24:15.251Z</time>
      </trkpt>
      <trkpt lat="47.547032" lon="7.916218">
        <ele>288.756282</ele>
        <time>2021-11-20T11:24:21.741Z</time>
      </trkpt>
      <trkpt lat="47.547091" lon="7.916039">
        <ele>288.688755</ele>
        <time>2021-11-20T11:24:23.559Z</time>
      </trkpt>
      <trkpt lat="47.547113" lon="7.915971">
        <ele>288.663192</ele>
        <time>2021-11-20T11:24:24.157Z</time>
      </trkpt>
      <trkpt lat="47.547423" lon="7.915080">
        <ele>288.698530</ele>
        <time>2021-11-20T11:24:33.802Z</time>
      </trkpt>
      <trkpt lat="47.547994" lon="7.913433">
        <ele>288.901942</ele>
        <time>2021-11-20T11:24:53.521Z</time>
      </trkpt>
      <trkpt lat="47.548027" lon="7.913334">
        <ele>288.975960</ele>
        <time>2021-11-20T11:24:54.880Z</time>
      </trkpt>
      <trkpt lat="47.548412" lon="7.912168">
        <ele>289.846119</ele>
        <time>2021-11-20T11:25:11.283Z</time>
      </trkpt>
      <trkpt lat="47.549012" lon="7.910340">
        <ele>291.364487</ele>
        <time>2021-11-20T11:25:38.242Z</time>
      </trkpt>
      <trkpt lat="47.549102" lon="7.910058">
        <ele>291.631869</ele>
        <time>2021-11-20T11:25:42.376Z</time>
      </trkpt>
      <trkpt lat="47.549195" lon="7.909756">
        <ele>291.916404</ele>
        <time>2021-11-20T11:25:46.664Z</time>
      </trkpt>
      <trkpt lat="47.549276" lon="7.909487">
        <ele>292.168887</ele>
        <time>2021-11-20T11:25:50.501Z</time>
      </trkpt>
      <trkpt lat="47.549327" lon="7.909318">
        <ele>292.327568</ele>
        <time>2021-11-20T11:25:52.853Z</time>
      </trkpt>
      <trkpt lat="47.549520" lon="7.908678">
        <ele>292.928418</ele>
        <time>2021-11-20T11:26:01.962Z</time>
      </trkpt>
      <trkpt lat="47.549539" lon="7.908625">
        <ele>293.012412</ele>
        <time>2021-11-20T11:26:02.706Z</time>
      </trkpt>
      <trkpt lat="47.550497" lon="7.905558">
        <ele>298.626498</ele>
        <time>2021-11-20T11:26:57.580Z</time>
      </trkpt>
      <trkpt lat="47.550283" lon="7.905413">
        <ele>299.436089</ele>
        <time>2021-11-20T11:27:05.747Z</time>
      </trkpt>
      <trkpt lat="47.550067" lon="7.905245">
        <ele>300.275397</ele>
        <time>2021-11-20T11:27:14.433Z</time>
      </trkpt>
      <trkpt lat="47.549867" lon="7.905155">
        <ele>300.994522</ele>
        <time>2021-11-20T11:27:22.061Z</time>
      </trkpt>
      <trkpt lat="47.549868" lon="7.905010">
        <ele>301.331247</ele>
        <time>2021-11-20T11:27:25.466Z</time>
      </trkpt>
      <trkpt lat="47.550025" lon="7.904774">
        <ele>302.100718</ele>
        <time>2021-11-20T11:27:33.618Z</time>
      </trkpt>
      <trkpt lat="47.550302" lon="7.904164">
        <ele>303.863756</ele>
        <time>2021-11-20T11:27:51.917Z</time>
      </trkpt>
      <trkpt lat="47.550498" lon="7.903445">
        <ele>305.793738</ele>
        <time>2021-11-20T11:28:11.489Z</time>
      </trkpt>
      <trkpt lat="47.550688" lon="7.902451">
        <ele>308.365015</ele>
        <time>2021-11-20T11:28:34.037Z</time>
      </trkpt>
      <trkpt lat="47.550757" lon="7.901591">
        <ele>310.638233</ele>
        <time>2021-11-20T11:28:53.833Z</time>
      </trkpt>
      <trkpt lat="47.550769" lon="7.901362">
        <ele>311.288441</ele>
        <time>2021-11-20T11:28:59.741Z</time>
      </trkpt>
      <trkpt lat="47.550801" lon="7.900244">
        <ele>314.456135</ele>
        <time>2021-11-20T11:29:24.139Z</time>
      </trkpt>
      <trkpt lat="47.550819" lon="7.898109">
        <ele>319.733617</ele>
        <time>2021-11-20T11:30:11.179Z</time>
      </trkpt>
      <trkpt lat="47.550648" lon="7.896481">
        <ele>323.116284</ele>
        <time>2021-11-20T11:30:38.834Z</time>
      </trkpt>
      <trkpt lat="47.550639" lon="7.896345">
        <ele>323.230100</ele>
        <time>2021-11-20T11:30:41.209Z</time>
      </trkpt>
      <trkpt lat="47.550660" lon="7.896255">
        <ele>323.309412</ele>
        <time>2021-11-20T11:30:42.010Z</time>
      </trkpt>
      <trkpt lat="47.550838" lon="7.895509">
        <ele>323.968426</ele>
        <time>2021-11-20T11:30:52.178Z</time>
      </trkpt>
      <trkpt lat="47.550878" lon="7.895158">
        <ele>324.264905</ele>
        <time>2021-11-20T11:30:56.240Z</time>
      </trkpt>
      <trkpt lat="47.550908" lon="7.894308">
        <ele>324.973820</ele>
        <time>2021-11-20T11:31:06.712Z</time>
      </trkpt>
      <trkpt lat="47.550892" lon="7.893176">
        <ele>327.110429</ele>
        <time>2021-11-20T11:31:21.430Z</time>
      </trkpt>
      <trkpt lat="47.550904" lon="7.891725">
        <ele>330.372533</ele>
        <time>2021-11-20T11:31:51.192Z</time>
      </trkpt>
      <trkpt lat="47.550915" lon="7.890600">
        <ele>334.324947</ele>
        <time>2021-11-20T11:32:20.032Z</time>
      </trkpt>
      <trkpt lat="47.550833" lon="7.889069">
        <ele>340.673331</ele>
        <time>2021-11-20T11:33:02.666Z</time>
      </trkpt>
      <trkpt lat="47.550831" lon="7.888611">
        <ele>342.552628</ele>
        <time>2021-11-20T11:33:15.236Z</time>
      </trkpt>
      <trkpt lat="47.550789" lon="7.887816">
        <ele>345.716221</ele>
        <time>2021-11-20T11:33:35.847Z</time>
      </trkpt>
      <trkpt lat="47.550758" lon="7.887295">
        <ele>347.791164</ele>
        <time>2021-11-20T11:33:49.669Z</time>
      </trkpt>
      <trkpt lat="47.550677" lon="7.886476">
        <ele>351.075028</ele>
        <time>2021-11-20T11:34:11.158Z</time>
      </trkpt>
      <trkpt lat="47.550548" lon="7.885799">
        <ele>353.642222</ele>
        <time>2021-11-20T11:34:28.361Z</time>
      </trkpt>
      <trkpt lat="47.550391" lon="7.885109">
        <ele>355.928890</ele>
        <time>2021-11-20T11:34:45.998Z</time>
      </trkpt>
      <trkpt lat="47.550332" lon="7.884727">
        <ele>357.159518</ele>
        <time>2021-11-20T11:34:54.689Z</time>
      </trkpt>
      <trkpt lat="47.550234" lon="7.883221">
        <ele>361.726052</ele>
        <time>2021-11-20T11:35:27.520Z</time>
      </trkpt>
      <trkpt lat="47.549927" lon="7.881490">
        <ele>365.960114</ele>
        <time>2021-11-20T11:35:59.784Z</time>
      </trkpt>
      <trkpt lat="47.549726" lon="7.880786">
        <ele>367.833149</ele>
        <time>2021-11-20T11:36:15.760Z</time>
      </trkpt>
      <trkpt lat="47.549327" lon="7.879547">
        <ele>371.775469</ele>
        <time>2021-11-20T11:36:45.544Z</time>
      </trkpt>
      <trkpt lat="47.549318" lon="7.879398">
        <ele>372.205069</ele>
        <time>2021-11-20T11:36:48.733Z</time>
      </trkpt>
      <trkpt lat="47.549140" lon="7.879391">
        <ele>372.962676</ele>
        <time>2021-11-20T11:36:55.603Z</time>
      </trkpt>
      <trkpt lat="47.548718" lon="7.879258">
        <ele>374.798344</ele>
        <time>2021-11-20T11:37:09.274Z</time>
      </trkpt>
      <trkpt lat="47.548422" lon="7.878959">
        <ele>375.656173</ele>
        <time>2021-11-20T11:37:19.920Z</time>
      </trkpt>
      <trkpt lat="47.548234" lon="7.878638">
        <ele>376.201021</ele>
        <time>2021-11-20T11:37:28.352Z</time>
      </trkpt>
      <trkpt lat="47.547992" lon="7.877974">
        <ele>377.168449</ele>
        <time>2021-11-20T11:37:41.450Z</time>
      </trkpt>
      <trkpt lat="47.547574" lon="7.876801">
        <ele>378.029268</ele>
        <time>2021-11-20T11:37:55.213Z</time>
      </trkpt>
      <trkpt lat="47.547126" lon="7.875801">
        <ele>375.698777</ele>
        <time>2021-11-20T11:38:03.996Z</time>
      </trkpt>
      <trkpt lat="47.546309" lon="7.874154">
        <ele>369.905761</ele>
        <time>2021-11-20T11:38:17.184Z</time>
      </trkpt>
      <trkpt lat="47.546135" lon="7.873859">
        <ele>368.294174</ele>
        <time>2021-11-20T11:38:19.566Z</time>
      </trkpt>
      <trkpt lat="47.546077" lon="7.873763">
        <ele>367.764168</ele>
        <time>2021-11-20T11:38:20.377Z</time>
      </trkpt>
      <trkpt lat="47.545934" lon="7.873549">
        <ele>366.525411</ele>
        <time>2021-11-20T11:38:22.182Z</time>
      </trkpt>
      <trkpt lat="47.545746" lon="7.873302">
        <ele>364.994005</ele>
        <time>2021-11-20T11:38:24.470Z</time>
      </trkpt>
      <trkpt lat="47.545515" lon="7.873015">
        <ele>363.156648</ele>
        <time>2021-11-20T11:38:27.158Z</time>
      </trkpt>
      <trkpt lat="47.545478" lon="7.872968">
        <ele>362.859611</ele>
        <time>2021-11-20T11:38:27.597Z</time>
      </trkpt>
      <trkpt lat="47.545375" lon="7.872836">
        <ele>362.399149</ele>
        <time>2021-11-20T11:38:28.792Z</time>
      </trkpt>
      <trkpt lat="47.545131" lon="7.872664">
        <ele>362.399149</ele>
        <time>2021-11-20T11:38:31.259Z</time>
      </trkpt>
      <trkpt lat="47.544883" lon="7.872555">
        <ele>362.399149</ele>
        <time>2021-11-20T11:38:33.613Z</time>
      </trkpt>
      <trkpt lat="47.544390" lon="7.872423">
        <ele>362.399149</ele>
        <time>2021-11-20T11:38:38.236Z</time>
      </trkpt>
      <trkpt lat="47.544072" lon="7.872367">
        <ele>362.399149</ele>
        <time>2021-11-20T11:38:41.288Z</time>
      </trkpt>
    </trkseg>
  </trk>
</gpx>